<?xml version="1.0" encoding="UTF-8" standalone="no" ?>
<gpx xmlns="http://www.topografix.com/GPX/1/1" xmlns:xsi="http://www.w3.org/2001/XMLSchema-instance" xsi:schemaLocation="http://www.topografix.com/GPX/1/1 http://www.topografix.com/GPX/1/1/gpx.xsd" version="1.1" creator="VisuGPX - https://www.visugpx.com">
  <metadata>
    <name>Confins (tricotage)</name>
  </metadata>
  <trk>
    <name><![CDATA[20190430194709-jMZ7s]]></name>
    <trkseg>
      <trkpt lat="45.92282" lon="6.484">
        <ele>1453.65</ele>
        <time>2019-04-05T08:09:57Z</time>
      </trkpt>
      <trkpt lat="45.92282" lon="6.484">
        <ele>1616.59</ele>
        <time>2019-04-05T08:09:58Z</time>
      </trkpt>
      <trkpt lat="45.92282" lon="6.48401">
        <ele>1616.59</ele>
        <time>2019-04-05T08:09:59Z</time>
      </trkpt>
      <trkpt lat="45.9228" lon="6.48405">
        <ele>1453.65</ele>
        <time>2019-04-05T08:10:03Z</time>
      </trkpt>
      <trkpt lat="45.92279" lon="6.48407">
        <ele>1453.65</ele>
        <time>2019-04-05T08:10:04Z</time>
      </trkpt>
      <trkpt lat="45.92273" lon="6.48422">
        <ele>1454.61</ele>
        <time>2019-04-05T08:10:17Z</time>
      </trkpt>
      <trkpt lat="45.92272" lon="6.48422">
        <ele>1454.61</ele>
        <time>2019-04-05T08:10:18Z</time>
      </trkpt>
      <trkpt lat="45.92226" lon="6.48448">
        <ele>1456.53</ele>
        <time>2019-04-05T08:11:04Z</time>
      </trkpt>
      <trkpt lat="45.92199" lon="6.48478">
        <ele>1458.94</ele>
        <time>2019-04-05T08:11:34Z</time>
      </trkpt>
      <trkpt lat="45.92186" lon="6.48495">
        <ele>1461.82</ele>
        <time>2019-04-05T08:11:54Z</time>
      </trkpt>
      <trkpt lat="45.92173" lon="6.48512">
        <ele>1465.19</ele>
        <time>2019-04-05T08:12:12Z</time>
      </trkpt>
      <trkpt lat="45.92165" lon="6.48521">
        <ele>1468.07</ele>
        <time>2019-04-05T08:12:26Z</time>
      </trkpt>
      <trkpt lat="45.92157" lon="6.4853">
        <ele>1470.95</ele>
        <time>2019-04-05T08:12:39Z</time>
      </trkpt>
      <trkpt lat="45.9215" lon="6.48538">
        <ele>1474.32</ele>
        <time>2019-04-05T08:12:51Z</time>
      </trkpt>
      <trkpt lat="45.92141" lon="6.48549">
        <ele>1477.2</ele>
        <time>2019-04-05T08:13:09Z</time>
      </trkpt>
      <trkpt lat="45.92133" lon="6.48542">
        <ele>1479.61</ele>
        <time>2019-04-05T08:13:23Z</time>
      </trkpt>
      <trkpt lat="45.92118" lon="6.48533">
        <ele>1481.53</ele>
        <time>2019-04-05T08:13:43Z</time>
      </trkpt>
      <trkpt lat="45.92094" lon="6.48547">
        <ele>1484.41</ele>
        <time>2019-04-05T08:14:15Z</time>
      </trkpt>
      <trkpt lat="45.92074" lon="6.48563">
        <ele>1487.78</ele>
        <time>2019-04-05T08:14:39Z</time>
      </trkpt>
      <trkpt lat="45.92061" lon="6.48571">
        <ele>1490.66</ele>
        <time>2019-04-05T08:14:58Z</time>
      </trkpt>
      <trkpt lat="45.92055" lon="6.48576">
        <ele>1492.58</ele>
        <time>2019-04-05T08:15:08Z</time>
      </trkpt>
      <trkpt lat="45.92053" lon="6.48579">
        <ele>1493.55</ele>
        <time>2019-04-05T08:15:12Z</time>
      </trkpt>
      <trkpt lat="45.92045" lon="6.48593">
        <ele>1496.43</ele>
        <time>2019-04-05T08:15:30Z</time>
      </trkpt>
      <trkpt lat="45.92031" lon="6.48613">
        <ele>1499.31</ele>
        <time>2019-04-05T08:15:54Z</time>
      </trkpt>
      <trkpt lat="45.92015" lon="6.48635">
        <ele>1502.2</ele>
        <time>2019-04-05T08:16:21Z</time>
      </trkpt>
      <trkpt lat="45.92003" lon="6.48652">
        <ele>1505.56</ele>
        <time>2019-04-05T08:16:44Z</time>
      </trkpt>
      <trkpt lat="45.91991" lon="6.48668">
        <ele>1508.45</ele>
        <time>2019-04-05T08:17:05Z</time>
      </trkpt>
      <trkpt lat="45.9199" lon="6.4867">
        <ele>1508.93</ele>
        <time>2019-04-05T08:17:07Z</time>
      </trkpt>
      <trkpt lat="45.91976" lon="6.48693">
        <ele>1511.81</ele>
        <time>2019-04-05T08:17:33Z</time>
      </trkpt>
      <trkpt lat="45.91966" lon="6.48705">
        <ele>1515.18</ele>
        <time>2019-04-05T08:17:52Z</time>
      </trkpt>
      <trkpt lat="45.91956" lon="6.48713">
        <ele>1518.06</ele>
        <time>2019-04-05T08:18:09Z</time>
      </trkpt>
      <trkpt lat="45.91955" lon="6.48714">
        <ele>1518.54</ele>
        <time>2019-04-05T08:18:10Z</time>
      </trkpt>
      <trkpt lat="45.91953" lon="6.48715">
        <ele>1519.02</ele>
        <time>2019-04-05T08:18:12Z</time>
      </trkpt>
      <trkpt lat="45.91948" lon="6.4872">
        <ele>1521.42</ele>
        <time>2019-04-05T08:18:23Z</time>
      </trkpt>
      <trkpt lat="45.91945" lon="6.48723">
        <ele>1522.87</ele>
        <time>2019-04-05T08:18:32Z</time>
      </trkpt>
      <trkpt lat="45.91938" lon="6.48728">
        <ele>1524.79</ele>
        <time>2019-04-05T08:18:41Z</time>
      </trkpt>
      <trkpt lat="45.91933" lon="6.48731">
        <ele>1526.71</ele>
        <time>2019-04-05T08:18:51Z</time>
      </trkpt>
      <trkpt lat="45.91927" lon="6.48735">
        <ele>1528.63</ele>
        <time>2019-04-05T08:19:01Z</time>
      </trkpt>
      <trkpt lat="45.91923" lon="6.48738">
        <ele>1529.59</ele>
        <time>2019-04-05T08:19:09Z</time>
      </trkpt>
      <trkpt lat="45.91915" lon="6.48742">
        <ele>1531.52</ele>
        <time>2019-04-05T08:19:19Z</time>
      </trkpt>
      <trkpt lat="45.91909" lon="6.48746">
        <ele>1533.44</ele>
        <time>2019-04-05T08:19:29Z</time>
      </trkpt>
      <trkpt lat="45.91902" lon="6.48749">
        <ele>1534.88</ele>
        <time>2019-04-05T08:19:40Z</time>
      </trkpt>
      <trkpt lat="45.91893" lon="6.48751">
        <ele>1536.8</ele>
        <time>2019-04-05T08:19:52Z</time>
      </trkpt>
      <trkpt lat="45.91885" lon="6.48751">
        <ele>1539.21</ele>
        <time>2019-04-05T08:20:05Z</time>
      </trkpt>
      <trkpt lat="45.91876" lon="6.48754">
        <ele>1542.09</ele>
        <time>2019-04-05T08:20:20Z</time>
      </trkpt>
      <trkpt lat="45.91865" lon="6.48752">
        <ele>1544.98</ele>
        <time>2019-04-05T08:20:36Z</time>
      </trkpt>
      <trkpt lat="45.91856" lon="6.48749">
        <ele>1546.9</ele>
        <time>2019-04-05T08:20:51Z</time>
      </trkpt>
      <trkpt lat="45.91845" lon="6.48743">
        <ele>1548.82</ele>
        <time>2019-04-05T08:21:06Z</time>
      </trkpt>
      <trkpt lat="45.91837" lon="6.48744">
        <ele>1550.26</ele>
        <time>2019-04-05T08:21:17Z</time>
      </trkpt>
      <trkpt lat="45.91828" lon="6.4875">
        <ele>1553.63</ele>
        <time>2019-04-05T08:21:33Z</time>
      </trkpt>
      <trkpt lat="45.91829" lon="6.4875">
        <ele>1553.63</ele>
        <time>2019-04-05T08:21:35Z</time>
      </trkpt>
      <trkpt lat="45.91841" lon="6.48758">
        <ele>1556.99</ele>
        <time>2019-04-05T08:21:53Z</time>
      </trkpt>
      <trkpt lat="45.9185" lon="6.48769">
        <ele>1560.36</ele>
        <time>2019-04-05T08:22:11Z</time>
      </trkpt>
      <trkpt lat="45.9185" lon="6.48772">
        <ele>1561.32</ele>
        <time>2019-04-05T08:22:18Z</time>
      </trkpt>
      <trkpt lat="45.91841" lon="6.48773">
        <ele>1563.72</ele>
        <time>2019-04-05T08:22:30Z</time>
      </trkpt>
      <trkpt lat="45.91831" lon="6.48782">
        <ele>1566.61</ele>
        <time>2019-04-05T08:22:47Z</time>
      </trkpt>
      <trkpt lat="45.91822" lon="6.48781">
        <ele>1569.97</ele>
        <time>2019-04-05T08:23:06Z</time>
      </trkpt>
      <trkpt lat="45.91812" lon="6.48782">
        <ele>1572.85</ele>
        <time>2019-04-05T08:23:22Z</time>
      </trkpt>
      <trkpt lat="45.91818" lon="6.48792">
        <ele>1575.74</ele>
        <time>2019-04-05T08:23:41Z</time>
      </trkpt>
      <trkpt lat="45.91826" lon="6.48805">
        <ele>1578.62</ele>
        <time>2019-04-05T08:24:02Z</time>
      </trkpt>
      <trkpt lat="45.91816" lon="6.48802">
        <ele>1581.99</ele>
        <time>2019-04-05T08:24:19Z</time>
      </trkpt>
      <trkpt lat="45.91807" lon="6.488">
        <ele>1585.35</ele>
        <time>2019-04-05T08:24:35Z</time>
      </trkpt>
      <trkpt lat="45.91799" lon="6.488">
        <ele>1588.24</ele>
        <time>2019-04-05T08:24:50Z</time>
      </trkpt>
      <trkpt lat="45.91791" lon="6.488">
        <ele>1591.6</ele>
        <time>2019-04-05T08:25:05Z</time>
      </trkpt>
      <trkpt lat="45.91788" lon="6.48799">
        <ele>1591.6</ele>
        <time>2019-04-05T08:25:08Z</time>
      </trkpt>
      <trkpt lat="45.91784" lon="6.488">
        <ele>1591.6</ele>
        <time>2019-04-05T08:25:12Z</time>
      </trkpt>
      <trkpt lat="45.91766" lon="6.48809">
        <ele>1587.27</ele>
        <time>2019-04-05T08:25:26Z</time>
      </trkpt>
      <trkpt lat="45.91764" lon="6.4881">
        <ele>1585.35</ele>
        <time>2019-04-05T08:25:29Z</time>
      </trkpt>
      <trkpt lat="45.91751" lon="6.48809">
        <ele>1584.39</ele>
        <time>2019-04-05T08:25:38Z</time>
      </trkpt>
      <trkpt lat="45.91748" lon="6.48809">
        <ele>1583.91</ele>
        <time>2019-04-05T08:25:39Z</time>
      </trkpt>
      <trkpt lat="45.91743" lon="6.48809">
        <ele>1581.99</ele>
        <time>2019-04-05T08:25:43Z</time>
      </trkpt>
      <trkpt lat="45.9174" lon="6.48813">
        <ele>1581.99</ele>
        <time>2019-04-05T08:25:48Z</time>
      </trkpt>
      <trkpt lat="45.91733" lon="6.48816">
        <ele>1583.43</ele>
        <time>2019-04-05T08:25:59Z</time>
      </trkpt>
      <trkpt lat="45.91733" lon="6.48817">
        <ele>1583.43</ele>
        <time>2019-04-05T08:26:00Z</time>
      </trkpt>
      <trkpt lat="45.91725" lon="6.48828">
        <ele>1585.83</ele>
        <time>2019-04-05T08:26:16Z</time>
      </trkpt>
      <trkpt lat="45.91722" lon="6.48842">
        <ele>1588.72</ele>
        <time>2019-04-05T08:26:30Z</time>
      </trkpt>
      <trkpt lat="45.91718" lon="6.48845">
        <ele>1589.2</ele>
        <time>2019-04-05T08:26:35Z</time>
      </trkpt>
      <trkpt lat="45.91718" lon="6.48845">
        <ele>1589.2</ele>
        <time>2019-04-05T08:26:36Z</time>
      </trkpt>
      <trkpt lat="45.91712" lon="6.4885">
        <ele>1589.2</ele>
        <time>2019-04-05T08:26:46Z</time>
      </trkpt>
      <trkpt lat="45.91711" lon="6.48849">
        <ele>1589.2</ele>
        <time>2019-04-05T08:26:47Z</time>
      </trkpt>
      <trkpt lat="45.91708" lon="6.48851">
        <ele>1589.2</ele>
        <time>2019-04-05T08:26:52Z</time>
      </trkpt>
      <trkpt lat="45.91707" lon="6.48852">
        <ele>1589.2</ele>
        <time>2019-04-05T08:26:53Z</time>
      </trkpt>
      <trkpt lat="45.9169" lon="6.48852">
        <ele>1587.75</ele>
        <time>2019-04-05T08:27:06Z</time>
      </trkpt>
      <trkpt lat="45.91678" lon="6.48855">
        <ele>1591.12</ele>
        <time>2019-04-05T08:27:30Z</time>
      </trkpt>
      <trkpt lat="45.91663" lon="6.48861">
        <ele>1594</ele>
        <time>2019-04-05T08:27:49Z</time>
      </trkpt>
      <trkpt lat="45.91653" lon="6.48866">
        <ele>1597.37</ele>
        <time>2019-04-05T08:28:07Z</time>
      </trkpt>
      <trkpt lat="45.91647" lon="6.4887">
        <ele>1598.81</ele>
        <time>2019-04-05T08:28:16Z</time>
      </trkpt>
      <trkpt lat="45.91637" lon="6.48874">
        <ele>1602.17</ele>
        <time>2019-04-05T08:28:33Z</time>
      </trkpt>
      <trkpt lat="45.91626" lon="6.48879">
        <ele>1605.06</ele>
        <time>2019-04-05T08:28:50Z</time>
      </trkpt>
      <trkpt lat="45.91614" lon="6.48886">
        <ele>1608.42</ele>
        <time>2019-04-05T08:29:11Z</time>
      </trkpt>
      <trkpt lat="45.91602" lon="6.48891">
        <ele>1611.31</ele>
        <time>2019-04-05T08:29:28Z</time>
      </trkpt>
      <trkpt lat="45.91588" lon="6.48897">
        <ele>1614.19</ele>
        <time>2019-04-05T08:29:47Z</time>
      </trkpt>
      <trkpt lat="45.91573" lon="6.48907">
        <ele>1617.56</ele>
        <time>2019-04-05T08:30:07Z</time>
      </trkpt>
      <trkpt lat="45.91566" lon="6.48917">
        <ele>1620.44</ele>
        <time>2019-04-05T08:30:23Z</time>
      </trkpt>
      <trkpt lat="45.91561" lon="6.48927">
        <ele>1623.8</ele>
        <time>2019-04-05T08:30:39Z</time>
      </trkpt>
      <trkpt lat="45.91559" lon="6.48937">
        <ele>1626.69</ele>
        <time>2019-04-05T08:30:54Z</time>
      </trkpt>
      <trkpt lat="45.91558" lon="6.4894">
        <ele>1627.65</ele>
        <time>2019-04-05T08:30:57Z</time>
      </trkpt>
      <trkpt lat="45.9155" lon="6.48951">
        <ele>1631.01</ele>
        <time>2019-04-05T08:31:14Z</time>
      </trkpt>
      <trkpt lat="45.91539" lon="6.48959">
        <ele>1633.9</ele>
        <time>2019-04-05T08:31:33Z</time>
      </trkpt>
      <trkpt lat="45.91537" lon="6.48964">
        <ele>1636.78</ele>
        <time>2019-04-05T08:31:53Z</time>
      </trkpt>
      <trkpt lat="45.91525" lon="6.4897">
        <ele>1640.15</ele>
        <time>2019-04-05T08:32:14Z</time>
      </trkpt>
      <trkpt lat="45.91524" lon="6.4897">
        <ele>1640.15</ele>
        <time>2019-04-05T08:32:15Z</time>
      </trkpt>
      <trkpt lat="45.91516" lon="6.48969">
        <ele>1643.51</ele>
        <time>2019-04-05T08:32:36Z</time>
      </trkpt>
      <trkpt lat="45.91512" lon="6.48971">
        <ele>1645.43</ele>
        <time>2019-04-05T08:33:45Z</time>
      </trkpt>
      <trkpt lat="45.91507" lon="6.48971">
        <ele>1648.8</ele>
        <time>2019-04-05T08:34:03Z</time>
      </trkpt>
      <trkpt lat="45.91506" lon="6.48973">
        <ele>1651.68</ele>
        <time>2019-04-05T08:34:20Z</time>
      </trkpt>
      <trkpt lat="45.91508" lon="6.48976">
        <ele>1654.57</ele>
        <time>2019-04-05T08:34:35Z</time>
      </trkpt>
      <trkpt lat="45.91505" lon="6.48978">
        <ele>1657.93</ele>
        <time>2019-04-05T08:34:46Z</time>
      </trkpt>
      <trkpt lat="45.91506" lon="6.48982">
        <ele>1660.81</ele>
        <time>2019-04-05T08:34:59Z</time>
      </trkpt>
      <trkpt lat="45.91505" lon="6.48983">
        <ele>1660.81</ele>
        <time>2019-04-05T08:35:02Z</time>
      </trkpt>
      <trkpt lat="45.91504" lon="6.48982">
        <ele>1662.26</ele>
        <time>2019-04-05T08:35:24Z</time>
      </trkpt>
      <trkpt lat="45.91505" lon="6.48982">
        <ele>1662.26</ele>
        <time>2019-04-05T08:35:26Z</time>
      </trkpt>
      <trkpt lat="45.91498" lon="6.48983">
        <ele>1665.62</ele>
        <time>2019-04-05T08:36:05Z</time>
      </trkpt>
      <trkpt lat="45.91487" lon="6.48981">
        <ele>1667.54</ele>
        <time>2019-04-05T08:36:18Z</time>
      </trkpt>
      <trkpt lat="45.91486" lon="6.48981">
        <ele>1667.54</ele>
        <time>2019-04-05T08:36:19Z</time>
      </trkpt>
      <trkpt lat="45.91474" lon="6.48982">
        <ele>1670.43</ele>
        <time>2019-04-05T08:36:34Z</time>
      </trkpt>
      <trkpt lat="45.91472" lon="6.48982">
        <ele>1670.43</ele>
        <time>2019-04-05T08:36:35Z</time>
      </trkpt>
      <trkpt lat="45.91468" lon="6.48983">
        <ele>1671.39</ele>
        <time>2019-04-05T08:36:39Z</time>
      </trkpt>
      <trkpt lat="45.91466" lon="6.48983">
        <ele>1671.39</ele>
        <time>2019-04-05T08:36:40Z</time>
      </trkpt>
      <trkpt lat="45.91464" lon="6.48984">
        <ele>1671.39</ele>
        <time>2019-04-05T08:36:42Z</time>
      </trkpt>
      <trkpt lat="45.91462" lon="6.48985">
        <ele>1671.87</ele>
        <time>2019-04-05T08:36:45Z</time>
      </trkpt>
      <trkpt lat="45.91461" lon="6.48985">
        <ele>1671.39</ele>
        <time>2019-04-05T08:36:46Z</time>
      </trkpt>
      <trkpt lat="45.91449" lon="6.48985">
        <ele>1673.31</ele>
        <time>2019-04-05T08:37:04Z</time>
      </trkpt>
      <trkpt lat="45.91448" lon="6.48984">
        <ele>1673.79</ele>
        <time>2019-04-05T08:37:05Z</time>
      </trkpt>
      <trkpt lat="45.91443" lon="6.48983">
        <ele>1675.23</ele>
        <time>2019-04-05T08:37:11Z</time>
      </trkpt>
      <trkpt lat="45.91443" lon="6.48983">
        <ele>1675.72</ele>
        <time>2019-04-05T08:37:12Z</time>
      </trkpt>
      <trkpt lat="45.9144" lon="6.4898">
        <ele>1676.68</ele>
        <time>2019-04-05T08:37:18Z</time>
      </trkpt>
      <trkpt lat="45.91439" lon="6.48976">
        <ele>1678.12</ele>
        <time>2019-04-05T08:37:25Z</time>
      </trkpt>
      <trkpt lat="45.91435" lon="6.48972">
        <ele>1679.56</ele>
        <time>2019-04-05T08:37:34Z</time>
      </trkpt>
      <trkpt lat="45.91434" lon="6.4897">
        <ele>1680.04</ele>
        <time>2019-04-05T08:37:37Z</time>
      </trkpt>
      <trkpt lat="45.91431" lon="6.48964">
        <ele>1681.96</ele>
        <time>2019-04-05T08:37:45Z</time>
      </trkpt>
      <trkpt lat="45.91427" lon="6.48962">
        <ele>1683.41</ele>
        <time>2019-04-05T08:37:54Z</time>
      </trkpt>
      <trkpt lat="45.91426" lon="6.48962">
        <ele>1683.41</ele>
        <time>2019-04-05T08:37:55Z</time>
      </trkpt>
      <trkpt lat="45.91423" lon="6.48972">
        <ele>1686.77</ele>
        <time>2019-04-05T08:38:10Z</time>
      </trkpt>
      <trkpt lat="45.9142" lon="6.48983">
        <ele>1689.17</ele>
        <time>2019-04-05T08:38:21Z</time>
      </trkpt>
      <trkpt lat="45.91417" lon="6.48993">
        <ele>1692.06</ele>
        <time>2019-04-05T08:38:38Z</time>
      </trkpt>
      <trkpt lat="45.9141" lon="6.48992">
        <ele>1695.42</ele>
        <time>2019-04-05T08:38:56Z</time>
      </trkpt>
      <trkpt lat="45.91404" lon="6.48981">
        <ele>1698.31</ele>
        <time>2019-04-05T08:39:14Z</time>
      </trkpt>
      <trkpt lat="45.91403" lon="6.48987">
        <ele>1700.23</ele>
        <time>2019-04-05T08:39:23Z</time>
      </trkpt>
      <trkpt lat="45.91394" lon="6.48996">
        <ele>1703.11</ele>
        <time>2019-04-05T08:39:42Z</time>
      </trkpt>
      <trkpt lat="45.91389" lon="6.4899">
        <ele>1704.55</ele>
        <time>2019-04-05T08:39:50Z</time>
      </trkpt>
      <trkpt lat="45.91383" lon="6.48995">
        <ele>1707.44</ele>
        <time>2019-04-05T08:40:06Z</time>
      </trkpt>
      <trkpt lat="45.91374" lon="6.48989">
        <ele>1710.8</ele>
        <time>2019-04-05T08:40:26Z</time>
      </trkpt>
      <trkpt lat="45.91367" lon="6.48983">
        <ele>1713.69</ele>
        <time>2019-04-05T08:40:43Z</time>
      </trkpt>
      <trkpt lat="45.91364" lon="6.4898">
        <ele>1715.61</ele>
        <time>2019-04-05T08:40:52Z</time>
      </trkpt>
      <trkpt lat="45.91353" lon="6.48981">
        <ele>1718.49</ele>
        <time>2019-04-05T08:41:10Z</time>
      </trkpt>
      <trkpt lat="45.91343" lon="6.48983">
        <ele>1721.38</ele>
        <time>2019-04-05T08:41:30Z</time>
      </trkpt>
      <trkpt lat="45.9134" lon="6.48982">
        <ele>1722.82</ele>
        <time>2019-04-05T08:41:36Z</time>
      </trkpt>
      <trkpt lat="45.91331" lon="6.48986">
        <ele>1726.18</ele>
        <time>2019-04-05T08:41:55Z</time>
      </trkpt>
      <trkpt lat="45.91326" lon="6.48987">
        <ele>1727.63</ele>
        <time>2019-04-05T08:42:02Z</time>
      </trkpt>
      <trkpt lat="45.91325" lon="6.48987">
        <ele>1727.63</ele>
        <time>2019-04-05T08:42:03Z</time>
      </trkpt>
      <trkpt lat="45.91324" lon="6.48987">
        <ele>1727.63</ele>
        <time>2019-04-05T08:42:04Z</time>
      </trkpt>
      <trkpt lat="45.91313" lon="6.4899">
        <ele>1730.51</ele>
        <time>2019-04-05T08:42:25Z</time>
      </trkpt>
      <trkpt lat="45.91301" lon="6.48997">
        <ele>1733.88</ele>
        <time>2019-04-05T08:42:43Z</time>
      </trkpt>
      <trkpt lat="45.91295" lon="6.4899">
        <ele>1736.76</ele>
        <time>2019-04-05T08:42:58Z</time>
      </trkpt>
      <trkpt lat="45.91282" lon="6.48987">
        <ele>1740.12</ele>
        <time>2019-04-05T08:43:19Z</time>
      </trkpt>
      <trkpt lat="45.91272" lon="6.48982">
        <ele>1743.01</ele>
        <time>2019-04-05T08:43:39Z</time>
      </trkpt>
      <trkpt lat="45.91265" lon="6.48976">
        <ele>1746.37</ele>
        <time>2019-04-05T08:43:54Z</time>
      </trkpt>
      <trkpt lat="45.91261" lon="6.48972">
        <ele>1747.81</ele>
        <time>2019-04-05T08:44:05Z</time>
      </trkpt>
      <trkpt lat="45.9126" lon="6.48971">
        <ele>1747.81</ele>
        <time>2019-04-05T08:44:06Z</time>
      </trkpt>
      <trkpt lat="45.91255" lon="6.48971">
        <ele>1748.78</ele>
        <time>2019-04-05T08:44:11Z</time>
      </trkpt>
      <trkpt lat="45.91253" lon="6.48971">
        <ele>1749.74</ele>
        <time>2019-04-05T08:44:14Z</time>
      </trkpt>
      <trkpt lat="45.91252" lon="6.4897">
        <ele>1750.22</ele>
        <time>2019-04-05T08:44:19Z</time>
      </trkpt>
      <trkpt lat="45.91253" lon="6.48972">
        <ele>1751.18</ele>
        <time>2019-04-05T08:44:23Z</time>
      </trkpt>
      <trkpt lat="45.91255" lon="6.48988">
        <ele>1754.06</ele>
        <time>2019-04-05T08:44:40Z</time>
      </trkpt>
      <trkpt lat="45.91252" lon="6.49002">
        <ele>1757.43</ele>
        <time>2019-04-05T08:44:59Z</time>
      </trkpt>
      <trkpt lat="45.9125" lon="6.49012">
        <ele>1759.83</ele>
        <time>2019-04-05T08:45:10Z</time>
      </trkpt>
      <trkpt lat="45.91243" lon="6.49012">
        <ele>1762.71</ele>
        <time>2019-04-05T08:45:30Z</time>
      </trkpt>
      <trkpt lat="45.91239" lon="6.49009">
        <ele>1763.68</ele>
        <time>2019-04-05T08:45:35Z</time>
      </trkpt>
      <trkpt lat="45.91228" lon="6.49">
        <ele>1766.56</ele>
        <time>2019-04-05T08:45:54Z</time>
      </trkpt>
      <trkpt lat="45.91223" lon="6.48985">
        <ele>1769.92</ele>
        <time>2019-04-05T08:46:13Z</time>
      </trkpt>
      <trkpt lat="45.9122" lon="6.48973">
        <ele>1772.81</ele>
        <time>2019-04-05T08:46:32Z</time>
      </trkpt>
      <trkpt lat="45.91216" lon="6.48964">
        <ele>1776.17</ele>
        <time>2019-04-05T08:46:49Z</time>
      </trkpt>
      <trkpt lat="45.91215" lon="6.48962">
        <ele>1777.13</ele>
        <time>2019-04-05T08:46:55Z</time>
      </trkpt>
      <trkpt lat="45.91199" lon="6.48958">
        <ele>1780.02</ele>
        <time>2019-04-05T08:47:15Z</time>
      </trkpt>
      <trkpt lat="45.91188" lon="6.48959">
        <ele>1783.38</ele>
        <time>2019-04-05T08:47:34Z</time>
      </trkpt>
      <trkpt lat="45.91187" lon="6.48967">
        <ele>1786.27</ele>
        <time>2019-04-05T08:47:52Z</time>
      </trkpt>
      <trkpt lat="45.9119" lon="6.48978">
        <ele>1789.63</ele>
        <time>2019-04-05T08:48:08Z</time>
      </trkpt>
      <trkpt lat="45.9119" lon="6.48992">
        <ele>1792.52</ele>
        <time>2019-04-05T08:48:24Z</time>
      </trkpt>
      <trkpt lat="45.91182" lon="6.48997">
        <ele>1795.88</ele>
        <time>2019-04-05T08:48:43Z</time>
      </trkpt>
      <trkpt lat="45.91173" lon="6.48994">
        <ele>1798.76</ele>
        <time>2019-04-05T08:48:59Z</time>
      </trkpt>
      <trkpt lat="45.91165" lon="6.48989">
        <ele>1802.13</ele>
        <time>2019-04-05T08:49:16Z</time>
      </trkpt>
      <trkpt lat="45.91161" lon="6.48988">
        <ele>1805.01</ele>
        <time>2019-04-05T08:49:32Z</time>
      </trkpt>
      <trkpt lat="45.91162" lon="6.4899">
        <ele>1805.97</ele>
        <time>2019-04-05T08:49:37Z</time>
      </trkpt>
      <trkpt lat="45.91162" lon="6.49007">
        <ele>1809.34</ele>
        <time>2019-04-05T08:49:59Z</time>
      </trkpt>
      <trkpt lat="45.91163" lon="6.49019">
        <ele>1812.22</ele>
        <time>2019-04-05T08:50:15Z</time>
      </trkpt>
      <trkpt lat="45.91162" lon="6.49031">
        <ele>1815.11</ele>
        <time>2019-04-05T08:50:32Z</time>
      </trkpt>
      <trkpt lat="45.91162" lon="6.49039">
        <ele>1817.99</ele>
        <time>2019-04-05T08:50:47Z</time>
      </trkpt>
      <trkpt lat="45.91161" lon="6.49051">
        <ele>1821.35</ele>
        <time>2019-04-05T08:51:05Z</time>
      </trkpt>
      <trkpt lat="45.91158" lon="6.49065">
        <ele>1824.72</ele>
        <time>2019-04-05T08:51:24Z</time>
      </trkpt>
      <trkpt lat="45.91155" lon="6.49078">
        <ele>1827.6</ele>
        <time>2019-04-05T08:51:41Z</time>
      </trkpt>
      <trkpt lat="45.91151" lon="6.4909">
        <ele>1830.97</ele>
        <time>2019-04-05T08:52:00Z</time>
      </trkpt>
      <trkpt lat="45.91148" lon="6.491">
        <ele>1834.33</ele>
        <time>2019-04-05T08:52:16Z</time>
      </trkpt>
      <trkpt lat="45.91141" lon="6.49105">
        <ele>1837.22</ele>
        <time>2019-04-05T08:52:32Z</time>
      </trkpt>
      <trkpt lat="45.91141" lon="6.49105">
        <ele>1837.7</ele>
        <time>2019-04-05T08:52:34Z</time>
      </trkpt>
      <trkpt lat="45.91137" lon="6.49117">
        <ele>1841.06</ele>
        <time>2019-04-05T08:52:51Z</time>
      </trkpt>
      <trkpt lat="45.9113" lon="6.49123">
        <ele>1844.43</ele>
        <time>2019-04-05T08:53:08Z</time>
      </trkpt>
      <trkpt lat="45.91127" lon="6.4913">
        <ele>1846.83</ele>
        <time>2019-04-05T08:53:21Z</time>
      </trkpt>
      <trkpt lat="45.91124" lon="6.4914">
        <ele>1849.71</ele>
        <time>2019-04-05T08:53:35Z</time>
      </trkpt>
      <trkpt lat="45.91121" lon="6.4915">
        <ele>1852.6</ele>
        <time>2019-04-05T08:53:52Z</time>
      </trkpt>
      <trkpt lat="45.91117" lon="6.49157">
        <ele>1855.96</ele>
        <time>2019-04-05T08:54:08Z</time>
      </trkpt>
      <trkpt lat="45.91111" lon="6.49169">
        <ele>1859.33</ele>
        <time>2019-04-05T08:54:25Z</time>
      </trkpt>
      <trkpt lat="45.91108" lon="6.49179">
        <ele>1862.21</ele>
        <time>2019-04-05T08:54:42Z</time>
      </trkpt>
      <trkpt lat="45.91104" lon="6.4919">
        <ele>1865.09</ele>
        <time>2019-04-05T08:55:00Z</time>
      </trkpt>
      <trkpt lat="45.91097" lon="6.49201">
        <ele>1868.46</ele>
        <time>2019-04-05T08:55:22Z</time>
      </trkpt>
      <trkpt lat="45.91092" lon="6.49211">
        <ele>1871.34</ele>
        <time>2019-04-05T08:55:39Z</time>
      </trkpt>
      <trkpt lat="45.91087" lon="6.49221">
        <ele>1873.75</ele>
        <time>2019-04-05T08:55:52Z</time>
      </trkpt>
      <trkpt lat="45.91081" lon="6.49224">
        <ele>1877.11</ele>
        <time>2019-04-05T08:56:08Z</time>
      </trkpt>
      <trkpt lat="45.91076" lon="6.49221">
        <ele>1878.07</ele>
        <time>2019-04-05T08:56:17Z</time>
      </trkpt>
      <trkpt lat="45.91072" lon="6.49213">
        <ele>1881.44</ele>
        <time>2019-04-05T08:56:34Z</time>
      </trkpt>
      <trkpt lat="45.91068" lon="6.49203">
        <ele>1884.8</ele>
        <time>2019-04-05T08:56:51Z</time>
      </trkpt>
      <trkpt lat="45.91065" lon="6.49208">
        <ele>1887.69</ele>
        <time>2019-04-05T08:57:08Z</time>
      </trkpt>
      <trkpt lat="45.9106" lon="6.49217">
        <ele>1890.57</ele>
        <time>2019-04-05T08:57:25Z</time>
      </trkpt>
      <trkpt lat="45.91057" lon="6.49224">
        <ele>1892.49</ele>
        <time>2019-04-05T08:57:36Z</time>
      </trkpt>
      <trkpt lat="45.91052" lon="6.49235">
        <ele>1895.38</ele>
        <time>2019-04-05T08:57:52Z</time>
      </trkpt>
      <trkpt lat="45.91049" lon="6.49246">
        <ele>1898.74</ele>
        <time>2019-04-05T08:58:09Z</time>
      </trkpt>
      <trkpt lat="45.91041" lon="6.49254">
        <ele>1901.63</ele>
        <time>2019-04-05T08:58:27Z</time>
      </trkpt>
      <trkpt lat="45.91032" lon="6.49264">
        <ele>1904.99</ele>
        <time>2019-04-05T08:58:47Z</time>
      </trkpt>
      <trkpt lat="45.91027" lon="6.49269">
        <ele>1906.43</ele>
        <time>2019-04-05T08:58:56Z</time>
      </trkpt>
      <trkpt lat="45.9102" lon="6.49275">
        <ele>1909.8</ele>
        <time>2019-04-05T08:59:13Z</time>
      </trkpt>
      <trkpt lat="45.91015" lon="6.49281">
        <ele>1912.68</ele>
        <time>2019-04-05T08:59:31Z</time>
      </trkpt>
      <trkpt lat="45.91012" lon="6.49287">
        <ele>1916.04</ele>
        <time>2019-04-05T08:59:47Z</time>
      </trkpt>
      <trkpt lat="45.91008" lon="6.49294">
        <ele>1918.93</ele>
        <time>2019-04-05T09:00:03Z</time>
      </trkpt>
      <trkpt lat="45.91004" lon="6.49302">
        <ele>1922.29</ele>
        <time>2019-04-05T09:00:20Z</time>
      </trkpt>
      <trkpt lat="45.91002" lon="6.49311">
        <ele>1925.18</ele>
        <time>2019-04-05T09:00:37Z</time>
      </trkpt>
      <trkpt lat="45.91" lon="6.49322">
        <ele>1928.54</ele>
        <time>2019-04-05T09:00:55Z</time>
      </trkpt>
      <trkpt lat="45.91" lon="6.49335">
        <ele>1931.43</ele>
        <time>2019-04-05T09:01:13Z</time>
      </trkpt>
      <trkpt lat="45.91" lon="6.49348">
        <ele>1934.31</ele>
        <time>2019-04-05T09:01:31Z</time>
      </trkpt>
      <trkpt lat="45.90999" lon="6.49359">
        <ele>1937.67</ele>
        <time>2019-04-05T09:01:48Z</time>
      </trkpt>
      <trkpt lat="45.90994" lon="6.49373">
        <ele>1940.56</ele>
        <time>2019-04-05T09:02:08Z</time>
      </trkpt>
      <trkpt lat="45.9099" lon="6.49387">
        <ele>1943.92</ele>
        <time>2019-04-05T09:02:27Z</time>
      </trkpt>
      <trkpt lat="45.90981" lon="6.49388">
        <ele>1946.81</ele>
        <time>2019-04-05T09:02:47Z</time>
      </trkpt>
      <trkpt lat="45.90975" lon="6.49385">
        <ele>1949.21</ele>
        <time>2019-04-05T09:03:01Z</time>
      </trkpt>
      <trkpt lat="45.90973" lon="6.49385">
        <ele>1950.17</ele>
        <time>2019-04-05T09:03:05Z</time>
      </trkpt>
      <trkpt lat="45.90968" lon="6.49383">
        <ele>1951.61</ele>
        <time>2019-04-05T09:03:15Z</time>
      </trkpt>
      <trkpt lat="45.90958" lon="6.49378">
        <ele>1954.98</ele>
        <time>2019-04-05T09:03:35Z</time>
      </trkpt>
      <trkpt lat="45.90949" lon="6.49377">
        <ele>1957.86</ele>
        <time>2019-04-05T09:03:55Z</time>
      </trkpt>
      <trkpt lat="45.90942" lon="6.49372">
        <ele>1960.75</ele>
        <time>2019-04-05T09:04:11Z</time>
      </trkpt>
      <trkpt lat="45.9094" lon="6.49372">
        <ele>1961.23</ele>
        <time>2019-04-05T09:04:13Z</time>
      </trkpt>
      <trkpt lat="45.90936" lon="6.4937">
        <ele>1962.67</ele>
        <time>2019-04-05T09:04:22Z</time>
      </trkpt>
      <trkpt lat="45.90934" lon="6.49361">
        <ele>1965.55</ele>
        <time>2019-04-05T09:04:40Z</time>
      </trkpt>
      <trkpt lat="45.90924" lon="6.49356">
        <ele>1968.44</ele>
        <time>2019-04-05T09:04:56Z</time>
      </trkpt>
      <trkpt lat="45.90922" lon="6.49353">
        <ele>1970.36</ele>
        <time>2019-04-05T09:05:04Z</time>
      </trkpt>
      <trkpt lat="45.90915" lon="6.49347">
        <ele>1973.24</ele>
        <time>2019-04-05T09:05:21Z</time>
      </trkpt>
      <trkpt lat="45.90912" lon="6.49338">
        <ele>1976.13</ele>
        <time>2019-04-05T09:05:37Z</time>
      </trkpt>
      <trkpt lat="45.90909" lon="6.49342">
        <ele>1979.01</ele>
        <time>2019-04-05T09:06:01Z</time>
      </trkpt>
      <trkpt lat="45.90905" lon="6.49354">
        <ele>1981.9</ele>
        <time>2019-04-05T09:06:19Z</time>
      </trkpt>
      <trkpt lat="45.90899" lon="6.49364">
        <ele>1985.26</ele>
        <time>2019-04-05T09:06:36Z</time>
      </trkpt>
      <trkpt lat="45.90894" lon="6.49373">
        <ele>1988.14</ele>
        <time>2019-04-05T09:06:52Z</time>
      </trkpt>
      <trkpt lat="45.9089" lon="6.49384">
        <ele>1991.03</ele>
        <time>2019-04-05T09:07:08Z</time>
      </trkpt>
      <trkpt lat="45.90887" lon="6.49396">
        <ele>1994.39</ele>
        <time>2019-04-05T09:07:25Z</time>
      </trkpt>
      <trkpt lat="45.90884" lon="6.49408">
        <ele>1997.28</ele>
        <time>2019-04-05T09:07:44Z</time>
      </trkpt>
      <trkpt lat="45.90882" lon="6.49416">
        <ele>2000.16</ele>
        <time>2019-04-05T09:07:58Z</time>
      </trkpt>
      <trkpt lat="45.9088" lon="6.49434">
        <ele>2003.52</ele>
        <time>2019-04-05T09:08:18Z</time>
      </trkpt>
      <trkpt lat="45.9088" lon="6.49436">
        <ele>2004.01</ele>
        <time>2019-04-05T09:08:19Z</time>
      </trkpt>
      <trkpt lat="45.90883" lon="6.49452">
        <ele>2006.89</ele>
        <time>2019-04-05T09:08:38Z</time>
      </trkpt>
      <trkpt lat="45.90883" lon="6.49463">
        <ele>2009.29</ele>
        <time>2019-04-05T09:08:53Z</time>
      </trkpt>
      <trkpt lat="45.90888" lon="6.49476">
        <ele>2012.18</ele>
        <time>2019-04-05T09:09:10Z</time>
      </trkpt>
      <trkpt lat="45.90891" lon="6.49486">
        <ele>2015.54</ele>
        <time>2019-04-05T09:09:27Z</time>
      </trkpt>
      <trkpt lat="45.90894" lon="6.49497">
        <ele>2018.43</ele>
        <time>2019-04-05T09:09:44Z</time>
      </trkpt>
      <trkpt lat="45.90898" lon="6.49514">
        <ele>2021.79</ele>
        <time>2019-04-05T09:10:09Z</time>
      </trkpt>
      <trkpt lat="45.90881" lon="6.49525">
        <ele>2024.67</ele>
        <time>2019-04-05T09:10:42Z</time>
      </trkpt>
      <trkpt lat="45.90874" lon="6.49541">
        <ele>2028.04</ele>
        <time>2019-04-05T09:11:04Z</time>
      </trkpt>
      <trkpt lat="45.90874" lon="6.49542">
        <ele>2028.04</ele>
        <time>2019-04-05T09:11:05Z</time>
      </trkpt>
      <trkpt lat="45.9087" lon="6.49555">
        <ele>2030.92</ele>
        <time>2019-04-05T09:11:26Z</time>
      </trkpt>
      <trkpt lat="45.9087" lon="6.49568">
        <ele>2033.81</ele>
        <time>2019-04-05T09:11:46Z</time>
      </trkpt>
      <trkpt lat="45.9087" lon="6.49581">
        <ele>2037.17</ele>
        <time>2019-04-05T09:12:07Z</time>
      </trkpt>
      <trkpt lat="45.90868" lon="6.49589">
        <ele>2040.05</ele>
        <time>2019-04-05T09:12:36Z</time>
      </trkpt>
      <trkpt lat="45.90854" lon="6.49585">
        <ele>2043.42</ele>
        <time>2019-04-05T09:13:06Z</time>
      </trkpt>
      <trkpt lat="45.90846" lon="6.49585">
        <ele>2045.82</ele>
        <time>2019-04-05T09:13:25Z</time>
      </trkpt>
      <trkpt lat="45.90838" lon="6.49583">
        <ele>2047.75</ele>
        <time>2019-04-05T09:13:44Z</time>
      </trkpt>
      <trkpt lat="45.90829" lon="6.49583">
        <ele>2050.63</ele>
        <time>2019-04-05T09:14:05Z</time>
      </trkpt>
      <trkpt lat="45.90821" lon="6.49579">
        <ele>2053.51</ele>
        <time>2019-04-05T09:14:31Z</time>
      </trkpt>
      <trkpt lat="45.90825" lon="6.49595">
        <ele>2056.4</ele>
        <time>2019-04-05T09:14:59Z</time>
      </trkpt>
      <trkpt lat="45.90828" lon="6.49608">
        <ele>2059.76</ele>
        <time>2019-04-05T09:15:25Z</time>
      </trkpt>
      <trkpt lat="45.9083" lon="6.4962">
        <ele>2062.65</ele>
        <time>2019-04-05T09:15:49Z</time>
      </trkpt>
      <trkpt lat="45.90821" lon="6.49621">
        <ele>2066.01</ele>
        <time>2019-04-05T09:16:20Z</time>
      </trkpt>
      <trkpt lat="45.90813" lon="6.4962">
        <ele>2067.93</ele>
        <time>2019-04-05T09:16:34Z</time>
      </trkpt>
      <trkpt lat="45.90806" lon="6.49619">
        <ele>2070.82</ele>
        <time>2019-04-05T09:16:52Z</time>
      </trkpt>
      <trkpt lat="45.90803" lon="6.4962">
        <ele>2071.3</ele>
        <time>2019-04-05T09:16:57Z</time>
      </trkpt>
      <trkpt lat="45.9079" lon="6.49619">
        <ele>2074.66</ele>
        <time>2019-04-05T09:17:17Z</time>
      </trkpt>
      <trkpt lat="45.90783" lon="6.49614">
        <ele>2077.55</ele>
        <time>2019-04-05T09:17:36Z</time>
      </trkpt>
      <trkpt lat="45.9078" lon="6.49615">
        <ele>2080.43</ele>
        <time>2019-04-05T09:17:54Z</time>
      </trkpt>
      <trkpt lat="45.90772" lon="6.49617">
        <ele>2083.79</ele>
        <time>2019-04-05T09:18:18Z</time>
      </trkpt>
      <trkpt lat="45.90764" lon="6.49617">
        <ele>2086.68</ele>
        <time>2019-04-05T09:18:41Z</time>
      </trkpt>
      <trkpt lat="45.90766" lon="6.49629">
        <ele>2090.04</ele>
        <time>2019-04-05T09:19:06Z</time>
      </trkpt>
      <trkpt lat="45.90769" lon="6.49639">
        <ele>2092.93</ele>
        <time>2019-04-05T09:19:30Z</time>
      </trkpt>
      <trkpt lat="45.90772" lon="6.49653">
        <ele>2096.29</ele>
        <time>2019-04-05T09:19:57Z</time>
      </trkpt>
      <trkpt lat="45.90776" lon="6.49667">
        <ele>2099.18</ele>
        <time>2019-04-05T09:20:20Z</time>
      </trkpt>
      <trkpt lat="45.90773" lon="6.4968">
        <ele>2102.06</ele>
        <time>2019-04-05T09:20:53Z</time>
      </trkpt>
      <trkpt lat="45.90763" lon="6.49683">
        <ele>2105.42</ele>
        <time>2019-04-05T09:21:18Z</time>
      </trkpt>
      <trkpt lat="45.90754" lon="6.49686">
        <ele>2108.31</ele>
        <time>2019-04-05T09:21:41Z</time>
      </trkpt>
      <trkpt lat="45.90745" lon="6.49688">
        <ele>2111.67</ele>
        <time>2019-04-05T09:21:59Z</time>
      </trkpt>
      <trkpt lat="45.90735" lon="6.49689">
        <ele>2114.56</ele>
        <time>2019-04-05T09:22:22Z</time>
      </trkpt>
      <trkpt lat="45.90727" lon="6.49688">
        <ele>2116</ele>
        <time>2019-04-05T09:22:33Z</time>
      </trkpt>
      <trkpt lat="45.90726" lon="6.49687">
        <ele>2116.48</ele>
        <time>2019-04-05T09:22:36Z</time>
      </trkpt>
      <trkpt lat="45.90724" lon="6.49687">
        <ele>2116.96</ele>
        <time>2019-04-05T09:22:38Z</time>
      </trkpt>
      <trkpt lat="45.90716" lon="6.49687">
        <ele>2119.84</ele>
        <time>2019-04-05T09:22:59Z</time>
      </trkpt>
      <trkpt lat="45.90706" lon="6.49693">
        <ele>2122.73</ele>
        <time>2019-04-05T09:23:20Z</time>
      </trkpt>
      <trkpt lat="45.907" lon="6.49699">
        <ele>2125.61</ele>
        <time>2019-04-05T09:23:40Z</time>
      </trkpt>
      <trkpt lat="45.90691" lon="6.4971">
        <ele>2128.5</ele>
        <time>2019-04-05T09:24:05Z</time>
      </trkpt>
      <trkpt lat="45.90685" lon="6.49718">
        <ele>2130.42</ele>
        <time>2019-04-05T09:24:20Z</time>
      </trkpt>
      <trkpt lat="45.90674" lon="6.49739">
        <ele>2133.3</ele>
        <time>2019-04-05T09:24:52Z</time>
      </trkpt>
      <trkpt lat="45.90675" lon="6.49756">
        <ele>2136.19</ele>
        <time>2019-04-05T09:25:17Z</time>
      </trkpt>
      <trkpt lat="45.90677" lon="6.49771">
        <ele>2139.55</ele>
        <time>2019-04-05T09:25:40Z</time>
      </trkpt>
      <trkpt lat="45.90681" lon="6.49783">
        <ele>2142.44</ele>
        <time>2019-04-05T09:26:04Z</time>
      </trkpt>
      <trkpt lat="45.90686" lon="6.49794">
        <ele>2145.8</ele>
        <time>2019-04-05T09:26:30Z</time>
      </trkpt>
      <trkpt lat="45.90685" lon="6.49801">
        <ele>2148.2</ele>
        <time>2019-04-05T09:26:54Z</time>
      </trkpt>
      <trkpt lat="45.90673" lon="6.49801">
        <ele>2151.09</ele>
        <time>2019-04-05T09:27:26Z</time>
      </trkpt>
      <trkpt lat="45.90662" lon="6.49805">
        <ele>2153.97</ele>
        <time>2019-04-05T09:27:57Z</time>
      </trkpt>
      <trkpt lat="45.90652" lon="6.49806">
        <ele>2156.86</ele>
        <time>2019-04-05T09:28:20Z</time>
      </trkpt>
      <trkpt lat="45.9064" lon="6.49807">
        <ele>2160.22</ele>
        <time>2019-04-05T09:28:53Z</time>
      </trkpt>
      <trkpt lat="45.90634" lon="6.4981">
        <ele>2163.58</ele>
        <time>2019-04-05T09:29:11Z</time>
      </trkpt>
      <trkpt lat="45.90626" lon="6.49815">
        <ele>2166.47</ele>
        <time>2019-04-05T09:29:39Z</time>
      </trkpt>
      <trkpt lat="45.90611" lon="6.49821">
        <ele>2169.35</ele>
        <time>2019-04-05T09:30:09Z</time>
      </trkpt>
      <trkpt lat="45.90611" lon="6.49821">
        <ele>2169.83</ele>
        <time>2019-04-05T09:30:10Z</time>
      </trkpt>
      <trkpt lat="45.90605" lon="6.49823">
        <ele>2171.76</ele>
        <time>2019-04-05T09:30:23Z</time>
      </trkpt>
      <trkpt lat="45.90595" lon="6.49825">
        <ele>2174.64</ele>
        <time>2019-04-05T09:30:45Z</time>
      </trkpt>
      <trkpt lat="45.90591" lon="6.49825">
        <ele>2175.6</ele>
        <time>2019-04-05T09:30:52Z</time>
      </trkpt>
      <trkpt lat="45.90585" lon="6.49831">
        <ele>2178.97</ele>
        <time>2019-04-05T09:31:15Z</time>
      </trkpt>
      <trkpt lat="45.90575" lon="6.49839">
        <ele>2181.85</ele>
        <time>2019-04-05T09:31:39Z</time>
      </trkpt>
      <trkpt lat="45.90566" lon="6.49857">
        <ele>2185.21</ele>
        <time>2019-04-05T09:32:11Z</time>
      </trkpt>
      <trkpt lat="45.90566" lon="6.49859">
        <ele>2185.21</ele>
        <time>2019-04-05T09:32:12Z</time>
      </trkpt>
      <trkpt lat="45.90564" lon="6.49885">
        <ele>2188.1</ele>
        <time>2019-04-05T09:32:44Z</time>
      </trkpt>
      <trkpt lat="45.90563" lon="6.49902">
        <ele>2190.98</ele>
        <time>2019-04-05T09:33:10Z</time>
      </trkpt>
      <trkpt lat="45.90557" lon="6.49916">
        <ele>2194.35</ele>
        <time>2019-04-05T09:33:36Z</time>
      </trkpt>
      <trkpt lat="45.90548" lon="6.49925">
        <ele>2197.71</ele>
        <time>2019-04-05T09:34:00Z</time>
      </trkpt>
      <trkpt lat="45.90547" lon="6.49942">
        <ele>2200.59</ele>
        <time>2019-04-05T09:34:27Z</time>
      </trkpt>
      <trkpt lat="45.90543" lon="6.49964">
        <ele>2202.52</ele>
        <time>2019-04-05T09:35:00Z</time>
      </trkpt>
      <trkpt lat="45.90542" lon="6.49965">
        <ele>2202.04</ele>
        <time>2019-04-05T09:35:24Z</time>
      </trkpt>
      <trkpt lat="45.90543" lon="6.49966">
        <ele>2202.04</ele>
        <time>2019-04-05T09:35:49Z</time>
      </trkpt>
      <trkpt lat="45.90542" lon="6.4998">
        <ele>2203.96</ele>
        <time>2019-04-05T09:36:10Z</time>
      </trkpt>
      <trkpt lat="45.90536" lon="6.50016">
        <ele>2207.32</ele>
        <time>2019-04-05T09:36:56Z</time>
      </trkpt>
      <trkpt lat="45.90529" lon="6.50054">
        <ele>2210.21</ele>
        <time>2019-04-05T09:37:44Z</time>
      </trkpt>
      <trkpt lat="45.90527" lon="6.50062">
        <ele>2210.69</ele>
        <time>2019-04-05T09:37:53Z</time>
      </trkpt>
      <trkpt lat="45.90525" lon="6.50065">
        <ele>2210.69</ele>
        <time>2019-04-05T09:37:57Z</time>
      </trkpt>
      <trkpt lat="45.90525" lon="6.50072">
        <ele>2210.69</ele>
        <time>2019-04-05T09:38:04Z</time>
      </trkpt>
      <trkpt lat="45.90524" lon="6.50074">
        <ele>2210.21</ele>
        <time>2019-04-05T09:38:06Z</time>
      </trkpt>
      <trkpt lat="45.90521" lon="6.50087">
        <ele>2210.69</ele>
        <time>2019-04-05T09:38:21Z</time>
      </trkpt>
      <trkpt lat="45.9052" lon="6.50096">
        <ele>2211.17</ele>
        <time>2019-04-05T09:38:30Z</time>
      </trkpt>
      <trkpt lat="45.9052" lon="6.50098">
        <ele>2211.17</ele>
        <time>2019-04-05T09:38:32Z</time>
      </trkpt>
      <trkpt lat="45.90517" lon="6.50137">
        <ele>2214.05</ele>
        <time>2019-04-05T09:39:22Z</time>
      </trkpt>
      <trkpt lat="45.90517" lon="6.50141">
        <ele>2214.53</ele>
        <time>2019-04-05T09:39:27Z</time>
      </trkpt>
      <trkpt lat="45.90523" lon="6.50172">
        <ele>2217.42</ele>
        <time>2019-04-05T09:40:05Z</time>
      </trkpt>
      <trkpt lat="45.90522" lon="6.50184">
        <ele>2220.78</ele>
        <time>2019-04-05T09:40:24Z</time>
      </trkpt>
      <trkpt lat="45.90524" lon="6.50199">
        <ele>2221.26</ele>
        <time>2019-04-05T09:40:46Z</time>
      </trkpt>
      <trkpt lat="45.90527" lon="6.50216">
        <ele>2224.63</ele>
        <time>2019-04-05T09:41:10Z</time>
      </trkpt>
      <trkpt lat="45.90532" lon="6.50234">
        <ele>2226.07</ele>
        <time>2019-04-05T09:41:34Z</time>
      </trkpt>
      <trkpt lat="45.90536" lon="6.50245">
        <ele>2228.95</ele>
        <time>2019-04-05T09:41:51Z</time>
      </trkpt>
      <trkpt lat="45.90536" lon="6.50252">
        <ele>2229.43</ele>
        <time>2019-04-05T09:42:03Z</time>
      </trkpt>
      <trkpt lat="45.90538" lon="6.5026">
        <ele>2230.88</ele>
        <time>2019-04-05T09:42:13Z</time>
      </trkpt>
      <trkpt lat="45.90538" lon="6.5027">
        <ele>2232.8</ele>
        <time>2019-04-05T09:42:26Z</time>
      </trkpt>
      <trkpt lat="45.90538" lon="6.50277">
        <ele>2233.76</ele>
        <time>2019-04-05T09:42:32Z</time>
      </trkpt>
      <trkpt lat="45.90538" lon="6.50288">
        <ele>2235.68</ele>
        <time>2019-04-05T09:42:57Z</time>
      </trkpt>
      <trkpt lat="45.90549" lon="6.5028">
        <ele>2238.57</ele>
        <time>2019-04-05T09:43:23Z</time>
      </trkpt>
      <trkpt lat="45.90557" lon="6.50271">
        <ele>2241.93</ele>
        <time>2019-04-05T09:43:48Z</time>
      </trkpt>
      <trkpt lat="45.90556" lon="6.50299">
        <ele>2244.82</ele>
        <time>2019-04-05T09:44:38Z</time>
      </trkpt>
      <trkpt lat="45.90549" lon="6.5031">
        <ele>2248.18</ele>
        <time>2019-04-05T09:45:05Z</time>
      </trkpt>
      <trkpt lat="45.90539" lon="6.5032">
        <ele>2250.58</ele>
        <time>2019-04-05T09:45:27Z</time>
      </trkpt>
      <trkpt lat="45.90553" lon="6.5032">
        <ele>2253.47</ele>
        <time>2019-04-05T09:46:10Z</time>
      </trkpt>
      <trkpt lat="45.90565" lon="6.50318">
        <ele>2256.83</ele>
        <time>2019-04-05T09:46:38Z</time>
      </trkpt>
      <trkpt lat="45.90577" lon="6.50313">
        <ele>2260.2</ele>
        <time>2019-04-05T09:47:05Z</time>
      </trkpt>
      <trkpt lat="45.90578" lon="6.5031">
        <ele>2260.68</ele>
        <time>2019-04-05T09:47:10Z</time>
      </trkpt>
      <trkpt lat="45.90586" lon="6.50311">
        <ele>2263.56</ele>
        <time>2019-04-05T09:47:45Z</time>
      </trkpt>
      <trkpt lat="45.90585" lon="6.50329">
        <ele>2264.04</ele>
        <time>2019-04-05T09:48:11Z</time>
      </trkpt>
      <trkpt lat="45.90587" lon="6.5034">
        <ele>2265.96</ele>
        <time>2019-04-05T09:48:27Z</time>
      </trkpt>
      <trkpt lat="45.90583" lon="6.50347">
        <ele>2268.85</ele>
        <time>2019-04-05T09:48:39Z</time>
      </trkpt>
      <trkpt lat="45.90574" lon="6.50359">
        <ele>2270.77</ele>
        <time>2019-04-05T09:49:04Z</time>
      </trkpt>
      <trkpt lat="45.90571" lon="6.50363">
        <ele>2273.66</ele>
        <time>2019-04-05T09:49:11Z</time>
      </trkpt>
      <trkpt lat="45.9057" lon="6.50364">
        <ele>2273.66</ele>
        <time>2019-04-05T09:49:13Z</time>
      </trkpt>
      <trkpt lat="45.90564" lon="6.50375">
        <ele>2275.1</ele>
        <time>2019-04-05T09:49:34Z</time>
      </trkpt>
      <trkpt lat="45.90564" lon="6.50377">
        <ele>2275.1</ele>
        <time>2019-04-05T09:49:37Z</time>
      </trkpt>
      <trkpt lat="45.90563" lon="6.50378">
        <ele>2275.58</ele>
        <time>2019-04-05T09:49:39Z</time>
      </trkpt>
      <trkpt lat="45.90563" lon="6.50379">
        <ele>2276.06</ele>
        <time>2019-04-05T09:49:41Z</time>
      </trkpt>
      <trkpt lat="45.90577" lon="6.50394">
        <ele>2278.94</ele>
        <time>2019-04-05T09:50:06Z</time>
      </trkpt>
      <trkpt lat="45.90599" lon="6.50401">
        <ele>2281.83</ele>
        <time>2019-04-05T09:50:36Z</time>
      </trkpt>
      <trkpt lat="45.90612" lon="6.50398">
        <ele>2285.19</ele>
        <time>2019-04-05T09:51:07Z</time>
      </trkpt>
      <trkpt lat="45.90613" lon="6.50389">
        <ele>2288.08</ele>
        <time>2019-04-05T09:51:34Z</time>
      </trkpt>
      <trkpt lat="45.90626" lon="6.50391">
        <ele>2291.44</ele>
        <time>2019-04-05T09:52:09Z</time>
      </trkpt>
      <trkpt lat="45.90634" lon="6.50394">
        <ele>2294.32</ele>
        <time>2019-04-05T09:52:41Z</time>
      </trkpt>
      <trkpt lat="45.90626" lon="6.50415">
        <ele>2297.21</ele>
        <time>2019-04-05T09:53:16Z</time>
      </trkpt>
      <trkpt lat="45.90625" lon="6.50418">
        <ele>2299.13</ele>
        <time>2019-04-05T09:53:21Z</time>
      </trkpt>
      <trkpt lat="45.90617" lon="6.50436">
        <ele>2302.01</ele>
        <time>2019-04-05T09:53:55Z</time>
      </trkpt>
      <trkpt lat="45.90607" lon="6.50445">
        <ele>2305.38</ele>
        <time>2019-04-05T09:54:22Z</time>
      </trkpt>
      <trkpt lat="45.90603" lon="6.5045">
        <ele>2308.74</ele>
        <time>2019-04-05T09:54:44Z</time>
      </trkpt>
      <trkpt lat="45.90623" lon="6.50451">
        <ele>2311.63</ele>
        <time>2019-04-05T09:55:35Z</time>
      </trkpt>
      <trkpt lat="45.9063" lon="6.50454">
        <ele>2314.99</ele>
        <time>2019-04-05T09:55:53Z</time>
      </trkpt>
      <trkpt lat="45.90649" lon="6.50455">
        <ele>2317.88</ele>
        <time>2019-04-05T09:56:34Z</time>
      </trkpt>
      <trkpt lat="45.90657" lon="6.50459">
        <ele>2320.76</ele>
        <time>2019-04-05T09:57:12Z</time>
      </trkpt>
      <trkpt lat="45.90655" lon="6.50471">
        <ele>2324.12</ele>
        <time>2019-04-05T09:57:33Z</time>
      </trkpt>
      <trkpt lat="45.90647" lon="6.50482">
        <ele>2327.49</ele>
        <time>2019-04-05T09:57:55Z</time>
      </trkpt>
      <trkpt lat="45.90639" lon="6.50492">
        <ele>2330.85</ele>
        <time>2019-04-05T09:58:17Z</time>
      </trkpt>
      <trkpt lat="45.90638" lon="6.50492">
        <ele>2331.81</ele>
        <time>2019-04-05T09:58:19Z</time>
      </trkpt>
      <trkpt lat="45.90651" lon="6.50497">
        <ele>2335.18</ele>
        <time>2019-04-05T09:59:11Z</time>
      </trkpt>
      <trkpt lat="45.90666" lon="6.50499">
        <ele>2338.06</ele>
        <time>2019-04-05T09:59:47Z</time>
      </trkpt>
      <trkpt lat="45.90675" lon="6.505">
        <ele>2340.95</ele>
        <time>2019-04-05T10:00:10Z</time>
      </trkpt>
      <trkpt lat="45.90686" lon="6.50503">
        <ele>2343.83</ele>
        <time>2019-04-05T10:00:41Z</time>
      </trkpt>
      <trkpt lat="45.90678" lon="6.50519">
        <ele>2347.2</ele>
        <time>2019-04-05T10:01:09Z</time>
      </trkpt>
      <trkpt lat="45.90671" lon="6.50528">
        <ele>2350.08</ele>
        <time>2019-04-05T10:01:31Z</time>
      </trkpt>
      <trkpt lat="45.90666" lon="6.50538">
        <ele>2352.96</ele>
        <time>2019-04-05T10:02:07Z</time>
      </trkpt>
      <trkpt lat="45.90677" lon="6.50542">
        <ele>2356.33</ele>
        <time>2019-04-05T10:02:31Z</time>
      </trkpt>
      <trkpt lat="45.90681" lon="6.50545">
        <ele>2359.69</ele>
        <time>2019-04-05T10:02:42Z</time>
      </trkpt>
      <trkpt lat="45.90684" lon="6.50547">
        <ele>2357.77</ele>
        <time>2019-04-05T10:02:48Z</time>
      </trkpt>
      <trkpt lat="45.907" lon="6.50552">
        <ele>2361.14</ele>
        <time>2019-04-05T10:03:25Z</time>
      </trkpt>
      <trkpt lat="45.9071" lon="6.50559">
        <ele>2364.02</ele>
        <time>2019-04-05T10:04:09Z</time>
      </trkpt>
      <trkpt lat="45.90704" lon="6.50568">
        <ele>2367.38</ele>
        <time>2019-04-05T10:04:28Z</time>
      </trkpt>
      <trkpt lat="45.907" lon="6.50573">
        <ele>2367.38</ele>
        <time>2019-04-05T10:04:39Z</time>
      </trkpt>
      <trkpt lat="45.90705" lon="6.50577">
        <ele>2370.75</ele>
        <time>2019-04-05T10:04:56Z</time>
      </trkpt>
      <trkpt lat="45.90712" lon="6.5058">
        <ele>2373.63</ele>
        <time>2019-04-05T10:05:13Z</time>
      </trkpt>
      <trkpt lat="45.9072" lon="6.50594">
        <ele>2377</ele>
        <time>2019-04-05T10:06:02Z</time>
      </trkpt>
      <trkpt lat="45.90717" lon="6.50606">
        <ele>2379.88</ele>
        <time>2019-04-05T10:06:25Z</time>
      </trkpt>
      <trkpt lat="45.9071" lon="6.50615">
        <ele>2382.76</ele>
        <time>2019-04-05T10:06:50Z</time>
      </trkpt>
      <trkpt lat="45.90713" lon="6.50621">
        <ele>2386.13</ele>
        <time>2019-04-05T10:07:10Z</time>
      </trkpt>
      <trkpt lat="45.90726" lon="6.50629">
        <ele>2389.01</ele>
        <time>2019-04-05T10:07:46Z</time>
      </trkpt>
      <trkpt lat="45.9074" lon="6.50636">
        <ele>2392.38</ele>
        <time>2019-04-05T10:08:20Z</time>
      </trkpt>
      <trkpt lat="45.90746" lon="6.50638">
        <ele>2395.74</ele>
        <time>2019-04-05T10:08:40Z</time>
      </trkpt>
      <trkpt lat="45.90751" lon="6.50638">
        <ele>2398.63</ele>
        <time>2019-04-05T10:08:52Z</time>
      </trkpt>
      <trkpt lat="45.90756" lon="6.50646">
        <ele>2399.11</ele>
        <time>2019-04-05T10:09:13Z</time>
      </trkpt>
      <trkpt lat="45.90757" lon="6.50665">
        <ele>2401.99</ele>
        <time>2019-04-05T10:09:50Z</time>
      </trkpt>
      <trkpt lat="45.9076" lon="6.50674">
        <ele>2405.36</ele>
        <time>2019-04-05T10:10:13Z</time>
      </trkpt>
      <trkpt lat="45.90767" lon="6.5068">
        <ele>2408.72</ele>
        <time>2019-04-05T10:10:33Z</time>
      </trkpt>
      <trkpt lat="45.90767" lon="6.50692">
        <ele>2411.6</ele>
        <time>2019-04-05T10:11:02Z</time>
      </trkpt>
      <trkpt lat="45.90758" lon="6.50707">
        <ele>2414.97</ele>
        <time>2019-04-05T10:11:37Z</time>
      </trkpt>
      <trkpt lat="45.90762" lon="6.50714">
        <ele>2417.85</ele>
        <time>2019-04-05T10:11:52Z</time>
      </trkpt>
      <trkpt lat="45.90768" lon="6.5072">
        <ele>2421.22</ele>
        <time>2019-04-05T10:12:11Z</time>
      </trkpt>
      <trkpt lat="45.90777" lon="6.50728">
        <ele>2425.06</ele>
        <time>2019-04-05T10:12:37Z</time>
      </trkpt>
      <trkpt lat="45.90778" lon="6.50728">
        <ele>2425.54</ele>
        <time>2019-04-05T10:12:39Z</time>
      </trkpt>
      <trkpt lat="45.90779" lon="6.50729">
        <ele>2424.1</ele>
        <time>2019-04-05T10:12:42Z</time>
      </trkpt>
      <trkpt lat="45.90779" lon="6.5074">
        <ele>2426.99</ele>
        <time>2019-04-05T10:12:59Z</time>
      </trkpt>
      <trkpt lat="45.90778" lon="6.50747">
        <ele>2430.83</ele>
        <time>2019-04-05T10:13:14Z</time>
      </trkpt>
      <trkpt lat="45.90781" lon="6.50757">
        <ele>2434.2</ele>
        <time>2019-04-05T10:13:40Z</time>
      </trkpt>
      <trkpt lat="45.90781" lon="6.50759">
        <ele>2434.68</ele>
        <time>2019-04-05T10:13:42Z</time>
      </trkpt>
      <trkpt lat="45.90786" lon="6.50776">
        <ele>2438.04</ele>
        <time>2019-04-05T10:14:21Z</time>
      </trkpt>
      <trkpt lat="45.90791" lon="6.50788">
        <ele>2441.41</ele>
        <time>2019-04-05T10:14:43Z</time>
      </trkpt>
      <trkpt lat="45.90795" lon="6.50798">
        <ele>2444.29</ele>
        <time>2019-04-05T10:14:58Z</time>
      </trkpt>
      <trkpt lat="45.90803" lon="6.50813">
        <ele>2447.65</ele>
        <time>2019-04-05T10:15:23Z</time>
      </trkpt>
      <trkpt lat="45.90808" lon="6.50833">
        <ele>2451.02</ele>
        <time>2019-04-05T10:15:55Z</time>
      </trkpt>
      <trkpt lat="45.90811" lon="6.50847">
        <ele>2453.9</ele>
        <time>2019-04-05T10:16:16Z</time>
      </trkpt>
      <trkpt lat="45.90819" lon="6.50848">
        <ele>2456.79</ele>
        <time>2019-04-05T10:16:34Z</time>
      </trkpt>
      <trkpt lat="45.90824" lon="6.50852">
        <ele>2460.15</ele>
        <time>2019-04-05T10:17:00Z</time>
      </trkpt>
      <trkpt lat="45.90825" lon="6.50866">
        <ele>2463.04</ele>
        <time>2019-04-05T10:17:25Z</time>
      </trkpt>
      <trkpt lat="45.90831" lon="6.50869">
        <ele>2466.4</ele>
        <time>2019-04-05T10:17:54Z</time>
      </trkpt>
      <trkpt lat="45.90836" lon="6.50859">
        <ele>2469.28</ele>
        <time>2019-04-05T10:18:14Z</time>
      </trkpt>
      <trkpt lat="45.9084" lon="6.50845">
        <ele>2472.17</ele>
        <time>2019-04-05T10:18:32Z</time>
      </trkpt>
      <trkpt lat="45.90846" lon="6.5085">
        <ele>2475.53</ele>
        <time>2019-04-05T10:19:02Z</time>
      </trkpt>
      <trkpt lat="45.90849" lon="6.50863">
        <ele>2478.42</ele>
        <time>2019-04-05T10:19:23Z</time>
      </trkpt>
      <trkpt lat="45.9085" lon="6.50871">
        <ele>2481.78</ele>
        <time>2019-04-05T10:19:43Z</time>
      </trkpt>
      <trkpt lat="45.90856" lon="6.50862">
        <ele>2484.66</ele>
        <time>2019-04-05T10:20:08Z</time>
      </trkpt>
      <trkpt lat="45.90862" lon="6.50849">
        <ele>2487.55</ele>
        <time>2019-04-05T10:20:32Z</time>
      </trkpt>
      <trkpt lat="45.90868" lon="6.50838">
        <ele>2490.91</ele>
        <time>2019-04-05T10:20:56Z</time>
      </trkpt>
      <trkpt lat="45.90871" lon="6.5085">
        <ele>2493.8</ele>
        <time>2019-04-05T10:21:22Z</time>
      </trkpt>
      <trkpt lat="45.90873" lon="6.50863">
        <ele>2496.68</ele>
        <time>2019-04-05T10:21:46Z</time>
      </trkpt>
      <trkpt lat="45.90875" lon="6.50861">
        <ele>2500.05</ele>
        <time>2019-04-05T10:22:12Z</time>
      </trkpt>
      <trkpt lat="45.9088" lon="6.50846">
        <ele>2502.93</ele>
        <time>2019-04-05T10:22:39Z</time>
      </trkpt>
      <trkpt lat="45.90885" lon="6.50826">
        <ele>2506.29</ele>
        <time>2019-04-05T10:23:10Z</time>
      </trkpt>
      <trkpt lat="45.90886" lon="6.50825">
        <ele>2506.29</ele>
        <time>2019-04-05T10:23:11Z</time>
      </trkpt>
      <trkpt lat="45.90888" lon="6.50817">
        <ele>2504.37</ele>
        <time>2019-04-05T10:23:24Z</time>
      </trkpt>
      <trkpt lat="45.90888" lon="6.50815">
        <ele>2501.01</ele>
        <time>2019-04-05T10:23:26Z</time>
      </trkpt>
      <trkpt lat="45.90889" lon="6.50811">
        <ele>2503.89</ele>
        <time>2019-04-05T10:23:30Z</time>
      </trkpt>
      <trkpt lat="45.90889" lon="6.50809">
        <ele>2507.26</ele>
        <time>2019-04-05T10:23:34Z</time>
      </trkpt>
      <trkpt lat="45.9089" lon="6.50808">
        <ele>2508.22</ele>
        <time>2019-04-05T10:23:36Z</time>
      </trkpt>
      <trkpt lat="45.9089" lon="6.50807">
        <ele>2507.74</ele>
        <time>2019-04-05T10:23:38Z</time>
      </trkpt>
      <trkpt lat="45.90893" lon="6.508">
        <ele>2509.66</ele>
        <time>2019-04-05T10:23:48Z</time>
      </trkpt>
      <trkpt lat="45.90895" lon="6.50792">
        <ele>2513.5</ele>
        <time>2019-04-05T10:24:00Z</time>
      </trkpt>
      <trkpt lat="45.90897" lon="6.5079">
        <ele>2515.43</ele>
        <time>2019-04-05T10:24:04Z</time>
      </trkpt>
      <trkpt lat="45.90898" lon="6.50789">
        <ele>2519.75</ele>
        <time>2019-04-05T10:24:13Z</time>
      </trkpt>
      <trkpt lat="45.90898" lon="6.50789">
        <ele>2516.87</ele>
        <time>2019-04-05T10:24:26Z</time>
      </trkpt>
      <trkpt lat="45.90897" lon="6.50795">
        <ele>2516.87</ele>
        <time>2019-04-05T10:24:35Z</time>
      </trkpt>
      <trkpt lat="45.90898" lon="6.50799">
        <ele>2516.87</ele>
        <time>2019-04-05T10:24:39Z</time>
      </trkpt>
      <trkpt lat="45.909" lon="6.50816">
        <ele>2517.83</ele>
        <time>2019-04-05T10:25:13Z</time>
      </trkpt>
      <trkpt lat="45.90901" lon="6.50812">
        <ele>2516.39</ele>
        <time>2019-04-05T10:25:28Z</time>
      </trkpt>
      <trkpt lat="45.90904" lon="6.50811">
        <ele>2519.75</ele>
        <time>2019-04-05T10:25:49Z</time>
      </trkpt>
      <trkpt lat="45.90904" lon="6.50819">
        <ele>2522.16</ele>
        <time>2019-04-05T10:26:08Z</time>
      </trkpt>
      <trkpt lat="45.90904" lon="6.50828">
        <ele>2525.04</ele>
        <time>2019-04-05T10:26:19Z</time>
      </trkpt>
      <trkpt lat="45.90903" lon="6.50837">
        <ele>2526</ele>
        <time>2019-04-05T10:26:31Z</time>
      </trkpt>
      <trkpt lat="45.90903" lon="6.50838">
        <ele>2526</ele>
        <time>2019-04-05T10:26:32Z</time>
      </trkpt>
      <trkpt lat="45.90905" lon="6.50852">
        <ele>2527.44</ele>
        <time>2019-04-05T10:26:47Z</time>
      </trkpt>
      <trkpt lat="45.90905" lon="6.50855">
        <ele>2530.33</ele>
        <time>2019-04-05T10:26:51Z</time>
      </trkpt>
      <trkpt lat="45.90914" lon="6.50879">
        <ele>2531.77</ele>
        <time>2019-04-05T10:27:22Z</time>
      </trkpt>
      <trkpt lat="45.9092" lon="6.5089">
        <ele>2533.21</ele>
        <time>2019-04-05T10:27:47Z</time>
      </trkpt>
      <trkpt lat="45.90918" lon="6.50889">
        <ele>2534.17</ele>
        <time>2019-04-05T10:27:50Z</time>
      </trkpt>
      <trkpt lat="45.90918" lon="6.50894">
        <ele>2537.54</ele>
        <time>2019-04-05T10:28:15Z</time>
      </trkpt>
      <trkpt lat="45.90917" lon="6.509">
        <ele>2540.9</ele>
        <time>2019-04-05T10:29:22Z</time>
      </trkpt>
      <trkpt lat="45.90916" lon="6.50903">
        <ele>2544.27</ele>
        <time>2019-04-05T10:29:29Z</time>
      </trkpt>
      <trkpt lat="45.90915" lon="6.5091">
        <ele>2547.15</ele>
        <time>2019-04-05T10:29:50Z</time>
      </trkpt>
      <trkpt lat="45.90915" lon="6.50913">
        <ele>2549.07</ele>
        <time>2019-04-05T10:29:57Z</time>
      </trkpt>
      <trkpt lat="45.90918" lon="6.5093">
        <ele>2550.03</ele>
        <time>2019-04-05T10:30:58Z</time>
      </trkpt>
      <trkpt lat="45.90922" lon="6.50941">
        <ele>2553.4</ele>
        <time>2019-04-05T10:31:16Z</time>
      </trkpt>
      <trkpt lat="45.90924" lon="6.50946">
        <ele>2556.28</ele>
        <time>2019-04-05T10:31:25Z</time>
      </trkpt>
      <trkpt lat="45.90925" lon="6.50961">
        <ele>2552.44</ele>
        <time>2019-04-05T10:31:49Z</time>
      </trkpt>
      <trkpt lat="45.90925" lon="6.50961">
        <ele>2552.44</ele>
        <time>2019-04-05T10:31:56Z</time>
      </trkpt>
      <trkpt lat="45.90924" lon="6.50962">
        <ele>2555.8</ele>
        <time>2019-04-05T10:32:33Z</time>
      </trkpt>
      <trkpt lat="45.90924" lon="6.50962">
        <ele>2556.28</ele>
        <time>2019-04-05T10:32:34Z</time>
      </trkpt>
      <trkpt lat="45.90925" lon="6.50967">
        <ele>2556.76</ele>
        <time>2019-04-05T10:33:03Z</time>
      </trkpt>
      <trkpt lat="45.90926" lon="6.50966">
        <ele>2559.65</ele>
        <time>2019-04-05T10:33:11Z</time>
      </trkpt>
      <trkpt lat="45.90925" lon="6.50964">
        <ele>2556.28</ele>
        <time>2019-04-05T10:33:18Z</time>
      </trkpt>
      <trkpt lat="45.90925" lon="6.50963">
        <ele>2553.4</ele>
        <time>2019-04-05T10:33:22Z</time>
      </trkpt>
      <trkpt lat="45.90925" lon="6.50962">
        <ele>2552.92</ele>
        <time>2019-04-05T10:33:24Z</time>
      </trkpt>
      <trkpt lat="45.90925" lon="6.50962">
        <ele>2556.28</ele>
        <time>2019-04-05T10:33:30Z</time>
      </trkpt>
      <trkpt lat="45.90925" lon="6.50962">
        <ele>2552.92</ele>
        <time>2019-04-05T10:33:36Z</time>
      </trkpt>
      <trkpt lat="45.90925" lon="6.50962">
        <ele>2552.92</ele>
        <time>2019-04-05T10:33:37Z</time>
      </trkpt>
      <trkpt lat="45.90924" lon="6.5096">
        <ele>2555.8</ele>
        <time>2019-04-05T10:33:43Z</time>
      </trkpt>
      <trkpt lat="45.90924" lon="6.50959">
        <ele>2557.73</ele>
        <time>2019-04-05T10:33:46Z</time>
      </trkpt>
      <trkpt lat="45.90924" lon="6.50956">
        <ele>2559.65</ele>
        <time>2019-04-05T10:34:02Z</time>
      </trkpt>
      <trkpt lat="45.90924" lon="6.50955">
        <ele>2558.21</ele>
        <time>2019-04-05T10:34:26Z</time>
      </trkpt>
      <trkpt lat="45.90925" lon="6.50956">
        <ele>2560.13</ele>
        <time>2019-04-05T10:34:51Z</time>
      </trkpt>
      <trkpt lat="45.90925" lon="6.50955">
        <ele>2560.13</ele>
        <time>2019-04-05T10:35:16Z</time>
      </trkpt>
      <trkpt lat="45.90924" lon="6.50956">
        <ele>2559.65</ele>
        <time>2019-04-05T10:35:44Z</time>
      </trkpt>
      <trkpt lat="45.90925" lon="6.50956">
        <ele>2559.17</ele>
        <time>2019-04-05T10:37:40Z</time>
      </trkpt>
      <trkpt lat="45.90925" lon="6.50955">
        <ele>2559.65</ele>
        <time>2019-04-05T10:38:22Z</time>
      </trkpt>
      <trkpt lat="45.90925" lon="6.50955">
        <ele>2557.73</ele>
        <time>2019-04-05T10:38:31Z</time>
      </trkpt>
      <trkpt lat="45.90926" lon="6.50955">
        <ele>2558.21</ele>
        <time>2019-04-05T10:38:52Z</time>
      </trkpt>
      <trkpt lat="45.90925" lon="6.50955">
        <ele>2560.13</ele>
        <time>2019-04-05T10:38:57Z</time>
      </trkpt>
      <trkpt lat="45.90924" lon="6.50956">
        <ele>2560.61</ele>
        <time>2019-04-05T10:39:12Z</time>
      </trkpt>
      <trkpt lat="45.90925" lon="6.50956">
        <ele>2558.21</ele>
        <time>2019-04-05T10:39:39Z</time>
      </trkpt>
      <trkpt lat="45.90924" lon="6.50956">
        <ele>2560.13</ele>
        <time>2019-04-05T10:39:59Z</time>
      </trkpt>
      <trkpt lat="45.90925" lon="6.50956">
        <ele>2559.65</ele>
        <time>2019-04-05T10:40:20Z</time>
      </trkpt>
      <trkpt lat="45.90926" lon="6.5095">
        <ele>2556.76</ele>
        <time>2019-04-05T10:40:33Z</time>
      </trkpt>
      <trkpt lat="45.90926" lon="6.50948">
        <ele>2556.28</ele>
        <time>2019-04-05T10:40:34Z</time>
      </trkpt>
      <trkpt lat="45.90926" lon="6.50947">
        <ele>2555.8</ele>
        <time>2019-04-05T10:40:35Z</time>
      </trkpt>
      <trkpt lat="45.90925" lon="6.50944">
        <ele>2555.32</ele>
        <time>2019-04-05T10:40:36Z</time>
      </trkpt>
      <trkpt lat="45.90924" lon="6.50942">
        <ele>2555.32</ele>
        <time>2019-04-05T10:40:37Z</time>
      </trkpt>
      <trkpt lat="45.90923" lon="6.50941">
        <ele>2554.84</ele>
        <time>2019-04-05T10:40:38Z</time>
      </trkpt>
      <trkpt lat="45.90923" lon="6.5094">
        <ele>2553.88</ele>
        <time>2019-04-05T10:40:39Z</time>
      </trkpt>
      <trkpt lat="45.90923" lon="6.50935">
        <ele>2551.96</ele>
        <time>2019-04-05T10:40:44Z</time>
      </trkpt>
      <trkpt lat="45.90925" lon="6.50933">
        <ele>2550.51</ele>
        <time>2019-04-05T10:40:45Z</time>
      </trkpt>
      <trkpt lat="45.9093" lon="6.50926">
        <ele>2547.15</ele>
        <time>2019-04-05T10:40:47Z</time>
      </trkpt>
      <trkpt lat="45.90931" lon="6.5092">
        <ele>2545.71</ele>
        <time>2019-04-05T10:40:48Z</time>
      </trkpt>
      <trkpt lat="45.90933" lon="6.50915">
        <ele>2543.31</ele>
        <time>2019-04-05T10:40:49Z</time>
      </trkpt>
      <trkpt lat="45.90936" lon="6.5091">
        <ele>2539.94</ele>
        <time>2019-04-05T10:40:50Z</time>
      </trkpt>
      <trkpt lat="45.90938" lon="6.50904">
        <ele>2537.06</ele>
        <time>2019-04-05T10:40:51Z</time>
      </trkpt>
      <trkpt lat="45.9094" lon="6.50897">
        <ele>2533.69</ele>
        <time>2019-04-05T10:40:52Z</time>
      </trkpt>
      <trkpt lat="45.90943" lon="6.5089">
        <ele>2529.37</ele>
        <time>2019-04-05T10:40:53Z</time>
      </trkpt>
      <trkpt lat="45.90948" lon="6.50881">
        <ele>2525.04</ele>
        <time>2019-04-05T10:40:54Z</time>
      </trkpt>
      <trkpt lat="45.90954" lon="6.50874">
        <ele>2521.19</ele>
        <time>2019-04-05T10:40:55Z</time>
      </trkpt>
      <trkpt lat="45.90959" lon="6.50868">
        <ele>2514.47</ele>
        <time>2019-04-05T10:40:56Z</time>
      </trkpt>
      <trkpt lat="45.90965" lon="6.50865">
        <ele>2508.7</ele>
        <time>2019-04-05T10:40:57Z</time>
      </trkpt>
      <trkpt lat="45.90971" lon="6.50859">
        <ele>2504.37</ele>
        <time>2019-04-05T10:40:58Z</time>
      </trkpt>
      <trkpt lat="45.90977" lon="6.50853">
        <ele>2499.08</ele>
        <time>2019-04-05T10:40:59Z</time>
      </trkpt>
      <trkpt lat="45.90984" lon="6.50845">
        <ele>2492.84</ele>
        <time>2019-04-05T10:41:00Z</time>
      </trkpt>
      <trkpt lat="45.90989" lon="6.50838">
        <ele>2487.55</ele>
        <time>2019-04-05T10:41:01Z</time>
      </trkpt>
      <trkpt lat="45.90994" lon="6.50833">
        <ele>2482.74</ele>
        <time>2019-04-05T10:41:02Z</time>
      </trkpt>
      <trkpt lat="45.91001" lon="6.50832">
        <ele>2478.42</ele>
        <time>2019-04-05T10:41:03Z</time>
      </trkpt>
      <trkpt lat="45.91006" lon="6.50835">
        <ele>2474.09</ele>
        <time>2019-04-05T10:41:04Z</time>
      </trkpt>
      <trkpt lat="45.91009" lon="6.50839">
        <ele>2470.73</ele>
        <time>2019-04-05T10:41:05Z</time>
      </trkpt>
      <trkpt lat="45.91012" lon="6.50843">
        <ele>2467.84</ele>
        <time>2019-04-05T10:41:06Z</time>
      </trkpt>
      <trkpt lat="45.91016" lon="6.50852">
        <ele>2464.48</ele>
        <time>2019-04-05T10:41:08Z</time>
      </trkpt>
      <trkpt lat="45.9102" lon="6.50865">
        <ele>2461.11</ele>
        <time>2019-04-05T10:41:11Z</time>
      </trkpt>
      <trkpt lat="45.91026" lon="6.50875">
        <ele>2457.75</ele>
        <time>2019-04-05T10:41:14Z</time>
      </trkpt>
      <trkpt lat="45.9103" lon="6.50876">
        <ele>2456.79</ele>
        <time>2019-04-05T10:41:15Z</time>
      </trkpt>
      <trkpt lat="45.91036" lon="6.50875">
        <ele>2454.86</ele>
        <time>2019-04-05T10:41:16Z</time>
      </trkpt>
      <trkpt lat="45.91042" lon="6.50876">
        <ele>2451.02</ele>
        <time>2019-04-05T10:41:17Z</time>
      </trkpt>
      <trkpt lat="45.91049" lon="6.50877">
        <ele>2446.69</ele>
        <time>2019-04-05T10:41:18Z</time>
      </trkpt>
      <trkpt lat="45.91055" lon="6.50877">
        <ele>2443.33</ele>
        <time>2019-04-05T10:41:19Z</time>
      </trkpt>
      <trkpt lat="45.91061" lon="6.50877">
        <ele>2439.48</ele>
        <time>2019-04-05T10:41:20Z</time>
      </trkpt>
      <trkpt lat="45.91067" lon="6.50879">
        <ele>2435.64</ele>
        <time>2019-04-05T10:41:21Z</time>
      </trkpt>
      <trkpt lat="45.91074" lon="6.50879">
        <ele>2430.83</ele>
        <time>2019-04-05T10:41:22Z</time>
      </trkpt>
      <trkpt lat="45.91079" lon="6.50878">
        <ele>2424.58</ele>
        <time>2019-04-05T10:41:23Z</time>
      </trkpt>
      <trkpt lat="45.91085" lon="6.50878">
        <ele>2418.33</ele>
        <time>2019-04-05T10:41:24Z</time>
      </trkpt>
      <trkpt lat="45.91092" lon="6.5088">
        <ele>2412.57</ele>
        <time>2019-04-05T10:41:25Z</time>
      </trkpt>
      <trkpt lat="45.91101" lon="6.5088">
        <ele>2408.24</ele>
        <time>2019-04-05T10:41:26Z</time>
      </trkpt>
      <trkpt lat="45.91108" lon="6.50882">
        <ele>2402.47</ele>
        <time>2019-04-05T10:41:27Z</time>
      </trkpt>
      <trkpt lat="45.91114" lon="6.50887">
        <ele>2397.18</ele>
        <time>2019-04-05T10:41:28Z</time>
      </trkpt>
      <trkpt lat="45.91123" lon="6.50889">
        <ele>2393.34</ele>
        <time>2019-04-05T10:41:29Z</time>
      </trkpt>
      <trkpt lat="45.91131" lon="6.50887">
        <ele>2386.61</ele>
        <time>2019-04-05T10:41:30Z</time>
      </trkpt>
      <trkpt lat="45.91139" lon="6.50883">
        <ele>2382.28</ele>
        <time>2019-04-05T10:41:31Z</time>
      </trkpt>
      <trkpt lat="45.91148" lon="6.50882">
        <ele>2376.52</ele>
        <time>2019-04-05T10:41:32Z</time>
      </trkpt>
      <trkpt lat="45.91157" lon="6.50881">
        <ele>2369.31</ele>
        <time>2019-04-05T10:41:33Z</time>
      </trkpt>
      <trkpt lat="45.91166" lon="6.50878">
        <ele>2364.02</ele>
        <time>2019-04-05T10:41:34Z</time>
      </trkpt>
      <trkpt lat="45.91177" lon="6.50874">
        <ele>2358.25</ele>
        <time>2019-04-05T10:41:35Z</time>
      </trkpt>
      <trkpt lat="45.91185" lon="6.50874">
        <ele>2351.04</ele>
        <time>2019-04-05T10:41:36Z</time>
      </trkpt>
      <trkpt lat="45.91193" lon="6.50876">
        <ele>2344.79</ele>
        <time>2019-04-05T10:41:37Z</time>
      </trkpt>
      <trkpt lat="45.91201" lon="6.50877">
        <ele>2339.99</ele>
        <time>2019-04-05T10:41:38Z</time>
      </trkpt>
      <trkpt lat="45.91209" lon="6.50878">
        <ele>2334.22</ele>
        <time>2019-04-05T10:41:39Z</time>
      </trkpt>
      <trkpt lat="45.91217" lon="6.50878">
        <ele>2328.45</ele>
        <time>2019-04-05T10:41:40Z</time>
      </trkpt>
      <trkpt lat="45.91224" lon="6.50874">
        <ele>2324.12</ele>
        <time>2019-04-05T10:41:41Z</time>
      </trkpt>
      <trkpt lat="45.91231" lon="6.50872">
        <ele>2319.32</ele>
        <time>2019-04-05T10:41:42Z</time>
      </trkpt>
      <trkpt lat="45.91239" lon="6.50871">
        <ele>2311.63</ele>
        <time>2019-04-05T10:41:43Z</time>
      </trkpt>
      <trkpt lat="45.91247" lon="6.50869">
        <ele>2308.74</ele>
        <time>2019-04-05T10:41:44Z</time>
      </trkpt>
      <trkpt lat="45.91253" lon="6.50867">
        <ele>2304.42</ele>
        <time>2019-04-05T10:41:45Z</time>
      </trkpt>
      <trkpt lat="45.91261" lon="6.50864">
        <ele>2299.61</ele>
        <time>2019-04-05T10:41:46Z</time>
      </trkpt>
      <trkpt lat="45.91267" lon="6.50861">
        <ele>2295.77</ele>
        <time>2019-04-05T10:41:47Z</time>
      </trkpt>
      <trkpt lat="45.91275" lon="6.50857">
        <ele>2291.44</ele>
        <time>2019-04-05T10:41:48Z</time>
      </trkpt>
      <trkpt lat="45.91282" lon="6.50856">
        <ele>2287.59</ele>
        <time>2019-04-05T10:41:49Z</time>
      </trkpt>
      <trkpt lat="45.91288" lon="6.50854">
        <ele>2282.31</ele>
        <time>2019-04-05T10:41:50Z</time>
      </trkpt>
      <trkpt lat="45.91294" lon="6.50852">
        <ele>2279.42</ele>
        <time>2019-04-05T10:41:51Z</time>
      </trkpt>
      <trkpt lat="45.91301" lon="6.5085">
        <ele>2275.58</ele>
        <time>2019-04-05T10:41:52Z</time>
      </trkpt>
      <trkpt lat="45.91307" lon="6.50848">
        <ele>2272.21</ele>
        <time>2019-04-05T10:41:53Z</time>
      </trkpt>
      <trkpt lat="45.91313" lon="6.50845">
        <ele>2269.33</ele>
        <time>2019-04-05T10:41:54Z</time>
      </trkpt>
      <trkpt lat="45.91318" lon="6.50843">
        <ele>2265.96</ele>
        <time>2019-04-05T10:41:55Z</time>
      </trkpt>
      <trkpt lat="45.91323" lon="6.50842">
        <ele>2264.52</ele>
        <time>2019-04-05T10:41:56Z</time>
      </trkpt>
      <trkpt lat="45.91328" lon="6.5084">
        <ele>2260.68</ele>
        <time>2019-04-05T10:41:57Z</time>
      </trkpt>
      <trkpt lat="45.91333" lon="6.50835">
        <ele>2257.79</ele>
        <time>2019-04-05T10:41:58Z</time>
      </trkpt>
      <trkpt lat="45.91338" lon="6.50829">
        <ele>2254.91</ele>
        <time>2019-04-05T10:41:59Z</time>
      </trkpt>
      <trkpt lat="45.91342" lon="6.50824">
        <ele>2252.03</ele>
        <time>2019-04-05T10:42:00Z</time>
      </trkpt>
      <trkpt lat="45.91347" lon="6.50819">
        <ele>2249.62</ele>
        <time>2019-04-05T10:42:01Z</time>
      </trkpt>
      <trkpt lat="45.91354" lon="6.50818">
        <ele>2246.74</ele>
        <time>2019-04-05T10:42:02Z</time>
      </trkpt>
      <trkpt lat="45.9136" lon="6.50817">
        <ele>2244.33</ele>
        <time>2019-04-05T10:42:03Z</time>
      </trkpt>
      <trkpt lat="45.91366" lon="6.50818">
        <ele>2242.41</ele>
        <time>2019-04-05T10:42:04Z</time>
      </trkpt>
      <trkpt lat="45.91371" lon="6.50819">
        <ele>2241.93</ele>
        <time>2019-04-05T10:42:05Z</time>
      </trkpt>
      <trkpt lat="45.91376" lon="6.50819">
        <ele>2240.01</ele>
        <time>2019-04-05T10:42:06Z</time>
      </trkpt>
      <trkpt lat="45.91379" lon="6.50818">
        <ele>2238.09</ele>
        <time>2019-04-05T10:42:07Z</time>
      </trkpt>
      <trkpt lat="45.91383" lon="6.50817">
        <ele>2236.64</ele>
        <time>2019-04-05T10:42:08Z</time>
      </trkpt>
      <trkpt lat="45.91385" lon="6.50815">
        <ele>2235.68</ele>
        <time>2019-04-05T10:42:09Z</time>
      </trkpt>
      <trkpt lat="45.91387" lon="6.50814">
        <ele>2234.72</ele>
        <time>2019-04-05T10:42:10Z</time>
      </trkpt>
      <trkpt lat="45.91388" lon="6.50813">
        <ele>2234.24</ele>
        <time>2019-04-05T10:42:11Z</time>
      </trkpt>
      <trkpt lat="45.91389" lon="6.50811">
        <ele>2233.28</ele>
        <time>2019-04-05T10:42:13Z</time>
      </trkpt>
      <trkpt lat="45.9139" lon="6.50801">
        <ele>2232.32</ele>
        <time>2019-04-05T10:42:26Z</time>
      </trkpt>
      <trkpt lat="45.91391" lon="6.50799">
        <ele>2232.32</ele>
        <time>2019-04-05T10:42:27Z</time>
      </trkpt>
      <trkpt lat="45.91392" lon="6.50796">
        <ele>2231.84</ele>
        <time>2019-04-05T10:42:28Z</time>
      </trkpt>
      <trkpt lat="45.91393" lon="6.50791">
        <ele>2231.36</ele>
        <time>2019-04-05T10:42:29Z</time>
      </trkpt>
      <trkpt lat="45.91393" lon="6.50784">
        <ele>2230.4</ele>
        <time>2019-04-05T10:42:30Z</time>
      </trkpt>
      <trkpt lat="45.91394" lon="6.50777">
        <ele>2230.4</ele>
        <time>2019-04-05T10:42:31Z</time>
      </trkpt>
      <trkpt lat="45.91398" lon="6.5073">
        <ele>2226.07</ele>
        <time>2019-04-05T10:42:36Z</time>
      </trkpt>
      <trkpt lat="45.91398" lon="6.50706">
        <ele>2219.82</ele>
        <time>2019-04-05T10:42:38Z</time>
      </trkpt>
      <trkpt lat="45.91396" lon="6.5068">
        <ele>2215.01</ele>
        <time>2019-04-05T10:42:40Z</time>
      </trkpt>
      <trkpt lat="45.91396" lon="6.50662">
        <ele>2212.13</ele>
        <time>2019-04-05T10:42:42Z</time>
      </trkpt>
      <trkpt lat="45.91395" lon="6.50647">
        <ele>2212.13</ele>
        <time>2019-04-05T10:43:08Z</time>
      </trkpt>
      <trkpt lat="45.914" lon="6.50635">
        <ele>2210.69</ele>
        <time>2019-04-05T10:43:15Z</time>
      </trkpt>
      <trkpt lat="45.91402" lon="6.50632">
        <ele>2209.73</ele>
        <time>2019-04-05T10:43:34Z</time>
      </trkpt>
      <trkpt lat="45.91404" lon="6.50631">
        <ele>2209.73</ele>
        <time>2019-04-05T10:43:35Z</time>
      </trkpt>
      <trkpt lat="45.91406" lon="6.50629">
        <ele>2209.25</ele>
        <time>2019-04-05T10:43:36Z</time>
      </trkpt>
      <trkpt lat="45.91423" lon="6.50613">
        <ele>2205.4</ele>
        <time>2019-04-05T10:43:41Z</time>
      </trkpt>
      <trkpt lat="45.91427" lon="6.5061">
        <ele>2204.44</ele>
        <time>2019-04-05T10:43:42Z</time>
      </trkpt>
      <trkpt lat="45.91431" lon="6.50609">
        <ele>2203.48</ele>
        <time>2019-04-05T10:43:43Z</time>
      </trkpt>
      <trkpt lat="45.91434" lon="6.50609">
        <ele>2202.52</ele>
        <time>2019-04-05T10:43:44Z</time>
      </trkpt>
      <trkpt lat="45.91438" lon="6.50609">
        <ele>2201.08</ele>
        <time>2019-04-05T10:43:47Z</time>
      </trkpt>
      <trkpt lat="45.91451" lon="6.5061">
        <ele>2198.19</ele>
        <time>2019-04-05T10:43:51Z</time>
      </trkpt>
      <trkpt lat="45.91456" lon="6.50605">
        <ele>2195.79</ele>
        <time>2019-04-05T10:43:52Z</time>
      </trkpt>
      <trkpt lat="45.91463" lon="6.50602">
        <ele>2191.46</ele>
        <time>2019-04-05T10:43:53Z</time>
      </trkpt>
      <trkpt lat="45.91471" lon="6.50601">
        <ele>2185.69</ele>
        <time>2019-04-05T10:43:54Z</time>
      </trkpt>
      <trkpt lat="45.91477" lon="6.50601">
        <ele>2180.89</ele>
        <time>2019-04-05T10:43:55Z</time>
      </trkpt>
      <trkpt lat="45.91483" lon="6.50602">
        <ele>2178</ele>
        <time>2019-04-05T10:43:56Z</time>
      </trkpt>
      <trkpt lat="45.91488" lon="6.50603">
        <ele>2175.12</ele>
        <time>2019-04-05T10:43:57Z</time>
      </trkpt>
      <trkpt lat="45.91494" lon="6.50604">
        <ele>2172.24</ele>
        <time>2019-04-05T10:43:58Z</time>
      </trkpt>
      <trkpt lat="45.91499" lon="6.50605">
        <ele>2168.87</ele>
        <time>2019-04-05T10:43:59Z</time>
      </trkpt>
      <trkpt lat="45.91506" lon="6.50606">
        <ele>2165.03</ele>
        <time>2019-04-05T10:44:00Z</time>
      </trkpt>
      <trkpt lat="45.91513" lon="6.50606">
        <ele>2161.18</ele>
        <time>2019-04-05T10:44:01Z</time>
      </trkpt>
      <trkpt lat="45.91518" lon="6.50608">
        <ele>2156.86</ele>
        <time>2019-04-05T10:44:02Z</time>
      </trkpt>
      <trkpt lat="45.9152" lon="6.5061">
        <ele>2154.45</ele>
        <time>2019-04-05T10:44:03Z</time>
      </trkpt>
      <trkpt lat="45.91522" lon="6.50611">
        <ele>2153.49</ele>
        <time>2019-04-05T10:44:04Z</time>
      </trkpt>
      <trkpt lat="45.91523" lon="6.50612">
        <ele>2152.53</ele>
        <time>2019-04-05T10:44:05Z</time>
      </trkpt>
      <trkpt lat="45.91524" lon="6.50611">
        <ele>2152.05</ele>
        <time>2019-04-05T10:44:06Z</time>
      </trkpt>
      <trkpt lat="45.91525" lon="6.50612">
        <ele>2151.57</ele>
        <time>2019-04-05T10:44:07Z</time>
      </trkpt>
      <trkpt lat="45.91526" lon="6.50612">
        <ele>2151.57</ele>
        <time>2019-04-05T10:44:08Z</time>
      </trkpt>
      <trkpt lat="45.91529" lon="6.50614">
        <ele>2150.61</ele>
        <time>2019-04-05T10:44:48Z</time>
      </trkpt>
      <trkpt lat="45.91528" lon="6.50614">
        <ele>2149.65</ele>
        <time>2019-04-05T10:45:26Z</time>
      </trkpt>
      <trkpt lat="45.91529" lon="6.50613">
        <ele>2149.65</ele>
        <time>2019-04-05T10:45:50Z</time>
      </trkpt>
      <trkpt lat="45.91527" lon="6.50616">
        <ele>2149.65</ele>
        <time>2019-04-05T10:46:15Z</time>
      </trkpt>
      <trkpt lat="45.91529" lon="6.50615">
        <ele>2150.61</ele>
        <time>2019-04-05T10:46:56Z</time>
      </trkpt>
      <trkpt lat="45.91529" lon="6.50616">
        <ele>2150.61</ele>
        <time>2019-04-05T10:47:43Z</time>
      </trkpt>
      <trkpt lat="45.91529" lon="6.50616">
        <ele>2150.13</ele>
        <time>2019-04-05T10:48:35Z</time>
      </trkpt>
      <trkpt lat="45.9153" lon="6.50616">
        <ele>2148.68</ele>
        <time>2019-04-05T10:49:46Z</time>
      </trkpt>
      <trkpt lat="45.91528" lon="6.5062">
        <ele>2148.2</ele>
        <time>2019-04-05T10:51:05Z</time>
      </trkpt>
      <trkpt lat="45.91527" lon="6.50619">
        <ele>2148.2</ele>
        <time>2019-04-05T10:51:17Z</time>
      </trkpt>
      <trkpt lat="45.91527" lon="6.50618">
        <ele>2150.13</ele>
        <time>2019-04-05T10:52:45Z</time>
      </trkpt>
      <trkpt lat="45.91527" lon="6.50618">
        <ele>2148.2</ele>
        <time>2019-04-05T10:53:47Z</time>
      </trkpt>
      <trkpt lat="45.91527" lon="6.50618">
        <ele>2148.68</ele>
        <time>2019-04-05T10:54:26Z</time>
      </trkpt>
      <trkpt lat="45.91528" lon="6.50618">
        <ele>2148.2</ele>
        <time>2019-04-05T10:55:19Z</time>
      </trkpt>
      <trkpt lat="45.91524" lon="6.50627">
        <ele>2151.09</ele>
        <time>2019-04-05T10:55:39Z</time>
      </trkpt>
      <trkpt lat="45.91516" lon="6.50639">
        <ele>2154.45</ele>
        <time>2019-04-05T10:55:54Z</time>
      </trkpt>
      <trkpt lat="45.91517" lon="6.50645">
        <ele>2155.41</ele>
        <time>2019-04-05T10:56:00Z</time>
      </trkpt>
      <trkpt lat="45.91521" lon="6.50658">
        <ele>2158.78</ele>
        <time>2019-04-05T10:56:13Z</time>
      </trkpt>
      <trkpt lat="45.91525" lon="6.50668">
        <ele>2162.14</ele>
        <time>2019-04-05T10:56:26Z</time>
      </trkpt>
      <trkpt lat="45.91527" lon="6.50673">
        <ele>2163.58</ele>
        <time>2019-04-05T10:56:32Z</time>
      </trkpt>
      <trkpt lat="45.91535" lon="6.50683">
        <ele>2165.03</ele>
        <time>2019-04-05T10:56:49Z</time>
      </trkpt>
      <trkpt lat="45.91536" lon="6.50687">
        <ele>2166.95</ele>
        <time>2019-04-05T10:56:54Z</time>
      </trkpt>
      <trkpt lat="45.91542" lon="6.50691">
        <ele>2169.83</ele>
        <time>2019-04-05T10:57:03Z</time>
      </trkpt>
      <trkpt lat="45.91543" lon="6.50701">
        <ele>2172.24</ele>
        <time>2019-04-05T10:57:20Z</time>
      </trkpt>
      <trkpt lat="45.91534" lon="6.50715">
        <ele>2175.12</ele>
        <time>2019-04-05T10:57:39Z</time>
      </trkpt>
      <trkpt lat="45.91524" lon="6.50725">
        <ele>2178.48</ele>
        <time>2019-04-05T10:58:03Z</time>
      </trkpt>
      <trkpt lat="45.91521" lon="6.50727">
        <ele>2180.41</ele>
        <time>2019-04-05T10:58:07Z</time>
      </trkpt>
      <trkpt lat="45.91521" lon="6.50728">
        <ele>2180.89</ele>
        <time>2019-04-05T10:58:08Z</time>
      </trkpt>
      <trkpt lat="45.9152" lon="6.50729">
        <ele>2181.37</ele>
        <time>2019-04-05T10:58:09Z</time>
      </trkpt>
      <trkpt lat="45.91526" lon="6.50736">
        <ele>2184.25</ele>
        <time>2019-04-05T10:58:25Z</time>
      </trkpt>
      <trkpt lat="45.91528" lon="6.50736">
        <ele>2184.73</ele>
        <time>2019-04-05T10:58:28Z</time>
      </trkpt>
      <trkpt lat="45.91538" lon="6.50746">
        <ele>2187.62</ele>
        <time>2019-04-05T10:58:48Z</time>
      </trkpt>
      <trkpt lat="45.91545" lon="6.5075">
        <ele>2189.54</ele>
        <time>2019-04-05T10:58:59Z</time>
      </trkpt>
      <trkpt lat="45.91546" lon="6.5075">
        <ele>2190.02</ele>
        <time>2019-04-05T10:59:00Z</time>
      </trkpt>
      <trkpt lat="45.91556" lon="6.50755">
        <ele>2192.9</ele>
        <time>2019-04-05T10:59:14Z</time>
      </trkpt>
      <trkpt lat="45.91548" lon="6.50763">
        <ele>2195.79</ele>
        <time>2019-04-05T10:59:30Z</time>
      </trkpt>
      <trkpt lat="45.91547" lon="6.50764">
        <ele>2195.79</ele>
        <time>2019-04-05T10:59:31Z</time>
      </trkpt>
      <trkpt lat="45.91547" lon="6.50764">
        <ele>2196.27</ele>
        <time>2019-04-05T10:59:32Z</time>
      </trkpt>
      <trkpt lat="45.91537" lon="6.50772">
        <ele>2199.63</ele>
        <time>2019-04-05T10:59:50Z</time>
      </trkpt>
      <trkpt lat="45.91528" lon="6.50778">
        <ele>2203</ele>
        <time>2019-04-05T11:00:06Z</time>
      </trkpt>
      <trkpt lat="45.91532" lon="6.50786">
        <ele>2205.4</ele>
        <time>2019-04-05T11:00:21Z</time>
      </trkpt>
      <trkpt lat="45.91535" lon="6.5079">
        <ele>2205.88</ele>
        <time>2019-04-05T11:00:25Z</time>
      </trkpt>
      <trkpt lat="45.91537" lon="6.50796">
        <ele>2208.77</ele>
        <time>2019-04-05T11:00:36Z</time>
      </trkpt>
      <trkpt lat="45.91527" lon="6.50806">
        <ele>2212.13</ele>
        <time>2019-04-05T11:00:54Z</time>
      </trkpt>
      <trkpt lat="45.91521" lon="6.50811">
        <ele>2215.5</ele>
        <time>2019-04-05T11:01:08Z</time>
      </trkpt>
      <trkpt lat="45.91528" lon="6.50828">
        <ele>2218.38</ele>
        <time>2019-04-05T11:01:31Z</time>
      </trkpt>
      <trkpt lat="45.91521" lon="6.50833">
        <ele>2221.74</ele>
        <time>2019-04-05T11:01:47Z</time>
      </trkpt>
      <trkpt lat="45.91516" lon="6.50841">
        <ele>2225.11</ele>
        <time>2019-04-05T11:02:05Z</time>
      </trkpt>
      <trkpt lat="45.91524" lon="6.50852">
        <ele>2227.99</ele>
        <time>2019-04-05T11:02:23Z</time>
      </trkpt>
      <trkpt lat="45.91521" lon="6.50859">
        <ele>2230.4</ele>
        <time>2019-04-05T11:02:37Z</time>
      </trkpt>
      <trkpt lat="45.91514" lon="6.50864">
        <ele>2233.76</ele>
        <time>2019-04-05T11:02:50Z</time>
      </trkpt>
      <trkpt lat="45.91509" lon="6.50866">
        <ele>2235.2</ele>
        <time>2019-04-05T11:02:58Z</time>
      </trkpt>
      <trkpt lat="45.91504" lon="6.5087">
        <ele>2238.09</ele>
        <time>2019-04-05T11:03:10Z</time>
      </trkpt>
      <trkpt lat="45.91508" lon="6.5088">
        <ele>2240.97</ele>
        <time>2019-04-05T11:03:22Z</time>
      </trkpt>
      <trkpt lat="45.91511" lon="6.50884">
        <ele>2243.37</ele>
        <time>2019-04-05T11:03:30Z</time>
      </trkpt>
      <trkpt lat="45.915" lon="6.50897">
        <ele>2244.82</ele>
        <time>2019-04-05T11:03:57Z</time>
      </trkpt>
      <trkpt lat="45.91496" lon="6.50897">
        <ele>2246.74</ele>
        <time>2019-04-05T11:04:03Z</time>
      </trkpt>
      <trkpt lat="45.91484" lon="6.50891">
        <ele>2250.1</ele>
        <time>2019-04-05T11:04:22Z</time>
      </trkpt>
      <trkpt lat="45.91478" lon="6.50884">
        <ele>2252.99</ele>
        <time>2019-04-05T11:04:36Z</time>
      </trkpt>
      <trkpt lat="45.91471" lon="6.50877">
        <ele>2256.83</ele>
        <time>2019-04-05T11:04:51Z</time>
      </trkpt>
      <trkpt lat="45.91464" lon="6.50872">
        <ele>2260.2</ele>
        <time>2019-04-05T11:05:03Z</time>
      </trkpt>
      <trkpt lat="45.91464" lon="6.50872">
        <ele>2261.16</ele>
        <time>2019-04-05T11:05:05Z</time>
      </trkpt>
      <trkpt lat="45.91464" lon="6.50871">
        <ele>2262.6</ele>
        <time>2019-04-05T11:05:14Z</time>
      </trkpt>
      <trkpt lat="45.91463" lon="6.50872">
        <ele>2259.24</ele>
        <time>2019-04-05T11:05:21Z</time>
      </trkpt>
      <trkpt lat="45.91463" lon="6.50872">
        <ele>2258.75</ele>
        <time>2019-04-05T11:05:23Z</time>
      </trkpt>
      <trkpt lat="45.91462" lon="6.50872">
        <ele>2258.75</ele>
        <time>2019-04-05T11:05:58Z</time>
      </trkpt>
      <trkpt lat="45.91459" lon="6.50876">
        <ele>2260.2</ele>
        <time>2019-04-05T11:06:06Z</time>
      </trkpt>
      <trkpt lat="45.9146" lon="6.50881">
        <ele>2261.16</ele>
        <time>2019-04-05T11:06:11Z</time>
      </trkpt>
      <trkpt lat="45.91456" lon="6.50896">
        <ele>2264.04</ele>
        <time>2019-04-05T11:06:25Z</time>
      </trkpt>
      <trkpt lat="45.9145" lon="6.50906">
        <ele>2267.41</ele>
        <time>2019-04-05T11:06:40Z</time>
      </trkpt>
      <trkpt lat="45.91444" lon="6.50914">
        <ele>2270.29</ele>
        <time>2019-04-05T11:06:54Z</time>
      </trkpt>
      <trkpt lat="45.91441" lon="6.50919">
        <ele>2273.17</ele>
        <time>2019-04-05T11:07:06Z</time>
      </trkpt>
      <trkpt lat="45.91441" lon="6.50934">
        <ele>2276.54</ele>
        <time>2019-04-05T11:07:26Z</time>
      </trkpt>
      <trkpt lat="45.91444" lon="6.50943">
        <ele>2279.42</ele>
        <time>2019-04-05T11:07:38Z</time>
      </trkpt>
      <trkpt lat="45.91448" lon="6.50951">
        <ele>2282.79</ele>
        <time>2019-04-05T11:07:51Z</time>
      </trkpt>
      <trkpt lat="45.91451" lon="6.50958">
        <ele>2284.71</ele>
        <time>2019-04-05T11:07:59Z</time>
      </trkpt>
      <trkpt lat="45.91454" lon="6.50983">
        <ele>2287.59</ele>
        <time>2019-04-05T11:08:22Z</time>
      </trkpt>
      <trkpt lat="45.91451" lon="6.51007">
        <ele>2290.48</ele>
        <time>2019-04-05T11:08:43Z</time>
      </trkpt>
      <trkpt lat="45.91451" lon="6.51008">
        <ele>2290</ele>
        <time>2019-04-05T11:08:44Z</time>
      </trkpt>
      <trkpt lat="45.9145" lon="6.5101">
        <ele>2290</ele>
        <time>2019-04-05T11:08:45Z</time>
      </trkpt>
      <trkpt lat="45.91449" lon="6.51015">
        <ele>2290</ele>
        <time>2019-04-05T11:08:49Z</time>
      </trkpt>
      <trkpt lat="45.91449" lon="6.51016">
        <ele>2290.48</ele>
        <time>2019-04-05T11:08:50Z</time>
      </trkpt>
      <trkpt lat="45.91443" lon="6.51035">
        <ele>2292.4</ele>
        <time>2019-04-05T11:09:09Z</time>
      </trkpt>
      <trkpt lat="45.91439" lon="6.51045">
        <ele>2295.77</ele>
        <time>2019-04-05T11:09:22Z</time>
      </trkpt>
      <trkpt lat="45.91435" lon="6.51056">
        <ele>2299.13</ele>
        <time>2019-04-05T11:09:36Z</time>
      </trkpt>
      <trkpt lat="45.91432" lon="6.51067">
        <ele>2302.01</ele>
        <time>2019-04-05T11:09:52Z</time>
      </trkpt>
      <trkpt lat="45.91444" lon="6.51066">
        <ele>2305.38</ele>
        <time>2019-04-05T11:10:14Z</time>
      </trkpt>
      <trkpt lat="45.91448" lon="6.51067">
        <ele>2306.34</ele>
        <time>2019-04-05T11:10:19Z</time>
      </trkpt>
      <trkpt lat="45.91445" lon="6.51075">
        <ele>2309.7</ele>
        <time>2019-04-05T11:10:33Z</time>
      </trkpt>
      <trkpt lat="45.91444" lon="6.51078">
        <ele>2310.19</ele>
        <time>2019-04-05T11:10:37Z</time>
      </trkpt>
      <trkpt lat="45.91442" lon="6.51088">
        <ele>2313.55</ele>
        <time>2019-04-05T11:10:51Z</time>
      </trkpt>
      <trkpt lat="45.91458" lon="6.51091">
        <ele>2316.91</ele>
        <time>2019-04-05T11:11:24Z</time>
      </trkpt>
      <trkpt lat="45.91457" lon="6.51096">
        <ele>2319.8</ele>
        <time>2019-04-05T11:11:34Z</time>
      </trkpt>
      <trkpt lat="45.9145" lon="6.51109">
        <ele>2323.16</ele>
        <time>2019-04-05T11:11:53Z</time>
      </trkpt>
      <trkpt lat="45.9145" lon="6.51113">
        <ele>2326.05</ele>
        <time>2019-04-05T11:12:01Z</time>
      </trkpt>
      <trkpt lat="45.91459" lon="6.51115">
        <ele>2329.41</ele>
        <time>2019-04-05T11:12:17Z</time>
      </trkpt>
      <trkpt lat="45.91463" lon="6.5112">
        <ele>2332.3</ele>
        <time>2019-04-05T11:12:41Z</time>
      </trkpt>
      <trkpt lat="45.9146" lon="6.51128">
        <ele>2335.66</ele>
        <time>2019-04-05T11:12:53Z</time>
      </trkpt>
      <trkpt lat="45.91456" lon="6.51142">
        <ele>2339.02</ele>
        <time>2019-04-05T11:13:13Z</time>
      </trkpt>
      <trkpt lat="45.91468" lon="6.51141">
        <ele>2341.91</ele>
        <time>2019-04-05T11:13:36Z</time>
      </trkpt>
      <trkpt lat="45.91476" lon="6.51142">
        <ele>2344.79</ele>
        <time>2019-04-05T11:13:52Z</time>
      </trkpt>
      <trkpt lat="45.91472" lon="6.51151">
        <ele>2348.16</ele>
        <time>2019-04-05T11:14:07Z</time>
      </trkpt>
      <trkpt lat="45.91471" lon="6.51156">
        <ele>2349.6</ele>
        <time>2019-04-05T11:14:13Z</time>
      </trkpt>
      <trkpt lat="45.91469" lon="6.51162">
        <ele>2351.04</ele>
        <time>2019-04-05T11:14:21Z</time>
      </trkpt>
      <trkpt lat="45.91474" lon="6.51162">
        <ele>2354.41</ele>
        <time>2019-04-05T11:14:40Z</time>
      </trkpt>
      <trkpt lat="45.91482" lon="6.51163">
        <ele>2357.29</ele>
        <time>2019-04-05T11:14:58Z</time>
      </trkpt>
      <trkpt lat="45.91478" lon="6.51172">
        <ele>2360.17</ele>
        <time>2019-04-05T11:15:14Z</time>
      </trkpt>
      <trkpt lat="45.91485" lon="6.51176">
        <ele>2363.54</ele>
        <time>2019-04-05T11:15:46Z</time>
      </trkpt>
      <trkpt lat="45.91485" lon="6.51179">
        <ele>2366.9</ele>
        <time>2019-04-05T11:15:59Z</time>
      </trkpt>
      <trkpt lat="45.9149" lon="6.51185">
        <ele>2369.79</ele>
        <time>2019-04-05T11:16:21Z</time>
      </trkpt>
      <trkpt lat="45.91498" lon="6.51189">
        <ele>2373.63</ele>
        <time>2019-04-05T11:16:48Z</time>
      </trkpt>
      <trkpt lat="45.91497" lon="6.51196">
        <ele>2377</ele>
        <time>2019-04-05T11:17:00Z</time>
      </trkpt>
      <trkpt lat="45.91502" lon="6.51196">
        <ele>2380.36</ele>
        <time>2019-04-05T11:17:18Z</time>
      </trkpt>
      <trkpt lat="45.91504" lon="6.51205">
        <ele>2383.25</ele>
        <time>2019-04-05T11:17:36Z</time>
      </trkpt>
      <trkpt lat="45.91507" lon="6.51209">
        <ele>2386.61</ele>
        <time>2019-04-05T11:17:55Z</time>
      </trkpt>
      <trkpt lat="45.91508" lon="6.51209">
        <ele>2386.61</ele>
        <time>2019-04-05T11:17:56Z</time>
      </trkpt>
      <trkpt lat="45.91509" lon="6.51213">
        <ele>2389.97</ele>
        <time>2019-04-05T11:18:09Z</time>
      </trkpt>
      <trkpt lat="45.91507" lon="6.51218">
        <ele>2392.86</ele>
        <time>2019-04-05T11:18:17Z</time>
      </trkpt>
      <trkpt lat="45.91506" lon="6.51219">
        <ele>2393.34</ele>
        <time>2019-04-05T11:18:18Z</time>
      </trkpt>
      <trkpt lat="45.91515" lon="6.5122">
        <ele>2393.82</ele>
        <time>2019-04-05T11:18:37Z</time>
      </trkpt>
      <trkpt lat="45.91516" lon="6.5123">
        <ele>2396.7</ele>
        <time>2019-04-05T11:19:07Z</time>
      </trkpt>
      <trkpt lat="45.91515" lon="6.51239">
        <ele>2399.59</ele>
        <time>2019-04-05T11:19:24Z</time>
      </trkpt>
      <trkpt lat="45.91517" lon="6.51239">
        <ele>2402.95</ele>
        <time>2019-04-05T11:19:35Z</time>
      </trkpt>
      <trkpt lat="45.91521" lon="6.51239">
        <ele>2405.84</ele>
        <time>2019-04-05T11:19:41Z</time>
      </trkpt>
      <trkpt lat="45.91522" lon="6.5124">
        <ele>2405.84</ele>
        <time>2019-04-05T11:19:42Z</time>
      </trkpt>
      <trkpt lat="45.91518" lon="6.51244">
        <ele>2406.8</ele>
        <time>2019-04-05T11:19:53Z</time>
      </trkpt>
      <trkpt lat="45.9152" lon="6.51244">
        <ele>2410.16</ele>
        <time>2019-04-05T11:20:01Z</time>
      </trkpt>
      <trkpt lat="45.91522" lon="6.51252">
        <ele>2414.01</ele>
        <time>2019-04-05T11:20:29Z</time>
      </trkpt>
      <trkpt lat="45.91528" lon="6.51255">
        <ele>2416.89</ele>
        <time>2019-04-05T11:20:50Z</time>
      </trkpt>
      <trkpt lat="45.91523" lon="6.51266">
        <ele>2419.78</ele>
        <time>2019-04-05T11:21:10Z</time>
      </trkpt>
      <trkpt lat="45.91521" lon="6.51273">
        <ele>2421.7</ele>
        <time>2019-04-05T11:21:29Z</time>
      </trkpt>
      <trkpt lat="45.91533" lon="6.51271">
        <ele>2424.58</ele>
        <time>2019-04-05T11:21:48Z</time>
      </trkpt>
      <trkpt lat="45.91531" lon="6.51275">
        <ele>2426.5</ele>
        <time>2019-04-05T11:21:53Z</time>
      </trkpt>
      <trkpt lat="45.91531" lon="6.51276">
        <ele>2426.99</ele>
        <time>2019-04-05T11:21:54Z</time>
      </trkpt>
      <trkpt lat="45.9153" lon="6.51277">
        <ele>2426.99</ele>
        <time>2019-04-05T11:21:55Z</time>
      </trkpt>
      <trkpt lat="45.9153" lon="6.51279">
        <ele>2426.99</ele>
        <time>2019-04-05T11:21:56Z</time>
      </trkpt>
      <trkpt lat="45.91535" lon="6.51276">
        <ele>2427.95</ele>
        <time>2019-04-05T11:22:07Z</time>
      </trkpt>
      <trkpt lat="45.91538" lon="6.51272">
        <ele>2428.43</ele>
        <time>2019-04-05T11:22:12Z</time>
      </trkpt>
      <trkpt lat="45.9154" lon="6.51272">
        <ele>2431.79</ele>
        <time>2019-04-05T11:22:23Z</time>
      </trkpt>
      <trkpt lat="45.91541" lon="6.51277">
        <ele>2434.68</ele>
        <time>2019-04-05T11:22:30Z</time>
      </trkpt>
      <trkpt lat="45.91546" lon="6.51274">
        <ele>2436.6</ele>
        <time>2019-04-05T11:22:41Z</time>
      </trkpt>
      <trkpt lat="45.91553" lon="6.51267">
        <ele>2439.96</ele>
        <time>2019-04-05T11:22:58Z</time>
      </trkpt>
      <trkpt lat="45.91561" lon="6.51267">
        <ele>2442.85</ele>
        <time>2019-04-05T11:23:39Z</time>
      </trkpt>
      <trkpt lat="45.91563" lon="6.51266">
        <ele>2444.77</ele>
        <time>2019-04-05T11:23:42Z</time>
      </trkpt>
      <trkpt lat="45.91573" lon="6.51269">
        <ele>2448.13</ele>
        <time>2019-04-05T11:24:00Z</time>
      </trkpt>
      <trkpt lat="45.91574" lon="6.51272">
        <ele>2451.02</ele>
        <time>2019-04-05T11:24:08Z</time>
      </trkpt>
      <trkpt lat="45.91574" lon="6.51272">
        <ele>2453.42</ele>
        <time>2019-04-05T11:24:12Z</time>
      </trkpt>
      <trkpt lat="45.91575" lon="6.5127">
        <ele>2451.02</ele>
        <time>2019-04-05T11:24:40Z</time>
      </trkpt>
      <trkpt lat="45.91575" lon="6.5127">
        <ele>2455.82</ele>
        <time>2019-04-05T11:24:57Z</time>
      </trkpt>
      <trkpt lat="45.91575" lon="6.5127">
        <ele>2458.23</ele>
        <time>2019-04-05T11:24:59Z</time>
      </trkpt>
      <trkpt lat="45.91574" lon="6.5127">
        <ele>2452.94</ele>
        <time>2019-04-05T11:25:02Z</time>
      </trkpt>
      <trkpt lat="45.91574" lon="6.5127">
        <ele>2449.58</ele>
        <time>2019-04-05T11:25:05Z</time>
      </trkpt>
      <trkpt lat="45.91573" lon="6.51271">
        <ele>2452.46</ele>
        <time>2019-04-05T11:25:17Z</time>
      </trkpt>
      <trkpt lat="45.91572" lon="6.51271">
        <ele>2455.82</ele>
        <time>2019-04-05T11:25:53Z</time>
      </trkpt>
      <trkpt lat="45.91572" lon="6.5127">
        <ele>2452.46</ele>
        <time>2019-04-05T11:25:59Z</time>
      </trkpt>
      <trkpt lat="45.91572" lon="6.5127">
        <ele>2452.46</ele>
        <time>2019-04-05T11:26:00Z</time>
      </trkpt>
      <trkpt lat="45.91579" lon="6.51273">
        <ele>2455.34</ele>
        <time>2019-04-05T11:26:14Z</time>
      </trkpt>
      <trkpt lat="45.91582" lon="6.51272">
        <ele>2458.23</ele>
        <time>2019-04-05T11:26:23Z</time>
      </trkpt>
      <trkpt lat="45.91584" lon="6.51269">
        <ele>2459.19</ele>
        <time>2019-04-05T11:27:05Z</time>
      </trkpt>
      <trkpt lat="45.91585" lon="6.51269">
        <ele>2460.15</ele>
        <time>2019-04-05T11:27:20Z</time>
      </trkpt>
      <trkpt lat="45.91584" lon="6.51268">
        <ele>2462.07</ele>
        <time>2019-04-05T11:27:31Z</time>
      </trkpt>
      <trkpt lat="45.91584" lon="6.51268">
        <ele>2458.71</ele>
        <time>2019-04-05T11:27:37Z</time>
      </trkpt>
      <trkpt lat="45.91587" lon="6.5127">
        <ele>2461.59</ele>
        <time>2019-04-05T11:28:22Z</time>
      </trkpt>
      <trkpt lat="45.91588" lon="6.5127">
        <ele>2460.15</ele>
        <time>2019-04-05T11:28:37Z</time>
      </trkpt>
      <trkpt lat="45.91587" lon="6.51271">
        <ele>2463.52</ele>
        <time>2019-04-05T11:29:03Z</time>
      </trkpt>
      <trkpt lat="45.91587" lon="6.5127">
        <ele>2460.15</ele>
        <time>2019-04-05T11:29:07Z</time>
      </trkpt>
      <trkpt lat="45.91586" lon="6.51269">
        <ele>2458.71</ele>
        <time>2019-04-05T11:29:08Z</time>
      </trkpt>
      <trkpt lat="45.91587" lon="6.5127">
        <ele>2462.07</ele>
        <time>2019-04-05T11:29:12Z</time>
      </trkpt>
      <trkpt lat="45.91587" lon="6.5127">
        <ele>2466.4</ele>
        <time>2019-04-05T11:29:15Z</time>
      </trkpt>
      <trkpt lat="45.91588" lon="6.5127">
        <ele>2463.04</ele>
        <time>2019-04-05T11:29:19Z</time>
      </trkpt>
      <trkpt lat="45.91588" lon="6.5127">
        <ele>2459.67</ele>
        <time>2019-04-05T11:29:23Z</time>
      </trkpt>
      <trkpt lat="45.9159" lon="6.51271">
        <ele>2463.04</ele>
        <time>2019-04-05T11:29:42Z</time>
      </trkpt>
      <trkpt lat="45.9159" lon="6.51271">
        <ele>2465.92</ele>
        <time>2019-04-05T11:29:46Z</time>
      </trkpt>
      <trkpt lat="45.91589" lon="6.51272">
        <ele>2467.36</ele>
        <time>2019-04-05T11:29:49Z</time>
      </trkpt>
      <trkpt lat="45.9159" lon="6.51273">
        <ele>2463.52</ele>
        <time>2019-04-05T11:29:56Z</time>
      </trkpt>
      <trkpt lat="45.91589" lon="6.51273">
        <ele>2461.59</ele>
        <time>2019-04-05T11:29:58Z</time>
      </trkpt>
      <trkpt lat="45.91589" lon="6.51273">
        <ele>2464.48</ele>
        <time>2019-04-05T11:30:02Z</time>
      </trkpt>
      <trkpt lat="45.9159" lon="6.51272">
        <ele>2461.59</ele>
        <time>2019-04-05T11:30:15Z</time>
      </trkpt>
      <trkpt lat="45.91587" lon="6.51271">
        <ele>2464.96</ele>
        <time>2019-04-05T11:30:31Z</time>
      </trkpt>
      <trkpt lat="45.91586" lon="6.51269">
        <ele>2462.07</ele>
        <time>2019-04-05T11:30:41Z</time>
      </trkpt>
      <trkpt lat="45.9159" lon="6.5127">
        <ele>2463.52</ele>
        <time>2019-04-05T11:31:09Z</time>
      </trkpt>
      <trkpt lat="45.91589" lon="6.51271">
        <ele>2463.52</ele>
        <time>2019-04-05T11:31:11Z</time>
      </trkpt>
      <trkpt lat="45.91589" lon="6.51269">
        <ele>2463.52</ele>
        <time>2019-04-05T11:32:07Z</time>
      </trkpt>
      <trkpt lat="45.9159" lon="6.51269">
        <ele>2460.63</ele>
        <time>2019-04-05T11:32:39Z</time>
      </trkpt>
      <trkpt lat="45.91589" lon="6.51271">
        <ele>2462.55</ele>
        <time>2019-04-05T11:32:46Z</time>
      </trkpt>
      <trkpt lat="45.91589" lon="6.51274">
        <ele>2461.59</ele>
        <time>2019-04-05T11:32:55Z</time>
      </trkpt>
      <trkpt lat="45.91591" lon="6.51276">
        <ele>2463.52</ele>
        <time>2019-04-05T11:33:11Z</time>
      </trkpt>
      <trkpt lat="45.91592" lon="6.51276">
        <ele>2463.52</ele>
        <time>2019-04-05T11:33:12Z</time>
      </trkpt>
      <trkpt lat="45.91589" lon="6.51274">
        <ele>2464.48</ele>
        <time>2019-04-05T11:33:29Z</time>
      </trkpt>
      <trkpt lat="45.91589" lon="6.51272">
        <ele>2464</ele>
        <time>2019-04-05T11:33:37Z</time>
      </trkpt>
      <trkpt lat="45.91588" lon="6.51272">
        <ele>2462.55</ele>
        <time>2019-04-05T11:34:03Z</time>
      </trkpt>
      <trkpt lat="45.91589" lon="6.51272">
        <ele>2463.52</ele>
        <time>2019-04-05T11:34:09Z</time>
      </trkpt>
      <trkpt lat="45.9159" lon="6.51271">
        <ele>2460.15</ele>
        <time>2019-04-05T11:34:33Z</time>
      </trkpt>
      <trkpt lat="45.91589" lon="6.51271">
        <ele>2463.04</ele>
        <time>2019-04-05T11:35:02Z</time>
      </trkpt>
      <trkpt lat="45.9159" lon="6.51271">
        <ele>2464.96</ele>
        <time>2019-04-05T11:35:26Z</time>
      </trkpt>
      <trkpt lat="45.9159" lon="6.5127">
        <ele>2463.04</ele>
        <time>2019-04-05T11:35:31Z</time>
      </trkpt>
      <trkpt lat="45.9159" lon="6.51268">
        <ele>2463.04</ele>
        <time>2019-04-05T11:36:07Z</time>
      </trkpt>
      <trkpt lat="45.9159" lon="6.51269">
        <ele>2464</ele>
        <time>2019-04-05T11:36:13Z</time>
      </trkpt>
      <trkpt lat="45.9159" lon="6.51269">
        <ele>2463.04</ele>
        <time>2019-04-05T11:36:21Z</time>
      </trkpt>
      <trkpt lat="45.91597" lon="6.51272">
        <ele>2460.63</ele>
        <time>2019-04-05T11:36:41Z</time>
      </trkpt>
      <trkpt lat="45.91599" lon="6.51273">
        <ele>2460.15</ele>
        <time>2019-04-05T11:36:42Z</time>
      </trkpt>
      <trkpt lat="45.91599" lon="6.51275">
        <ele>2459.67</ele>
        <time>2019-04-05T11:36:43Z</time>
      </trkpt>
      <trkpt lat="45.91601" lon="6.51273">
        <ele>2458.71</ele>
        <time>2019-04-05T11:36:45Z</time>
      </trkpt>
      <trkpt lat="45.91604" lon="6.51272">
        <ele>2457.75</ele>
        <time>2019-04-05T11:36:46Z</time>
      </trkpt>
      <trkpt lat="45.91604" lon="6.51272">
        <ele>2456.79</ele>
        <time>2019-04-05T11:36:47Z</time>
      </trkpt>
      <trkpt lat="45.91605" lon="6.51272">
        <ele>2456.31</ele>
        <time>2019-04-05T11:36:48Z</time>
      </trkpt>
      <trkpt lat="45.91604" lon="6.51272">
        <ele>2456.31</ele>
        <time>2019-04-05T11:36:49Z</time>
      </trkpt>
      <trkpt lat="45.91604" lon="6.51273">
        <ele>2455.82</ele>
        <time>2019-04-05T11:36:50Z</time>
      </trkpt>
      <trkpt lat="45.91606" lon="6.51272">
        <ele>2456.31</ele>
        <time>2019-04-05T11:36:53Z</time>
      </trkpt>
      <trkpt lat="45.91609" lon="6.5127">
        <ele>2455.82</ele>
        <time>2019-04-05T11:36:54Z</time>
      </trkpt>
      <trkpt lat="45.9161" lon="6.51269">
        <ele>2455.34</ele>
        <time>2019-04-05T11:36:55Z</time>
      </trkpt>
      <trkpt lat="45.91611" lon="6.51268">
        <ele>2454.86</ele>
        <time>2019-04-05T11:36:56Z</time>
      </trkpt>
      <trkpt lat="45.91611" lon="6.51267">
        <ele>2454.38</ele>
        <time>2019-04-05T11:36:57Z</time>
      </trkpt>
      <trkpt lat="45.91616" lon="6.51266">
        <ele>2451.98</ele>
        <time>2019-04-05T11:37:01Z</time>
      </trkpt>
      <trkpt lat="45.91617" lon="6.51264">
        <ele>2449.58</ele>
        <time>2019-04-05T11:37:05Z</time>
      </trkpt>
      <trkpt lat="45.91617" lon="6.51264">
        <ele>2448.62</ele>
        <time>2019-04-05T11:37:06Z</time>
      </trkpt>
      <trkpt lat="45.91618" lon="6.51263">
        <ele>2448.13</ele>
        <time>2019-04-05T11:37:07Z</time>
      </trkpt>
      <trkpt lat="45.91617" lon="6.51262">
        <ele>2447.17</ele>
        <time>2019-04-05T11:37:08Z</time>
      </trkpt>
      <trkpt lat="45.91618" lon="6.51261">
        <ele>2445.25</ele>
        <time>2019-04-05T11:37:12Z</time>
      </trkpt>
      <trkpt lat="45.91624" lon="6.51259">
        <ele>2443.81</ele>
        <time>2019-04-05T11:37:23Z</time>
      </trkpt>
      <trkpt lat="45.91625" lon="6.5126">
        <ele>2443.33</ele>
        <time>2019-04-05T11:37:24Z</time>
      </trkpt>
      <trkpt lat="45.91627" lon="6.5126">
        <ele>2442.85</ele>
        <time>2019-04-05T11:37:25Z</time>
      </trkpt>
      <trkpt lat="45.91629" lon="6.51259">
        <ele>2442.37</ele>
        <time>2019-04-05T11:37:26Z</time>
      </trkpt>
      <trkpt lat="45.91631" lon="6.51258">
        <ele>2440.92</ele>
        <time>2019-04-05T11:37:27Z</time>
      </trkpt>
      <trkpt lat="45.91638" lon="6.51257">
        <ele>2437.56</ele>
        <time>2019-04-05T11:37:30Z</time>
      </trkpt>
      <trkpt lat="45.91639" lon="6.51254">
        <ele>2436.6</ele>
        <time>2019-04-05T11:37:31Z</time>
      </trkpt>
      <trkpt lat="45.9164" lon="6.51255">
        <ele>2432.75</ele>
        <time>2019-04-05T11:37:34Z</time>
      </trkpt>
      <trkpt lat="45.91648" lon="6.51246">
        <ele>2432.27</ele>
        <time>2019-04-05T11:37:52Z</time>
      </trkpt>
      <trkpt lat="45.91652" lon="6.51246">
        <ele>2431.79</ele>
        <time>2019-04-05T11:37:53Z</time>
      </trkpt>
      <trkpt lat="45.91658" lon="6.51246">
        <ele>2429.87</ele>
        <time>2019-04-05T11:37:54Z</time>
      </trkpt>
      <trkpt lat="45.91662" lon="6.51242">
        <ele>2426.99</ele>
        <time>2019-04-05T11:37:55Z</time>
      </trkpt>
      <trkpt lat="45.91666" lon="6.51239">
        <ele>2424.58</ele>
        <time>2019-04-05T11:37:56Z</time>
      </trkpt>
      <trkpt lat="45.91668" lon="6.51235">
        <ele>2422.18</ele>
        <time>2019-04-05T11:37:57Z</time>
      </trkpt>
      <trkpt lat="45.91671" lon="6.51233">
        <ele>2420.26</ele>
        <time>2019-04-05T11:37:58Z</time>
      </trkpt>
      <trkpt lat="45.91674" lon="6.51231">
        <ele>2418.81</ele>
        <time>2019-04-05T11:37:59Z</time>
      </trkpt>
      <trkpt lat="45.91677" lon="6.51229">
        <ele>2418.33</ele>
        <time>2019-04-05T11:38:00Z</time>
      </trkpt>
      <trkpt lat="45.91688" lon="6.51223">
        <ele>2415.93</ele>
        <time>2019-04-05T11:38:02Z</time>
      </trkpt>
      <trkpt lat="45.91698" lon="6.51218">
        <ele>2413.05</ele>
        <time>2019-04-05T11:38:04Z</time>
      </trkpt>
      <trkpt lat="45.91714" lon="6.5121">
        <ele>2409.68</ele>
        <time>2019-04-05T11:38:07Z</time>
      </trkpt>
      <trkpt lat="45.91721" lon="6.51213">
        <ele>2408.24</ele>
        <time>2019-04-05T11:38:08Z</time>
      </trkpt>
      <trkpt lat="45.91728" lon="6.51218">
        <ele>2405.84</ele>
        <time>2019-04-05T11:38:09Z</time>
      </trkpt>
      <trkpt lat="45.91744" lon="6.51224">
        <ele>2400.07</ele>
        <time>2019-04-05T11:38:11Z</time>
      </trkpt>
      <trkpt lat="45.91752" lon="6.5123">
        <ele>2395.74</ele>
        <time>2019-04-05T11:38:12Z</time>
      </trkpt>
      <trkpt lat="45.91759" lon="6.51235">
        <ele>2391.42</ele>
        <time>2019-04-05T11:38:13Z</time>
      </trkpt>
      <trkpt lat="45.91767" lon="6.51241">
        <ele>2387.09</ele>
        <time>2019-04-05T11:38:14Z</time>
      </trkpt>
      <trkpt lat="45.91772" lon="6.5125">
        <ele>2381.8</ele>
        <time>2019-04-05T11:38:15Z</time>
      </trkpt>
      <trkpt lat="45.91779" lon="6.51257">
        <ele>2377</ele>
        <time>2019-04-05T11:38:16Z</time>
      </trkpt>
      <trkpt lat="45.91787" lon="6.51266">
        <ele>2373.15</ele>
        <time>2019-04-05T11:38:17Z</time>
      </trkpt>
      <trkpt lat="45.91796" lon="6.51276">
        <ele>2368.35</ele>
        <time>2019-04-05T11:38:18Z</time>
      </trkpt>
      <trkpt lat="45.91807" lon="6.51285">
        <ele>2363.54</ele>
        <time>2019-04-05T11:38:19Z</time>
      </trkpt>
      <trkpt lat="45.91816" lon="6.51295">
        <ele>2357.77</ele>
        <time>2019-04-05T11:38:20Z</time>
      </trkpt>
      <trkpt lat="45.91827" lon="6.51303">
        <ele>2351.04</ele>
        <time>2019-04-05T11:38:21Z</time>
      </trkpt>
      <trkpt lat="45.91838" lon="6.51312">
        <ele>2345.75</ele>
        <time>2019-04-05T11:38:22Z</time>
      </trkpt>
      <trkpt lat="45.91845" lon="6.5132">
        <ele>2337.1</ele>
        <time>2019-04-05T11:38:23Z</time>
      </trkpt>
      <trkpt lat="45.91847" lon="6.51328">
        <ele>2332.3</ele>
        <time>2019-04-05T11:38:24Z</time>
      </trkpt>
      <trkpt lat="45.9185" lon="6.51336">
        <ele>2327.97</ele>
        <time>2019-04-05T11:38:25Z</time>
      </trkpt>
      <trkpt lat="45.91856" lon="6.51343">
        <ele>2324.12</ele>
        <time>2019-04-05T11:38:26Z</time>
      </trkpt>
      <trkpt lat="45.91865" lon="6.5135">
        <ele>2319.32</ele>
        <time>2019-04-05T11:38:27Z</time>
      </trkpt>
      <trkpt lat="45.91874" lon="6.51359">
        <ele>2314.51</ele>
        <time>2019-04-05T11:38:28Z</time>
      </trkpt>
      <trkpt lat="45.91882" lon="6.51366">
        <ele>2309.7</ele>
        <time>2019-04-05T11:38:29Z</time>
      </trkpt>
      <trkpt lat="45.91891" lon="6.51373">
        <ele>2306.82</ele>
        <time>2019-04-05T11:38:30Z</time>
      </trkpt>
      <trkpt lat="45.91898" lon="6.5138">
        <ele>2300.57</ele>
        <time>2019-04-05T11:38:31Z</time>
      </trkpt>
      <trkpt lat="45.91907" lon="6.51386">
        <ele>2297.21</ele>
        <time>2019-04-05T11:38:32Z</time>
      </trkpt>
      <trkpt lat="45.91914" lon="6.51393">
        <ele>2293.36</ele>
        <time>2019-04-05T11:38:33Z</time>
      </trkpt>
      <trkpt lat="45.91921" lon="6.51401">
        <ele>2289.52</ele>
        <time>2019-04-05T11:38:34Z</time>
      </trkpt>
      <trkpt lat="45.91931" lon="6.51412">
        <ele>2284.71</ele>
        <time>2019-04-05T11:38:36Z</time>
      </trkpt>
      <trkpt lat="45.91934" lon="6.51417">
        <ele>2281.35</ele>
        <time>2019-04-05T11:38:39Z</time>
      </trkpt>
      <trkpt lat="45.91934" lon="6.51417">
        <ele>2280.38</ele>
        <time>2019-04-05T11:38:41Z</time>
      </trkpt>
      <trkpt lat="45.91933" lon="6.51419">
        <ele>2280.38</ele>
        <time>2019-04-05T11:38:53Z</time>
      </trkpt>
      <trkpt lat="45.91934" lon="6.51419">
        <ele>2279.9</ele>
        <time>2019-04-05T11:38:54Z</time>
      </trkpt>
      <trkpt lat="45.91936" lon="6.5142">
        <ele>2279.42</ele>
        <time>2019-04-05T11:38:55Z</time>
      </trkpt>
      <trkpt lat="45.91939" lon="6.51421">
        <ele>2278.94</ele>
        <time>2019-04-05T11:38:56Z</time>
      </trkpt>
      <trkpt lat="45.91943" lon="6.51421">
        <ele>2277.98</ele>
        <time>2019-04-05T11:38:57Z</time>
      </trkpt>
      <trkpt lat="45.91948" lon="6.51419">
        <ele>2277.5</ele>
        <time>2019-04-05T11:38:58Z</time>
      </trkpt>
      <trkpt lat="45.91954" lon="6.51417">
        <ele>2275.1</ele>
        <time>2019-04-05T11:38:59Z</time>
      </trkpt>
      <trkpt lat="45.91961" lon="6.51416">
        <ele>2272.69</ele>
        <time>2019-04-05T11:39:00Z</time>
      </trkpt>
      <trkpt lat="45.91966" lon="6.51418">
        <ele>2270.29</ele>
        <time>2019-04-05T11:39:01Z</time>
      </trkpt>
      <trkpt lat="45.91971" lon="6.51421">
        <ele>2268.37</ele>
        <time>2019-04-05T11:39:02Z</time>
      </trkpt>
      <trkpt lat="45.91976" lon="6.51424">
        <ele>2266.93</ele>
        <time>2019-04-05T11:39:03Z</time>
      </trkpt>
      <trkpt lat="45.9198" lon="6.51426">
        <ele>2265</ele>
        <time>2019-04-05T11:39:04Z</time>
      </trkpt>
      <trkpt lat="45.91985" lon="6.51428">
        <ele>2264.04</ele>
        <time>2019-04-05T11:39:05Z</time>
      </trkpt>
      <trkpt lat="45.91992" lon="6.51427">
        <ele>2262.12</ele>
        <time>2019-04-05T11:39:06Z</time>
      </trkpt>
      <trkpt lat="45.92001" lon="6.51425">
        <ele>2260.2</ele>
        <time>2019-04-05T11:39:07Z</time>
      </trkpt>
      <trkpt lat="45.9201" lon="6.51423">
        <ele>2256.35</ele>
        <time>2019-04-05T11:39:08Z</time>
      </trkpt>
      <trkpt lat="45.92019" lon="6.51423">
        <ele>2252.03</ele>
        <time>2019-04-05T11:39:09Z</time>
      </trkpt>
      <trkpt lat="45.92025" lon="6.51417">
        <ele>2248.66</ele>
        <time>2019-04-05T11:39:10Z</time>
      </trkpt>
      <trkpt lat="45.92034" lon="6.51412">
        <ele>2244.33</ele>
        <time>2019-04-05T11:39:11Z</time>
      </trkpt>
      <trkpt lat="45.92044" lon="6.51408">
        <ele>2240.97</ele>
        <time>2019-04-05T11:39:12Z</time>
      </trkpt>
      <trkpt lat="45.92057" lon="6.514">
        <ele>2233.76</ele>
        <time>2019-04-05T11:39:13Z</time>
      </trkpt>
      <trkpt lat="45.92028" lon="6.51375">
        <ele>2227.51</ele>
        <time>2019-04-05T11:39:14Z</time>
      </trkpt>
      <trkpt lat="45.92014" lon="6.51343">
        <ele>2220.3</ele>
        <time>2019-04-05T11:39:15Z</time>
      </trkpt>
      <trkpt lat="45.92008" lon="6.51309">
        <ele>2211.17</ele>
        <time>2019-04-05T11:39:16Z</time>
      </trkpt>
      <trkpt lat="45.92005" lon="6.51281">
        <ele>2202.52</ele>
        <time>2019-04-05T11:39:17Z</time>
      </trkpt>
      <trkpt lat="45.92005" lon="6.51257">
        <ele>2195.31</ele>
        <time>2019-04-05T11:39:18Z</time>
      </trkpt>
      <trkpt lat="45.92008" lon="6.51236">
        <ele>2188.58</ele>
        <time>2019-04-05T11:39:19Z</time>
      </trkpt>
      <trkpt lat="45.92015" lon="6.51223">
        <ele>2182.33</ele>
        <time>2019-04-05T11:39:20Z</time>
      </trkpt>
      <trkpt lat="45.92023" lon="6.51212">
        <ele>2178.97</ele>
        <time>2019-04-05T11:39:21Z</time>
      </trkpt>
      <trkpt lat="45.92029" lon="6.512">
        <ele>2175.12</ele>
        <time>2019-04-05T11:39:22Z</time>
      </trkpt>
      <trkpt lat="45.92035" lon="6.5119">
        <ele>2171.76</ele>
        <time>2019-04-05T11:39:23Z</time>
      </trkpt>
      <trkpt lat="45.92041" lon="6.51177">
        <ele>2167.91</ele>
        <time>2019-04-05T11:39:25Z</time>
      </trkpt>
      <trkpt lat="45.92043" lon="6.51177">
        <ele>2166.95</ele>
        <time>2019-04-05T11:39:26Z</time>
      </trkpt>
      <trkpt lat="45.92042" lon="6.51179">
        <ele>2165.99</ele>
        <time>2019-04-05T11:39:27Z</time>
      </trkpt>
      <trkpt lat="45.92041" lon="6.51177">
        <ele>2165.99</ele>
        <time>2019-04-05T11:39:28Z</time>
      </trkpt>
      <trkpt lat="45.92041" lon="6.51179">
        <ele>2165.99</ele>
        <time>2019-04-05T11:39:29Z</time>
      </trkpt>
      <trkpt lat="45.92037" lon="6.51197">
        <ele>2166.47</ele>
        <time>2019-04-05T11:39:36Z</time>
      </trkpt>
      <trkpt lat="45.92035" lon="6.51201">
        <ele>2165.99</ele>
        <time>2019-04-05T11:39:37Z</time>
      </trkpt>
      <trkpt lat="45.92034" lon="6.51202">
        <ele>2165.99</ele>
        <time>2019-04-05T11:39:38Z</time>
      </trkpt>
      <trkpt lat="45.92033" lon="6.51204">
        <ele>2166.47</ele>
        <time>2019-04-05T11:39:39Z</time>
      </trkpt>
      <trkpt lat="45.92032" lon="6.51203">
        <ele>2166.47</ele>
        <time>2019-04-05T11:39:40Z</time>
      </trkpt>
      <trkpt lat="45.92037" lon="6.51213">
        <ele>2166.95</ele>
        <time>2019-04-05T11:39:55Z</time>
      </trkpt>
      <trkpt lat="45.92028" lon="6.51194">
        <ele>2168.39</ele>
        <time>2019-04-05T11:40:24Z</time>
      </trkpt>
      <trkpt lat="45.9203" lon="6.51182">
        <ele>2168.39</ele>
        <time>2019-04-05T11:40:39Z</time>
      </trkpt>
      <trkpt lat="45.92031" lon="6.51177">
        <ele>2167.91</ele>
        <time>2019-04-05T11:40:42Z</time>
      </trkpt>
      <trkpt lat="45.92032" lon="6.51176">
        <ele>2167.91</ele>
        <time>2019-04-05T11:40:43Z</time>
      </trkpt>
      <trkpt lat="45.92031" lon="6.51175">
        <ele>2167.43</ele>
        <time>2019-04-05T11:40:44Z</time>
      </trkpt>
      <trkpt lat="45.92031" lon="6.51173">
        <ele>2167.43</ele>
        <time>2019-04-05T11:40:45Z</time>
      </trkpt>
      <trkpt lat="45.92031" lon="6.51171">
        <ele>2167.43</ele>
        <time>2019-04-05T11:40:46Z</time>
      </trkpt>
      <trkpt lat="45.92031" lon="6.5117">
        <ele>2167.43</ele>
        <time>2019-04-05T11:40:47Z</time>
      </trkpt>
      <trkpt lat="45.92042" lon="6.51128">
        <ele>2164.55</ele>
        <time>2019-04-05T11:41:04Z</time>
      </trkpt>
      <trkpt lat="45.92044" lon="6.51127">
        <ele>2164.06</ele>
        <time>2019-04-05T11:41:05Z</time>
      </trkpt>
      <trkpt lat="45.92058" lon="6.51125">
        <ele>2161.18</ele>
        <time>2019-04-05T11:41:14Z</time>
      </trkpt>
      <trkpt lat="45.92065" lon="6.51119">
        <ele>2159.74</ele>
        <time>2019-04-05T11:41:16Z</time>
      </trkpt>
      <trkpt lat="45.92073" lon="6.5111">
        <ele>2156.37</ele>
        <time>2019-04-05T11:41:18Z</time>
      </trkpt>
      <trkpt lat="45.92083" lon="6.51103">
        <ele>2151.09</ele>
        <time>2019-04-05T11:41:20Z</time>
      </trkpt>
      <trkpt lat="45.92092" lon="6.51102">
        <ele>2149.65</ele>
        <time>2019-04-05T11:41:21Z</time>
      </trkpt>
      <trkpt lat="45.921" lon="6.51101">
        <ele>2145.32</ele>
        <time>2019-04-05T11:41:22Z</time>
      </trkpt>
      <trkpt lat="45.92106" lon="6.51101">
        <ele>2141.95</ele>
        <time>2019-04-05T11:41:23Z</time>
      </trkpt>
      <trkpt lat="45.92114" lon="6.51098">
        <ele>2140.03</ele>
        <time>2019-04-05T11:41:24Z</time>
      </trkpt>
      <trkpt lat="45.92122" lon="6.51096">
        <ele>2135.71</ele>
        <time>2019-04-05T11:41:25Z</time>
      </trkpt>
      <trkpt lat="45.92132" lon="6.51092">
        <ele>2131.86</ele>
        <time>2019-04-05T11:41:26Z</time>
      </trkpt>
      <trkpt lat="45.92144" lon="6.51088">
        <ele>2128.02</ele>
        <time>2019-04-05T11:41:27Z</time>
      </trkpt>
      <trkpt lat="45.92153" lon="6.51086">
        <ele>2121.77</ele>
        <time>2019-04-05T11:41:28Z</time>
      </trkpt>
      <trkpt lat="45.92161" lon="6.51086">
        <ele>2116.96</ele>
        <time>2019-04-05T11:41:29Z</time>
      </trkpt>
      <trkpt lat="45.9217" lon="6.51085">
        <ele>2114.08</ele>
        <time>2019-04-05T11:41:30Z</time>
      </trkpt>
      <trkpt lat="45.92179" lon="6.51083">
        <ele>2110.71</ele>
        <time>2019-04-05T11:41:31Z</time>
      </trkpt>
      <trkpt lat="45.92188" lon="6.51079">
        <ele>2107.83</ele>
        <time>2019-04-05T11:41:32Z</time>
      </trkpt>
      <trkpt lat="45.92196" lon="6.51076">
        <ele>2103.5</ele>
        <time>2019-04-05T11:41:33Z</time>
      </trkpt>
      <trkpt lat="45.92205" lon="6.51075">
        <ele>2100.62</ele>
        <time>2019-04-05T11:41:34Z</time>
      </trkpt>
      <trkpt lat="45.92213" lon="6.51076">
        <ele>2097.25</ele>
        <time>2019-04-05T11:41:35Z</time>
      </trkpt>
      <trkpt lat="45.92222" lon="6.51076">
        <ele>2094.37</ele>
        <time>2019-04-05T11:41:36Z</time>
      </trkpt>
      <trkpt lat="45.92229" lon="6.51075">
        <ele>2091.97</ele>
        <time>2019-04-05T11:41:37Z</time>
      </trkpt>
      <trkpt lat="45.92229" lon="6.51072">
        <ele>2088.6</ele>
        <time>2019-04-05T11:41:38Z</time>
      </trkpt>
      <trkpt lat="45.92224" lon="6.51066">
        <ele>2082.83</ele>
        <time>2019-04-05T11:41:40Z</time>
      </trkpt>
      <trkpt lat="45.9222" lon="6.51065">
        <ele>2081.39</ele>
        <time>2019-04-05T11:41:41Z</time>
      </trkpt>
      <trkpt lat="45.92222" lon="6.51066">
        <ele>2078.99</ele>
        <time>2019-04-05T11:41:42Z</time>
      </trkpt>
      <trkpt lat="45.92219" lon="6.51066">
        <ele>2077.07</ele>
        <time>2019-04-05T11:41:43Z</time>
      </trkpt>
      <trkpt lat="45.92219" lon="6.51063">
        <ele>2076.59</ele>
        <time>2019-04-05T11:41:44Z</time>
      </trkpt>
      <trkpt lat="45.92218" lon="6.51058">
        <ele>2075.14</ele>
        <time>2019-04-05T11:41:45Z</time>
      </trkpt>
      <trkpt lat="45.92217" lon="6.51049">
        <ele>2073.22</ele>
        <time>2019-04-05T11:41:46Z</time>
      </trkpt>
      <trkpt lat="45.92221" lon="6.51037">
        <ele>2070.82</ele>
        <time>2019-04-05T11:41:47Z</time>
      </trkpt>
      <trkpt lat="45.9222" lon="6.51027">
        <ele>2068.89</ele>
        <time>2019-04-05T11:41:48Z</time>
      </trkpt>
      <trkpt lat="45.92224" lon="6.51017">
        <ele>2063.61</ele>
        <time>2019-04-05T11:41:49Z</time>
      </trkpt>
      <trkpt lat="45.92226" lon="6.51007">
        <ele>2059.28</ele>
        <time>2019-04-05T11:41:50Z</time>
      </trkpt>
      <trkpt lat="45.92231" lon="6.51001">
        <ele>2054.47</ele>
        <time>2019-04-05T11:41:51Z</time>
      </trkpt>
      <trkpt lat="45.92235" lon="6.50996">
        <ele>2050.15</ele>
        <time>2019-04-05T11:41:52Z</time>
      </trkpt>
      <trkpt lat="45.92238" lon="6.50991">
        <ele>2045.82</ele>
        <time>2019-04-05T11:41:53Z</time>
      </trkpt>
      <trkpt lat="45.9224" lon="6.50988">
        <ele>2042.94</ele>
        <time>2019-04-05T11:41:54Z</time>
      </trkpt>
      <trkpt lat="45.92245" lon="6.50982">
        <ele>2040.05</ele>
        <time>2019-04-05T11:41:55Z</time>
      </trkpt>
      <trkpt lat="45.92251" lon="6.50974">
        <ele>2038.13</ele>
        <time>2019-04-05T11:41:56Z</time>
      </trkpt>
      <trkpt lat="45.92256" lon="6.50966">
        <ele>2033.33</ele>
        <time>2019-04-05T11:41:57Z</time>
      </trkpt>
      <trkpt lat="45.92261" lon="6.50955">
        <ele>2027.56</ele>
        <time>2019-04-05T11:41:58Z</time>
      </trkpt>
      <trkpt lat="45.92266" lon="6.50946">
        <ele>2021.79</ele>
        <time>2019-04-05T11:41:59Z</time>
      </trkpt>
      <trkpt lat="45.92271" lon="6.50937">
        <ele>2016.02</ele>
        <time>2019-04-05T11:42:00Z</time>
      </trkpt>
      <trkpt lat="45.92275" lon="6.5093">
        <ele>2012.66</ele>
        <time>2019-04-05T11:42:01Z</time>
      </trkpt>
      <trkpt lat="45.9228" lon="6.50923">
        <ele>2008.33</ele>
        <time>2019-04-05T11:42:02Z</time>
      </trkpt>
      <trkpt lat="45.92286" lon="6.50918">
        <ele>2005.45</ele>
        <time>2019-04-05T11:42:03Z</time>
      </trkpt>
      <trkpt lat="45.92291" lon="6.50912">
        <ele>2001.6</ele>
        <time>2019-04-05T11:42:04Z</time>
      </trkpt>
      <trkpt lat="45.92296" lon="6.50911">
        <ele>1999.68</ele>
        <time>2019-04-05T11:42:05Z</time>
      </trkpt>
      <trkpt lat="45.92299" lon="6.50905">
        <ele>1995.35</ele>
        <time>2019-04-05T11:42:06Z</time>
      </trkpt>
      <trkpt lat="45.92309" lon="6.50895">
        <ele>1988.62</ele>
        <time>2019-04-05T11:42:08Z</time>
      </trkpt>
      <trkpt lat="45.92314" lon="6.50894">
        <ele>1985.74</ele>
        <time>2019-04-05T11:42:09Z</time>
      </trkpt>
      <trkpt lat="45.92319" lon="6.50893">
        <ele>1983.82</ele>
        <time>2019-04-05T11:42:10Z</time>
      </trkpt>
      <trkpt lat="45.92329" lon="6.50891">
        <ele>1980.45</ele>
        <time>2019-04-05T11:42:12Z</time>
      </trkpt>
      <trkpt lat="45.9234" lon="6.50883">
        <ele>1976.61</ele>
        <time>2019-04-05T11:42:14Z</time>
      </trkpt>
      <trkpt lat="45.9235" lon="6.50879">
        <ele>1971.32</ele>
        <time>2019-04-05T11:42:16Z</time>
      </trkpt>
      <trkpt lat="45.92358" lon="6.5087">
        <ele>1966.51</ele>
        <time>2019-04-05T11:42:18Z</time>
      </trkpt>
      <trkpt lat="45.92366" lon="6.50866">
        <ele>1962.19</ele>
        <time>2019-04-05T11:42:20Z</time>
      </trkpt>
      <trkpt lat="45.92367" lon="6.50864">
        <ele>1959.3</ele>
        <time>2019-04-05T11:42:23Z</time>
      </trkpt>
      <trkpt lat="45.92368" lon="6.50867">
        <ele>1959.3</ele>
        <time>2019-04-05T11:42:27Z</time>
      </trkpt>
      <trkpt lat="45.92368" lon="6.50869">
        <ele>1959.3</ele>
        <time>2019-04-05T11:42:28Z</time>
      </trkpt>
      <trkpt lat="45.92363" lon="6.50878">
        <ele>1958.82</ele>
        <time>2019-04-05T11:43:16Z</time>
      </trkpt>
      <trkpt lat="45.92361" lon="6.50879">
        <ele>1958.82</ele>
        <time>2019-04-05T11:43:53Z</time>
      </trkpt>
      <trkpt lat="45.92358" lon="6.50881">
        <ele>1958.82</ele>
        <time>2019-04-05T11:44:40Z</time>
      </trkpt>
      <trkpt lat="45.92354" lon="6.50885">
        <ele>1958.82</ele>
        <time>2019-04-05T11:45:16Z</time>
      </trkpt>
      <trkpt lat="45.92353" lon="6.50886">
        <ele>1958.82</ele>
        <time>2019-04-05T11:46:02Z</time>
      </trkpt>
      <trkpt lat="45.92353" lon="6.50884">
        <ele>1959.3</ele>
        <time>2019-04-05T11:46:39Z</time>
      </trkpt>
      <trkpt lat="45.92352" lon="6.50887">
        <ele>1958.82</ele>
        <time>2019-04-05T11:46:45Z</time>
      </trkpt>
      <trkpt lat="45.92352" lon="6.50889">
        <ele>1958.82</ele>
        <time>2019-04-05T11:47:19Z</time>
      </trkpt>
      <trkpt lat="45.92353" lon="6.50883">
        <ele>1958.82</ele>
        <time>2019-04-05T11:47:57Z</time>
      </trkpt>
      <trkpt lat="45.92352" lon="6.50883">
        <ele>1958.34</ele>
        <time>2019-04-05T11:49:19Z</time>
      </trkpt>
      <trkpt lat="45.92352" lon="6.50884">
        <ele>1958.82</ele>
        <time>2019-04-05T11:50:54Z</time>
      </trkpt>
      <trkpt lat="45.92362" lon="6.5088">
        <ele>1961.23</ele>
        <time>2019-04-05T11:51:33Z</time>
      </trkpt>
      <trkpt lat="45.92368" lon="6.5089">
        <ele>1963.63</ele>
        <time>2019-04-05T11:51:49Z</time>
      </trkpt>
      <trkpt lat="45.92367" lon="6.50915">
        <ele>1966.99</ele>
        <time>2019-04-05T11:52:12Z</time>
      </trkpt>
      <trkpt lat="45.92367" lon="6.5092">
        <ele>1967.48</ele>
        <time>2019-04-05T11:52:17Z</time>
      </trkpt>
      <trkpt lat="45.92365" lon="6.50925">
        <ele>1968.44</ele>
        <time>2019-04-05T11:52:23Z</time>
      </trkpt>
      <trkpt lat="45.9237" lon="6.50934">
        <ele>1971.8</ele>
        <time>2019-04-05T11:52:39Z</time>
      </trkpt>
      <trkpt lat="45.92383" lon="6.50944">
        <ele>1974.69</ele>
        <time>2019-04-05T11:53:00Z</time>
      </trkpt>
      <trkpt lat="45.92386" lon="6.50948">
        <ele>1975.65</ele>
        <time>2019-04-05T11:53:05Z</time>
      </trkpt>
      <trkpt lat="45.92391" lon="6.50956">
        <ele>1977.57</ele>
        <time>2019-04-05T11:53:18Z</time>
      </trkpt>
      <trkpt lat="45.92386" lon="6.50966">
        <ele>1979.97</ele>
        <time>2019-04-05T11:53:32Z</time>
      </trkpt>
      <trkpt lat="45.92385" lon="6.5097">
        <ele>1980.93</ele>
        <time>2019-04-05T11:53:36Z</time>
      </trkpt>
      <trkpt lat="45.92385" lon="6.50971">
        <ele>1981.41</ele>
        <time>2019-04-05T11:53:37Z</time>
      </trkpt>
      <trkpt lat="45.9238" lon="6.5098">
        <ele>1983.82</ele>
        <time>2019-04-05T11:53:51Z</time>
      </trkpt>
      <trkpt lat="45.92377" lon="6.5099">
        <ele>1986.7</ele>
        <time>2019-04-05T11:54:07Z</time>
      </trkpt>
      <trkpt lat="45.92388" lon="6.50993">
        <ele>1989.59</ele>
        <time>2019-04-05T11:54:30Z</time>
      </trkpt>
      <trkpt lat="45.92394" lon="6.50998">
        <ele>1991.99</ele>
        <time>2019-04-05T11:54:42Z</time>
      </trkpt>
      <trkpt lat="45.92399" lon="6.51005">
        <ele>1995.35</ele>
        <time>2019-04-05T11:55:01Z</time>
      </trkpt>
      <trkpt lat="45.92398" lon="6.51007">
        <ele>1995.35</ele>
        <time>2019-04-05T11:55:03Z</time>
      </trkpt>
      <trkpt lat="45.92398" lon="6.51008">
        <ele>1995.83</ele>
        <time>2019-04-05T11:55:05Z</time>
      </trkpt>
      <trkpt lat="45.92396" lon="6.5101">
        <ele>1996.32</ele>
        <time>2019-04-05T11:55:07Z</time>
      </trkpt>
      <trkpt lat="45.92393" lon="6.51016">
        <ele>1997.76</ele>
        <time>2019-04-05T11:55:16Z</time>
      </trkpt>
      <trkpt lat="45.92387" lon="6.51026">
        <ele>2000.64</ele>
        <time>2019-04-05T11:55:32Z</time>
      </trkpt>
      <trkpt lat="45.92378" lon="6.51029">
        <ele>2002.56</ele>
        <time>2019-04-05T11:55:45Z</time>
      </trkpt>
      <trkpt lat="45.92378" lon="6.51031">
        <ele>2003.04</ele>
        <time>2019-04-05T11:55:47Z</time>
      </trkpt>
      <trkpt lat="45.92377" lon="6.51033">
        <ele>2005.93</ele>
        <time>2019-04-05T11:56:07Z</time>
      </trkpt>
      <trkpt lat="45.92385" lon="6.51039">
        <ele>2007.37</ele>
        <time>2019-04-05T11:56:20Z</time>
      </trkpt>
      <trkpt lat="45.92397" lon="6.51043">
        <ele>2010.73</ele>
        <time>2019-04-05T11:56:39Z</time>
      </trkpt>
      <trkpt lat="45.92398" lon="6.51043">
        <ele>2010.73</ele>
        <time>2019-04-05T11:56:40Z</time>
      </trkpt>
      <trkpt lat="45.924" lon="6.51049">
        <ele>2012.18</ele>
        <time>2019-04-05T11:56:52Z</time>
      </trkpt>
      <trkpt lat="45.92399" lon="6.51055">
        <ele>2014.1</ele>
        <time>2019-04-05T11:56:59Z</time>
      </trkpt>
      <trkpt lat="45.92396" lon="6.51058">
        <ele>2014.58</ele>
        <time>2019-04-05T11:57:03Z</time>
      </trkpt>
      <trkpt lat="45.92395" lon="6.51059">
        <ele>2014.58</ele>
        <time>2019-04-05T11:57:04Z</time>
      </trkpt>
      <trkpt lat="45.92394" lon="6.5106">
        <ele>2015.06</ele>
        <time>2019-04-05T11:57:05Z</time>
      </trkpt>
      <trkpt lat="45.92394" lon="6.51061">
        <ele>2015.54</ele>
        <time>2019-04-05T11:57:06Z</time>
      </trkpt>
      <trkpt lat="45.92392" lon="6.51061">
        <ele>2015.54</ele>
        <time>2019-04-05T11:57:07Z</time>
      </trkpt>
      <trkpt lat="45.92385" lon="6.51063">
        <ele>2016.5</ele>
        <time>2019-04-05T11:57:17Z</time>
      </trkpt>
      <trkpt lat="45.92385" lon="6.51063">
        <ele>2016.5</ele>
        <time>2019-04-05T11:57:18Z</time>
      </trkpt>
      <trkpt lat="45.92384" lon="6.51063">
        <ele>2016.98</ele>
        <time>2019-04-05T11:57:19Z</time>
      </trkpt>
      <trkpt lat="45.9239" lon="6.51069">
        <ele>2019.87</ele>
        <time>2019-04-05T11:57:43Z</time>
      </trkpt>
      <trkpt lat="45.92399" lon="6.51072">
        <ele>2022.75</ele>
        <time>2019-04-05T11:57:58Z</time>
      </trkpt>
      <trkpt lat="45.92406" lon="6.51073">
        <ele>2024.19</ele>
        <time>2019-04-05T11:58:08Z</time>
      </trkpt>
      <trkpt lat="45.92417" lon="6.5107">
        <ele>2027.56</ele>
        <time>2019-04-05T11:58:24Z</time>
      </trkpt>
      <trkpt lat="45.92415" lon="6.51079">
        <ele>2030.44</ele>
        <time>2019-04-05T11:58:44Z</time>
      </trkpt>
      <trkpt lat="45.92415" lon="6.5108">
        <ele>2030.44</ele>
        <time>2019-04-05T11:58:45Z</time>
      </trkpt>
      <trkpt lat="45.92412" lon="6.51088">
        <ele>2032.84</ele>
        <time>2019-04-05T11:58:57Z</time>
      </trkpt>
      <trkpt lat="45.92411" lon="6.5109">
        <ele>2033.81</ele>
        <time>2019-04-05T11:59:00Z</time>
      </trkpt>
      <trkpt lat="45.92405" lon="6.51097">
        <ele>2035.73</ele>
        <time>2019-04-05T11:59:19Z</time>
      </trkpt>
      <trkpt lat="45.9242" lon="6.51094">
        <ele>2038.61</ele>
        <time>2019-04-05T11:59:45Z</time>
      </trkpt>
      <trkpt lat="45.92422" lon="6.51101">
        <ele>2041.98</ele>
        <time>2019-04-05T12:00:04Z</time>
      </trkpt>
      <trkpt lat="45.92422" lon="6.51107">
        <ele>2044.86</ele>
        <time>2019-04-05T12:00:25Z</time>
      </trkpt>
      <trkpt lat="45.9243" lon="6.51107">
        <ele>2047.26</ele>
        <time>2019-04-05T12:00:39Z</time>
      </trkpt>
      <trkpt lat="45.92425" lon="6.51117">
        <ele>2050.15</ele>
        <time>2019-04-05T12:00:59Z</time>
      </trkpt>
      <trkpt lat="45.9242" lon="6.5112">
        <ele>2051.59</ele>
        <time>2019-04-05T12:01:05Z</time>
      </trkpt>
      <trkpt lat="45.92417" lon="6.51121">
        <ele>2052.55</ele>
        <time>2019-04-05T12:01:14Z</time>
      </trkpt>
      <trkpt lat="45.92428" lon="6.51121">
        <ele>2055.44</ele>
        <time>2019-04-05T12:01:29Z</time>
      </trkpt>
      <trkpt lat="45.92443" lon="6.5112">
        <ele>2058.32</ele>
        <time>2019-04-05T12:01:48Z</time>
      </trkpt>
      <trkpt lat="45.9245" lon="6.51123">
        <ele>2059.76</ele>
        <time>2019-04-05T12:02:02Z</time>
      </trkpt>
      <trkpt lat="45.92449" lon="6.51124">
        <ele>2059.76</ele>
        <time>2019-04-05T12:02:03Z</time>
      </trkpt>
      <trkpt lat="45.92447" lon="6.51128">
        <ele>2061.2</ele>
        <time>2019-04-05T12:02:10Z</time>
      </trkpt>
      <trkpt lat="45.9244" lon="6.51138">
        <ele>2064.57</ele>
        <time>2019-04-05T12:02:34Z</time>
      </trkpt>
      <trkpt lat="45.92437" lon="6.51142">
        <ele>2066.49</ele>
        <time>2019-04-05T12:02:57Z</time>
      </trkpt>
      <trkpt lat="45.92443" lon="6.51141">
        <ele>2067.45</ele>
        <time>2019-04-05T12:03:04Z</time>
      </trkpt>
      <trkpt lat="45.92461" lon="6.51143">
        <ele>2070.82</ele>
        <time>2019-04-05T12:03:28Z</time>
      </trkpt>
      <trkpt lat="45.92461" lon="6.5115">
        <ele>2072.74</ele>
        <time>2019-04-05T12:03:47Z</time>
      </trkpt>
      <trkpt lat="45.92462" lon="6.51155">
        <ele>2076.1</ele>
        <time>2019-04-05T12:04:12Z</time>
      </trkpt>
      <trkpt lat="45.92461" lon="6.51161">
        <ele>2078.99</ele>
        <time>2019-04-05T12:04:36Z</time>
      </trkpt>
      <trkpt lat="45.9246" lon="6.5117">
        <ele>2081.87</ele>
        <time>2019-04-05T12:04:54Z</time>
      </trkpt>
      <trkpt lat="45.92462" lon="6.51171">
        <ele>2082.83</ele>
        <time>2019-04-05T12:04:59Z</time>
      </trkpt>
      <trkpt lat="45.9247" lon="6.51173">
        <ele>2085.24</ele>
        <time>2019-04-05T12:05:16Z</time>
      </trkpt>
      <trkpt lat="45.92463" lon="6.51182">
        <ele>2088.12</ele>
        <time>2019-04-05T12:05:37Z</time>
      </trkpt>
      <trkpt lat="45.92462" lon="6.51184">
        <ele>2089.08</ele>
        <time>2019-04-05T12:05:44Z</time>
      </trkpt>
      <trkpt lat="45.92463" lon="6.51184">
        <ele>2089.08</ele>
        <time>2019-04-05T12:05:48Z</time>
      </trkpt>
      <trkpt lat="45.92464" lon="6.51183">
        <ele>2089.56</ele>
        <time>2019-04-05T12:05:49Z</time>
      </trkpt>
      <trkpt lat="45.92466" lon="6.51184">
        <ele>2090.04</ele>
        <time>2019-04-05T12:05:55Z</time>
      </trkpt>
      <trkpt lat="45.92475" lon="6.5119">
        <ele>2092.93</ele>
        <time>2019-04-05T12:06:21Z</time>
      </trkpt>
      <trkpt lat="45.92474" lon="6.51198">
        <ele>2096.29</ele>
        <time>2019-04-05T12:06:38Z</time>
      </trkpt>
      <trkpt lat="45.92475" lon="6.51198">
        <ele>2096.77</ele>
        <time>2019-04-05T12:06:43Z</time>
      </trkpt>
      <trkpt lat="45.92476" lon="6.512">
        <ele>2098.7</ele>
        <time>2019-04-05T12:06:59Z</time>
      </trkpt>
      <trkpt lat="45.92477" lon="6.512">
        <ele>2098.7</ele>
        <time>2019-04-05T12:07:00Z</time>
      </trkpt>
      <trkpt lat="45.92443" lon="6.51182">
        <ele>2100.62</ele>
        <time>2019-04-05T12:07:12Z</time>
      </trkpt>
      <trkpt lat="45.92462" lon="6.51201">
        <ele>2101.58</ele>
        <time>2019-04-05T12:07:23Z</time>
      </trkpt>
      <trkpt lat="45.92466" lon="6.51201">
        <ele>2102.06</ele>
        <time>2019-04-05T12:07:26Z</time>
      </trkpt>
      <trkpt lat="45.92473" lon="6.51204">
        <ele>2102.06</ele>
        <time>2019-04-05T12:07:28Z</time>
      </trkpt>
      <trkpt lat="45.92476" lon="6.51206">
        <ele>2103.02</ele>
        <time>2019-04-05T12:07:32Z</time>
      </trkpt>
      <trkpt lat="45.92482" lon="6.51214">
        <ele>2106.39</ele>
        <time>2019-04-05T12:07:43Z</time>
      </trkpt>
      <trkpt lat="45.92493" lon="6.51217">
        <ele>2109.27</ele>
        <time>2019-04-05T12:08:03Z</time>
      </trkpt>
      <trkpt lat="45.92493" lon="6.5123">
        <ele>2112.63</ele>
        <time>2019-04-05T12:08:28Z</time>
      </trkpt>
      <trkpt lat="45.92494" lon="6.51231">
        <ele>2115.52</ele>
        <time>2019-04-05T12:08:48Z</time>
      </trkpt>
      <trkpt lat="45.92494" lon="6.51236">
        <ele>2117.92</ele>
        <time>2019-04-05T12:09:01Z</time>
      </trkpt>
      <trkpt lat="45.92496" lon="6.51242">
        <ele>2120.81</ele>
        <time>2019-04-05T12:09:22Z</time>
      </trkpt>
      <trkpt lat="45.92501" lon="6.51246">
        <ele>2124.17</ele>
        <time>2019-04-05T12:09:41Z</time>
      </trkpt>
      <trkpt lat="45.92498" lon="6.51252">
        <ele>2127.53</ele>
        <time>2019-04-05T12:10:02Z</time>
      </trkpt>
      <trkpt lat="45.92488" lon="6.51253">
        <ele>2128.02</ele>
        <time>2019-04-05T12:10:08Z</time>
      </trkpt>
      <trkpt lat="45.92486" lon="6.51253">
        <ele>2128.02</ele>
        <time>2019-04-05T12:10:09Z</time>
      </trkpt>
      <trkpt lat="45.92476" lon="6.51245">
        <ele>2128.98</ele>
        <time>2019-04-05T12:10:20Z</time>
      </trkpt>
      <trkpt lat="45.92479" lon="6.51249">
        <ele>2132.34</ele>
        <time>2019-04-05T12:10:36Z</time>
      </trkpt>
      <trkpt lat="45.92478" lon="6.51251">
        <ele>2133.3</ele>
        <time>2019-04-05T12:10:41Z</time>
      </trkpt>
      <trkpt lat="45.92479" lon="6.5125">
        <ele>2135.23</ele>
        <time>2019-04-05T12:10:54Z</time>
      </trkpt>
      <trkpt lat="45.92482" lon="6.51255">
        <ele>2137.63</ele>
        <time>2019-04-05T12:11:12Z</time>
      </trkpt>
      <trkpt lat="45.92479" lon="6.51261">
        <ele>2140.03</ele>
        <time>2019-04-05T12:11:25Z</time>
      </trkpt>
      <trkpt lat="45.92485" lon="6.51262">
        <ele>2141.47</ele>
        <time>2019-04-05T12:11:36Z</time>
      </trkpt>
      <trkpt lat="45.92482" lon="6.51265">
        <ele>2144.36</ele>
        <time>2019-04-05T12:12:03Z</time>
      </trkpt>
      <trkpt lat="45.92479" lon="6.51268">
        <ele>2145.8</ele>
        <time>2019-04-05T12:12:10Z</time>
      </trkpt>
      <trkpt lat="45.92479" lon="6.51267">
        <ele>2146.28</ele>
        <time>2019-04-05T12:12:11Z</time>
      </trkpt>
      <trkpt lat="45.92481" lon="6.51267">
        <ele>2146.76</ele>
        <time>2019-04-05T12:12:15Z</time>
      </trkpt>
      <trkpt lat="45.92485" lon="6.51273">
        <ele>2149.65</ele>
        <time>2019-04-05T12:12:32Z</time>
      </trkpt>
      <trkpt lat="45.92487" lon="6.5128">
        <ele>2152.05</ele>
        <time>2019-04-05T12:12:41Z</time>
      </trkpt>
      <trkpt lat="45.92488" lon="6.51281">
        <ele>2153.01</ele>
        <time>2019-04-05T12:12:46Z</time>
      </trkpt>
      <trkpt lat="45.9249" lon="6.51286">
        <ele>2156.37</ele>
        <time>2019-04-05T12:13:04Z</time>
      </trkpt>
      <trkpt lat="45.92486" lon="6.51292">
        <ele>2159.26</ele>
        <time>2019-04-05T12:13:18Z</time>
      </trkpt>
      <trkpt lat="45.92489" lon="6.51297">
        <ele>2162.62</ele>
        <time>2019-04-05T12:13:44Z</time>
      </trkpt>
      <trkpt lat="45.92489" lon="6.51303">
        <ele>2165.51</ele>
        <time>2019-04-05T12:14:03Z</time>
      </trkpt>
      <trkpt lat="45.92489" lon="6.51309">
        <ele>2168.39</ele>
        <time>2019-04-05T12:14:33Z</time>
      </trkpt>
      <trkpt lat="45.92492" lon="6.51316">
        <ele>2170.31</ele>
        <time>2019-04-05T12:14:57Z</time>
      </trkpt>
      <trkpt lat="45.92495" lon="6.51319">
        <ele>2171.27</ele>
        <time>2019-04-05T12:15:50Z</time>
      </trkpt>
      <trkpt lat="45.92494" lon="6.5132">
        <ele>2170.79</ele>
        <time>2019-04-05T12:16:45Z</time>
      </trkpt>
      <trkpt lat="45.92492" lon="6.51319">
        <ele>2170.79</ele>
        <time>2019-04-05T12:17:21Z</time>
      </trkpt>
      <trkpt lat="45.92491" lon="6.51319">
        <ele>2170.31</ele>
        <time>2019-04-05T12:17:54Z</time>
      </trkpt>
      <trkpt lat="45.9249" lon="6.5132">
        <ele>2170.79</ele>
        <time>2019-04-05T12:21:01Z</time>
      </trkpt>
      <trkpt lat="45.9249" lon="6.51319">
        <ele>2170.79</ele>
        <time>2019-04-05T12:21:40Z</time>
      </trkpt>
      <trkpt lat="45.92491" lon="6.51319">
        <ele>2169.83</ele>
        <time>2019-04-05T12:26:33Z</time>
      </trkpt>
      <trkpt lat="45.925" lon="6.51325">
        <ele>2168.39</ele>
        <time>2019-04-05T12:27:10Z</time>
      </trkpt>
      <trkpt lat="45.92501" lon="6.51322">
        <ele>2167.43</ele>
        <time>2019-04-05T12:27:11Z</time>
      </trkpt>
      <trkpt lat="45.92502" lon="6.5132">
        <ele>2164.06</ele>
        <time>2019-04-05T12:27:15Z</time>
      </trkpt>
      <trkpt lat="45.92503" lon="6.51317">
        <ele>2163.1</ele>
        <time>2019-04-05T12:27:35Z</time>
      </trkpt>
      <trkpt lat="45.92504" lon="6.51316">
        <ele>2162.62</ele>
        <time>2019-04-05T12:27:36Z</time>
      </trkpt>
      <trkpt lat="45.92505" lon="6.51316">
        <ele>2161.66</ele>
        <time>2019-04-05T12:27:37Z</time>
      </trkpt>
      <trkpt lat="45.92505" lon="6.51316">
        <ele>2161.18</ele>
        <time>2019-04-05T12:27:38Z</time>
      </trkpt>
      <trkpt lat="45.92508" lon="6.51313">
        <ele>2158.78</ele>
        <time>2019-04-05T12:27:43Z</time>
      </trkpt>
      <trkpt lat="45.92505" lon="6.51309">
        <ele>2158.3</ele>
        <time>2019-04-05T12:27:53Z</time>
      </trkpt>
      <trkpt lat="45.92504" lon="6.51308">
        <ele>2157.82</ele>
        <time>2019-04-05T12:27:54Z</time>
      </trkpt>
      <trkpt lat="45.925" lon="6.51299">
        <ele>2155.41</ele>
        <time>2019-04-05T12:27:59Z</time>
      </trkpt>
      <trkpt lat="45.92502" lon="6.51299">
        <ele>2154.93</ele>
        <time>2019-04-05T12:28:00Z</time>
      </trkpt>
      <trkpt lat="45.92506" lon="6.51296">
        <ele>2152.05</ele>
        <time>2019-04-05T12:28:03Z</time>
      </trkpt>
      <trkpt lat="45.92505" lon="6.51294">
        <ele>2150.61</ele>
        <time>2019-04-05T12:28:04Z</time>
      </trkpt>
      <trkpt lat="45.92505" lon="6.51292">
        <ele>2148.68</ele>
        <time>2019-04-05T12:28:05Z</time>
      </trkpt>
      <trkpt lat="45.92506" lon="6.51289">
        <ele>2147.72</ele>
        <time>2019-04-05T12:28:06Z</time>
      </trkpt>
      <trkpt lat="45.92507" lon="6.51289">
        <ele>2146.28</ele>
        <time>2019-04-05T12:28:07Z</time>
      </trkpt>
      <trkpt lat="45.92511" lon="6.51294">
        <ele>2142.92</ele>
        <time>2019-04-05T12:28:13Z</time>
      </trkpt>
      <trkpt lat="45.92512" lon="6.51294">
        <ele>2142.44</ele>
        <time>2019-04-05T12:28:14Z</time>
      </trkpt>
      <trkpt lat="45.92514" lon="6.51292">
        <ele>2141.47</ele>
        <time>2019-04-05T12:28:15Z</time>
      </trkpt>
      <trkpt lat="45.92517" lon="6.51295">
        <ele>2140.51</ele>
        <time>2019-04-05T12:28:16Z</time>
      </trkpt>
      <trkpt lat="45.92519" lon="6.51297">
        <ele>2138.11</ele>
        <time>2019-04-05T12:28:17Z</time>
      </trkpt>
      <trkpt lat="45.9252" lon="6.51298">
        <ele>2136.19</ele>
        <time>2019-04-05T12:28:18Z</time>
      </trkpt>
      <trkpt lat="45.92524" lon="6.51298">
        <ele>2135.23</ele>
        <time>2019-04-05T12:28:19Z</time>
      </trkpt>
      <trkpt lat="45.92528" lon="6.51301">
        <ele>2133.3</ele>
        <time>2019-04-05T12:28:20Z</time>
      </trkpt>
      <trkpt lat="45.92531" lon="6.51303">
        <ele>2130.9</ele>
        <time>2019-04-05T12:28:21Z</time>
      </trkpt>
      <trkpt lat="45.92533" lon="6.51305">
        <ele>2128.98</ele>
        <time>2019-04-05T12:28:22Z</time>
      </trkpt>
      <trkpt lat="45.92534" lon="6.51306">
        <ele>2126.57</ele>
        <time>2019-04-05T12:28:23Z</time>
      </trkpt>
      <trkpt lat="45.92535" lon="6.51305">
        <ele>2124.17</ele>
        <time>2019-04-05T12:28:26Z</time>
      </trkpt>
      <trkpt lat="45.92536" lon="6.51303">
        <ele>2123.69</ele>
        <time>2019-04-05T12:28:27Z</time>
      </trkpt>
      <trkpt lat="45.92538" lon="6.51301">
        <ele>2122.73</ele>
        <time>2019-04-05T12:28:28Z</time>
      </trkpt>
      <trkpt lat="45.9254" lon="6.51304">
        <ele>2120.81</ele>
        <time>2019-04-05T12:28:29Z</time>
      </trkpt>
      <trkpt lat="45.92541" lon="6.51306">
        <ele>2118.88</ele>
        <time>2019-04-05T12:28:30Z</time>
      </trkpt>
      <trkpt lat="45.92543" lon="6.51306">
        <ele>2117.44</ele>
        <time>2019-04-05T12:28:31Z</time>
      </trkpt>
      <trkpt lat="45.92545" lon="6.51303">
        <ele>2116</ele>
        <time>2019-04-05T12:28:32Z</time>
      </trkpt>
      <trkpt lat="45.92548" lon="6.51299">
        <ele>2114.08</ele>
        <time>2019-04-05T12:28:33Z</time>
      </trkpt>
      <trkpt lat="45.92549" lon="6.51295">
        <ele>2113.12</ele>
        <time>2019-04-05T12:28:34Z</time>
      </trkpt>
      <trkpt lat="45.9255" lon="6.51293">
        <ele>2111.19</ele>
        <time>2019-04-05T12:28:35Z</time>
      </trkpt>
      <trkpt lat="45.92551" lon="6.51294">
        <ele>2109.75</ele>
        <time>2019-04-05T12:28:40Z</time>
      </trkpt>
      <trkpt lat="45.92557" lon="6.51304">
        <ele>2109.75</ele>
        <time>2019-04-05T12:28:42Z</time>
      </trkpt>
      <trkpt lat="45.92558" lon="6.51308">
        <ele>2108.79</ele>
        <time>2019-04-05T12:28:43Z</time>
      </trkpt>
      <trkpt lat="45.92559" lon="6.51313">
        <ele>2107.83</ele>
        <time>2019-04-05T12:28:44Z</time>
      </trkpt>
      <trkpt lat="45.92561" lon="6.51313">
        <ele>2106.39</ele>
        <time>2019-04-05T12:28:45Z</time>
      </trkpt>
      <trkpt lat="45.92563" lon="6.51313">
        <ele>2104.94</ele>
        <time>2019-04-05T12:28:46Z</time>
      </trkpt>
      <trkpt lat="45.92566" lon="6.51317">
        <ele>2103.5</ele>
        <time>2019-04-05T12:28:47Z</time>
      </trkpt>
      <trkpt lat="45.92568" lon="6.51322">
        <ele>2101.58</ele>
        <time>2019-04-05T12:28:48Z</time>
      </trkpt>
      <trkpt lat="45.92571" lon="6.51326">
        <ele>2100.62</ele>
        <time>2019-04-05T12:28:49Z</time>
      </trkpt>
      <trkpt lat="45.92574" lon="6.51328">
        <ele>2098.7</ele>
        <time>2019-04-05T12:28:50Z</time>
      </trkpt>
      <trkpt lat="45.92576" lon="6.51325">
        <ele>2097.25</ele>
        <time>2019-04-05T12:28:51Z</time>
      </trkpt>
      <trkpt lat="45.92579" lon="6.51328">
        <ele>2095.33</ele>
        <time>2019-04-05T12:28:52Z</time>
      </trkpt>
      <trkpt lat="45.92582" lon="6.5133">
        <ele>2092.93</ele>
        <time>2019-04-05T12:28:53Z</time>
      </trkpt>
      <trkpt lat="45.92585" lon="6.51333">
        <ele>2091</ele>
        <time>2019-04-05T12:28:54Z</time>
      </trkpt>
      <trkpt lat="45.92589" lon="6.51333">
        <ele>2088.6</ele>
        <time>2019-04-05T12:28:55Z</time>
      </trkpt>
      <trkpt lat="45.92592" lon="6.51336">
        <ele>2086.2</ele>
        <time>2019-04-05T12:28:56Z</time>
      </trkpt>
      <trkpt lat="45.92595" lon="6.51338">
        <ele>2083.31</ele>
        <time>2019-04-05T12:28:57Z</time>
      </trkpt>
      <trkpt lat="45.92599" lon="6.5134">
        <ele>2081.39</ele>
        <time>2019-04-05T12:28:58Z</time>
      </trkpt>
      <trkpt lat="45.92604" lon="6.51343">
        <ele>2080.43</ele>
        <time>2019-04-05T12:28:59Z</time>
      </trkpt>
      <trkpt lat="45.92608" lon="6.51345">
        <ele>2076.1</ele>
        <time>2019-04-05T12:29:00Z</time>
      </trkpt>
      <trkpt lat="45.92613" lon="6.51346">
        <ele>2073.7</ele>
        <time>2019-04-05T12:29:01Z</time>
      </trkpt>
      <trkpt lat="45.92617" lon="6.5135">
        <ele>2071.3</ele>
        <time>2019-04-05T12:29:02Z</time>
      </trkpt>
      <trkpt lat="45.92621" lon="6.51355">
        <ele>2068.41</ele>
        <time>2019-04-05T12:29:03Z</time>
      </trkpt>
      <trkpt lat="45.92625" lon="6.51356">
        <ele>2065.53</ele>
        <time>2019-04-05T12:29:04Z</time>
      </trkpt>
      <trkpt lat="45.92629" lon="6.51357">
        <ele>2063.61</ele>
        <time>2019-04-05T12:29:05Z</time>
      </trkpt>
      <trkpt lat="45.92632" lon="6.51359">
        <ele>2059.76</ele>
        <time>2019-04-05T12:29:06Z</time>
      </trkpt>
      <trkpt lat="45.92635" lon="6.51363">
        <ele>2057.84</ele>
        <time>2019-04-05T12:29:07Z</time>
      </trkpt>
      <trkpt lat="45.92638" lon="6.51365">
        <ele>2055.44</ele>
        <time>2019-04-05T12:29:08Z</time>
      </trkpt>
      <trkpt lat="45.92642" lon="6.51367">
        <ele>2052.55</ele>
        <time>2019-04-05T12:29:09Z</time>
      </trkpt>
      <trkpt lat="45.92645" lon="6.51371">
        <ele>2049.67</ele>
        <time>2019-04-05T12:29:10Z</time>
      </trkpt>
      <trkpt lat="45.92649" lon="6.51371">
        <ele>2048.23</ele>
        <time>2019-04-05T12:29:11Z</time>
      </trkpt>
      <trkpt lat="45.92655" lon="6.51376">
        <ele>2043.42</ele>
        <time>2019-04-05T12:29:13Z</time>
      </trkpt>
      <trkpt lat="45.92658" lon="6.51375">
        <ele>2040.54</ele>
        <time>2019-04-05T12:29:14Z</time>
      </trkpt>
      <trkpt lat="45.92662" lon="6.51378">
        <ele>2035.73</ele>
        <time>2019-04-05T12:29:16Z</time>
      </trkpt>
      <trkpt lat="45.92662" lon="6.5138">
        <ele>2034.29</ele>
        <time>2019-04-05T12:29:17Z</time>
      </trkpt>
      <trkpt lat="45.92663" lon="6.51386">
        <ele>2031.88</ele>
        <time>2019-04-05T12:29:30Z</time>
      </trkpt>
      <trkpt lat="45.92666" lon="6.51386">
        <ele>2031.4</ele>
        <time>2019-04-05T12:29:31Z</time>
      </trkpt>
      <trkpt lat="45.92668" lon="6.51391">
        <ele>2030.44</ele>
        <time>2019-04-05T12:29:32Z</time>
      </trkpt>
      <trkpt lat="45.92671" lon="6.51396">
        <ele>2028.52</ele>
        <time>2019-04-05T12:29:33Z</time>
      </trkpt>
      <trkpt lat="45.92673" lon="6.514">
        <ele>2026.6</ele>
        <time>2019-04-05T12:29:34Z</time>
      </trkpt>
      <trkpt lat="45.92676" lon="6.51399">
        <ele>2025.64</ele>
        <time>2019-04-05T12:29:35Z</time>
      </trkpt>
      <trkpt lat="45.9268" lon="6.51408">
        <ele>2020.83</ele>
        <time>2019-04-05T12:29:37Z</time>
      </trkpt>
      <trkpt lat="45.92683" lon="6.5141">
        <ele>2018.91</ele>
        <time>2019-04-05T12:29:38Z</time>
      </trkpt>
      <trkpt lat="45.92687" lon="6.51409">
        <ele>2016.98</ele>
        <time>2019-04-05T12:29:39Z</time>
      </trkpt>
      <trkpt lat="45.92691" lon="6.51405">
        <ele>2013.14</ele>
        <time>2019-04-05T12:29:41Z</time>
      </trkpt>
      <trkpt lat="45.92692" lon="6.51412">
        <ele>2012.18</ele>
        <time>2019-04-05T12:29:43Z</time>
      </trkpt>
      <trkpt lat="45.92693" lon="6.51415">
        <ele>2011.22</ele>
        <time>2019-04-05T12:29:44Z</time>
      </trkpt>
      <trkpt lat="45.92695" lon="6.51418">
        <ele>2010.25</ele>
        <time>2019-04-05T12:29:45Z</time>
      </trkpt>
      <trkpt lat="45.92696" lon="6.51419">
        <ele>2009.29</ele>
        <time>2019-04-05T12:29:46Z</time>
      </trkpt>
      <trkpt lat="45.92698" lon="6.51422">
        <ele>2007.85</ele>
        <time>2019-04-05T12:29:47Z</time>
      </trkpt>
      <trkpt lat="45.92699" lon="6.51419">
        <ele>2007.37</ele>
        <time>2019-04-05T12:29:48Z</time>
      </trkpt>
      <trkpt lat="45.92701" lon="6.51424">
        <ele>2004.49</ele>
        <time>2019-04-05T12:29:52Z</time>
      </trkpt>
      <trkpt lat="45.92702" lon="6.51425">
        <ele>2004.01</ele>
        <time>2019-04-05T12:29:53Z</time>
      </trkpt>
      <trkpt lat="45.92703" lon="6.51427">
        <ele>2003.04</ele>
        <time>2019-04-05T12:29:54Z</time>
      </trkpt>
      <trkpt lat="45.92703" lon="6.51427">
        <ele>2000.16</ele>
        <time>2019-04-05T12:30:02Z</time>
      </trkpt>
      <trkpt lat="45.92708" lon="6.51428">
        <ele>1998.72</ele>
        <time>2019-04-05T12:30:16Z</time>
      </trkpt>
      <trkpt lat="45.92709" lon="6.51435">
        <ele>1998.24</ele>
        <time>2019-04-05T12:30:21Z</time>
      </trkpt>
      <trkpt lat="45.92709" lon="6.51436">
        <ele>1997.76</ele>
        <time>2019-04-05T12:30:22Z</time>
      </trkpt>
      <trkpt lat="45.92711" lon="6.51437">
        <ele>1996.8</ele>
        <time>2019-04-05T12:30:24Z</time>
      </trkpt>
      <trkpt lat="45.92711" lon="6.5144">
        <ele>1996.32</ele>
        <time>2019-04-05T12:30:25Z</time>
      </trkpt>
      <trkpt lat="45.92711" lon="6.51442">
        <ele>1995.35</ele>
        <time>2019-04-05T12:30:26Z</time>
      </trkpt>
      <trkpt lat="45.92712" lon="6.51445">
        <ele>1994.39</ele>
        <time>2019-04-05T12:30:27Z</time>
      </trkpt>
      <trkpt lat="45.92713" lon="6.51445">
        <ele>1993.43</ele>
        <time>2019-04-05T12:30:28Z</time>
      </trkpt>
      <trkpt lat="45.92712" lon="6.51447">
        <ele>1991.03</ele>
        <time>2019-04-05T12:30:32Z</time>
      </trkpt>
      <trkpt lat="45.92712" lon="6.51454">
        <ele>1990.55</ele>
        <time>2019-04-05T12:30:37Z</time>
      </trkpt>
      <trkpt lat="45.92712" lon="6.51462">
        <ele>1987.18</ele>
        <time>2019-04-05T12:30:41Z</time>
      </trkpt>
      <trkpt lat="45.92712" lon="6.51465">
        <ele>1985.74</ele>
        <time>2019-04-05T12:30:44Z</time>
      </trkpt>
      <trkpt lat="45.92717" lon="6.51424">
        <ele>1981.9</ele>
        <time>2019-04-05T12:30:53Z</time>
      </trkpt>
      <trkpt lat="45.92721" lon="6.5142">
        <ele>1979.49</ele>
        <time>2019-04-05T12:30:54Z</time>
      </trkpt>
      <trkpt lat="45.92739" lon="6.51388">
        <ele>1977.57</ele>
        <time>2019-04-05T12:30:55Z</time>
      </trkpt>
      <trkpt lat="45.92742" lon="6.51391">
        <ele>1974.69</ele>
        <time>2019-04-05T12:30:57Z</time>
      </trkpt>
      <trkpt lat="45.92747" lon="6.51394">
        <ele>1972.76</ele>
        <time>2019-04-05T12:30:58Z</time>
      </trkpt>
      <trkpt lat="45.92752" lon="6.514">
        <ele>1970.84</ele>
        <time>2019-04-05T12:30:59Z</time>
      </trkpt>
      <trkpt lat="45.92758" lon="6.51414">
        <ele>1967.48</ele>
        <time>2019-04-05T12:31:01Z</time>
      </trkpt>
      <trkpt lat="45.92761" lon="6.51419">
        <ele>1965.07</ele>
        <time>2019-04-05T12:31:02Z</time>
      </trkpt>
      <trkpt lat="45.92768" lon="6.51418">
        <ele>1960.75</ele>
        <time>2019-04-05T12:31:03Z</time>
      </trkpt>
      <trkpt lat="45.92776" lon="6.51417">
        <ele>1956.42</ele>
        <time>2019-04-05T12:31:04Z</time>
      </trkpt>
      <trkpt lat="45.92785" lon="6.5142">
        <ele>1951.61</ele>
        <time>2019-04-05T12:31:05Z</time>
      </trkpt>
      <trkpt lat="45.9279" lon="6.51421">
        <ele>1947.77</ele>
        <time>2019-04-05T12:31:06Z</time>
      </trkpt>
      <trkpt lat="45.92795" lon="6.51422">
        <ele>1944.88</ele>
        <time>2019-04-05T12:31:07Z</time>
      </trkpt>
      <trkpt lat="45.92804" lon="6.51419">
        <ele>1942.48</ele>
        <time>2019-04-05T12:31:08Z</time>
      </trkpt>
      <trkpt lat="45.92804" lon="6.51413">
        <ele>1937.19</ele>
        <time>2019-04-05T12:31:10Z</time>
      </trkpt>
      <trkpt lat="45.92802" lon="6.51413">
        <ele>1933.83</ele>
        <time>2019-04-05T12:31:13Z</time>
      </trkpt>
      <trkpt lat="45.92801" lon="6.51414">
        <ele>1933.35</ele>
        <time>2019-04-05T12:31:14Z</time>
      </trkpt>
      <trkpt lat="45.92799" lon="6.51415">
        <ele>1933.35</ele>
        <time>2019-04-05T12:31:16Z</time>
      </trkpt>
      <trkpt lat="45.92801" lon="6.51419">
        <ele>1932.87</ele>
        <time>2019-04-05T12:31:22Z</time>
      </trkpt>
      <trkpt lat="45.92802" lon="6.51421">
        <ele>1933.35</ele>
        <time>2019-04-05T12:31:25Z</time>
      </trkpt>
      <trkpt lat="45.92804" lon="6.51423">
        <ele>1933.35</ele>
        <time>2019-04-05T12:31:29Z</time>
      </trkpt>
      <trkpt lat="45.92805" lon="6.51425">
        <ele>1933.35</ele>
        <time>2019-04-05T12:31:30Z</time>
      </trkpt>
      <trkpt lat="45.92779" lon="6.51414">
        <ele>1933.83</ele>
        <time>2019-04-05T12:32:06Z</time>
      </trkpt>
      <trkpt lat="45.92781" lon="6.51418">
        <ele>1933.35</ele>
        <time>2019-04-05T12:32:13Z</time>
      </trkpt>
      <trkpt lat="45.92768" lon="6.51412">
        <ele>1933.83</ele>
        <time>2019-04-05T12:32:25Z</time>
      </trkpt>
      <trkpt lat="45.92782" lon="6.5142">
        <ele>1933.83</ele>
        <time>2019-04-05T12:32:35Z</time>
      </trkpt>
      <trkpt lat="45.92783" lon="6.51421">
        <ele>1933.83</ele>
        <time>2019-04-05T12:32:36Z</time>
      </trkpt>
      <trkpt lat="45.92785" lon="6.51424">
        <ele>1933.83</ele>
        <time>2019-04-05T12:32:38Z</time>
      </trkpt>
      <trkpt lat="45.92786" lon="6.51424">
        <ele>1933.83</ele>
        <time>2019-04-05T12:32:39Z</time>
      </trkpt>
      <trkpt lat="45.92788" lon="6.51427">
        <ele>1933.35</ele>
        <time>2019-04-05T12:32:57Z</time>
      </trkpt>
      <trkpt lat="45.92785" lon="6.51427">
        <ele>1933.35</ele>
        <time>2019-04-05T12:33:02Z</time>
      </trkpt>
      <trkpt lat="45.92784" lon="6.51427">
        <ele>1933.35</ele>
        <time>2019-04-05T12:33:03Z</time>
      </trkpt>
      <trkpt lat="45.92778" lon="6.51424">
        <ele>1933.35</ele>
        <time>2019-04-05T12:33:15Z</time>
      </trkpt>
      <trkpt lat="45.92777" lon="6.51423">
        <ele>1933.35</ele>
        <time>2019-04-05T12:33:16Z</time>
      </trkpt>
      <trkpt lat="45.92775" lon="6.51421">
        <ele>1933.35</ele>
        <time>2019-04-05T12:33:18Z</time>
      </trkpt>
      <trkpt lat="45.92773" lon="6.51419">
        <ele>1933.83</ele>
        <time>2019-04-05T12:33:21Z</time>
      </trkpt>
      <trkpt lat="45.92764" lon="6.51412">
        <ele>1933.35</ele>
        <time>2019-04-05T12:33:25Z</time>
      </trkpt>
      <trkpt lat="45.92757" lon="6.51407">
        <ele>1933.83</ele>
        <time>2019-04-05T12:33:29Z</time>
      </trkpt>
      <trkpt lat="45.92757" lon="6.51405">
        <ele>1933.83</ele>
        <time>2019-04-05T12:33:30Z</time>
      </trkpt>
      <trkpt lat="45.92754" lon="6.51403">
        <ele>1933.83</ele>
        <time>2019-04-05T12:33:35Z</time>
      </trkpt>
      <trkpt lat="45.92753" lon="6.51403">
        <ele>1933.83</ele>
        <time>2019-04-05T12:33:38Z</time>
      </trkpt>
      <trkpt lat="45.92751" lon="6.51401">
        <ele>1934.31</ele>
        <time>2019-04-05T12:33:40Z</time>
      </trkpt>
      <trkpt lat="45.92748" lon="6.51398">
        <ele>1933.83</ele>
        <time>2019-04-05T12:33:45Z</time>
      </trkpt>
      <trkpt lat="45.92744" lon="6.51396">
        <ele>1933.83</ele>
        <time>2019-04-05T12:33:50Z</time>
      </trkpt>
      <trkpt lat="45.92742" lon="6.51395">
        <ele>1934.31</ele>
        <time>2019-04-05T12:33:53Z</time>
      </trkpt>
      <trkpt lat="45.92737" lon="6.51393">
        <ele>1933.83</ele>
        <time>2019-04-05T12:34:08Z</time>
      </trkpt>
      <trkpt lat="45.92736" lon="6.51391">
        <ele>1933.83</ele>
        <time>2019-04-05T12:34:28Z</time>
      </trkpt>
      <trkpt lat="45.92738" lon="6.51393">
        <ele>1933.83</ele>
        <time>2019-04-05T12:34:34Z</time>
      </trkpt>
      <trkpt lat="45.92739" lon="6.51394">
        <ele>1933.83</ele>
        <time>2019-04-05T12:34:36Z</time>
      </trkpt>
      <trkpt lat="45.92742" lon="6.51396">
        <ele>1933.83</ele>
        <time>2019-04-05T12:34:44Z</time>
      </trkpt>
      <trkpt lat="45.92746" lon="6.51402">
        <ele>1933.83</ele>
        <time>2019-04-05T12:35:00Z</time>
      </trkpt>
      <trkpt lat="45.92751" lon="6.51406">
        <ele>1933.83</ele>
        <time>2019-04-05T12:35:30Z</time>
      </trkpt>
      <trkpt lat="45.92745" lon="6.51402">
        <ele>1933.83</ele>
        <time>2019-04-05T12:35:51Z</time>
      </trkpt>
      <trkpt lat="45.92745" lon="6.51404">
        <ele>1934.79</ele>
        <time>2019-04-05T12:36:05Z</time>
      </trkpt>
      <trkpt lat="45.92741" lon="6.51403">
        <ele>1934.79</ele>
        <time>2019-04-05T12:36:28Z</time>
      </trkpt>
      <trkpt lat="45.9274" lon="6.51404">
        <ele>1934.79</ele>
        <time>2019-04-05T12:36:48Z</time>
      </trkpt>
      <trkpt lat="45.92739" lon="6.51402">
        <ele>1934.79</ele>
        <time>2019-04-05T12:37:04Z</time>
      </trkpt>
      <trkpt lat="45.92742" lon="6.51404">
        <ele>1934.79</ele>
        <time>2019-04-05T12:37:40Z</time>
      </trkpt>
      <trkpt lat="45.92744" lon="6.51408">
        <ele>1934.79</ele>
        <time>2019-04-05T12:37:55Z</time>
      </trkpt>
      <trkpt lat="45.92743" lon="6.51408">
        <ele>1934.79</ele>
        <time>2019-04-05T12:38:12Z</time>
      </trkpt>
      <trkpt lat="45.92742" lon="6.51411">
        <ele>1934.79</ele>
        <time>2019-04-05T12:39:00Z</time>
      </trkpt>
      <trkpt lat="45.92742" lon="6.51409">
        <ele>1934.79</ele>
        <time>2019-04-05T12:39:05Z</time>
      </trkpt>
      <trkpt lat="45.92742" lon="6.51406">
        <ele>1934.79</ele>
        <time>2019-04-05T12:39:38Z</time>
      </trkpt>
      <trkpt lat="45.92742" lon="6.51404">
        <ele>1934.79</ele>
        <time>2019-04-05T12:39:41Z</time>
      </trkpt>
      <trkpt lat="45.92745" lon="6.51402">
        <ele>1934.31</ele>
        <time>2019-04-05T12:40:04Z</time>
      </trkpt>
      <trkpt lat="45.92742" lon="6.51403">
        <ele>1933.35</ele>
        <time>2019-04-05T12:40:24Z</time>
      </trkpt>
      <trkpt lat="45.92737" lon="6.51412">
        <ele>1936.23</ele>
        <time>2019-04-05T12:40:53Z</time>
      </trkpt>
      <trkpt lat="45.92734" lon="6.5141">
        <ele>1937.19</ele>
        <time>2019-04-05T12:41:01Z</time>
      </trkpt>
      <trkpt lat="45.92731" lon="6.51408">
        <ele>1937.67</ele>
        <time>2019-04-05T12:41:02Z</time>
      </trkpt>
      <trkpt lat="45.92731" lon="6.51408">
        <ele>1937.67</ele>
        <time>2019-04-05T12:41:03Z</time>
      </trkpt>
      <trkpt lat="45.92723" lon="6.51404">
        <ele>1941.04</ele>
        <time>2019-04-05T12:41:17Z</time>
      </trkpt>
      <trkpt lat="45.92719" lon="6.51409">
        <ele>1943.92</ele>
        <time>2019-04-05T12:41:36Z</time>
      </trkpt>
      <trkpt lat="45.92717" lon="6.51415">
        <ele>1944.88</ele>
        <time>2019-04-05T12:41:43Z</time>
      </trkpt>
      <trkpt lat="45.92716" lon="6.5143">
        <ele>1948.25</ele>
        <time>2019-04-05T12:41:59Z</time>
      </trkpt>
      <trkpt lat="45.92711" lon="6.51428">
        <ele>1949.69</ele>
        <time>2019-04-05T12:42:08Z</time>
      </trkpt>
      <trkpt lat="45.927" lon="6.51424">
        <ele>1952.57</ele>
        <time>2019-04-05T12:42:26Z</time>
      </trkpt>
      <trkpt lat="45.92697" lon="6.51422">
        <ele>1954.02</ele>
        <time>2019-04-05T12:42:32Z</time>
      </trkpt>
      <trkpt lat="45.92702" lon="6.51435">
        <ele>1955.46</ele>
        <time>2019-04-05T12:42:47Z</time>
      </trkpt>
      <trkpt lat="45.92706" lon="6.51448">
        <ele>1957.38</ele>
        <time>2019-04-05T12:43:00Z</time>
      </trkpt>
      <trkpt lat="45.92708" lon="6.51452">
        <ele>1957.86</ele>
        <time>2019-04-05T12:43:04Z</time>
      </trkpt>
      <trkpt lat="45.92709" lon="6.51464">
        <ele>1961.23</ele>
        <time>2019-04-05T12:43:20Z</time>
      </trkpt>
      <trkpt lat="45.92712" lon="6.51478">
        <ele>1964.59</ele>
        <time>2019-04-05T12:43:40Z</time>
      </trkpt>
      <trkpt lat="45.92702" lon="6.51473">
        <ele>1966.51</ele>
        <time>2019-04-05T12:43:53Z</time>
      </trkpt>
      <trkpt lat="45.92692" lon="6.51474">
        <ele>1969.4</ele>
        <time>2019-04-05T12:44:08Z</time>
      </trkpt>
      <trkpt lat="45.92687" lon="6.51476">
        <ele>1972.28</ele>
        <time>2019-04-05T12:44:25Z</time>
      </trkpt>
      <trkpt lat="45.9269" lon="6.51489">
        <ele>1975.65</ele>
        <time>2019-04-05T12:44:41Z</time>
      </trkpt>
      <trkpt lat="45.92691" lon="6.5149">
        <ele>1975.65</ele>
        <time>2019-04-05T12:44:42Z</time>
      </trkpt>
      <trkpt lat="45.92693" lon="6.51504">
        <ele>1979.01</ele>
        <time>2019-04-05T12:44:58Z</time>
      </trkpt>
      <trkpt lat="45.92693" lon="6.51517">
        <ele>1981.9</ele>
        <time>2019-04-05T12:45:14Z</time>
      </trkpt>
      <trkpt lat="45.92681" lon="6.51511">
        <ele>1984.78</ele>
        <time>2019-04-05T12:45:34Z</time>
      </trkpt>
      <trkpt lat="45.92681" lon="6.51513">
        <ele>1986.22</ele>
        <time>2019-04-05T12:45:44Z</time>
      </trkpt>
      <trkpt lat="45.92681" lon="6.51513">
        <ele>1987.18</ele>
        <time>2019-04-05T12:45:49Z</time>
      </trkpt>
      <trkpt lat="45.9268" lon="6.51512">
        <ele>1987.18</ele>
        <time>2019-04-05T12:45:50Z</time>
      </trkpt>
      <trkpt lat="45.9267" lon="6.51505">
        <ele>1990.55</ele>
        <time>2019-04-05T12:46:06Z</time>
      </trkpt>
      <trkpt lat="45.92669" lon="6.51516">
        <ele>1993.43</ele>
        <time>2019-04-05T12:46:20Z</time>
      </trkpt>
      <trkpt lat="45.92668" lon="6.51519">
        <ele>1994.39</ele>
        <time>2019-04-05T12:46:24Z</time>
      </trkpt>
      <trkpt lat="45.92668" lon="6.51521">
        <ele>1994.39</ele>
        <time>2019-04-05T12:46:26Z</time>
      </trkpt>
      <trkpt lat="45.92661" lon="6.5152">
        <ele>1997.76</ele>
        <time>2019-04-05T12:46:46Z</time>
      </trkpt>
      <trkpt lat="45.92653" lon="6.51514">
        <ele>2001.12</ele>
        <time>2019-04-05T12:47:02Z</time>
      </trkpt>
      <trkpt lat="45.92649" lon="6.51519">
        <ele>2002.56</ele>
        <time>2019-04-05T12:47:12Z</time>
      </trkpt>
      <trkpt lat="45.92645" lon="6.51528">
        <ele>2005.93</ele>
        <time>2019-04-05T12:47:27Z</time>
      </trkpt>
      <trkpt lat="45.92641" lon="6.51525">
        <ele>2007.37</ele>
        <time>2019-04-05T12:47:38Z</time>
      </trkpt>
      <trkpt lat="45.92636" lon="6.51517">
        <ele>2010.25</ele>
        <time>2019-04-05T12:47:52Z</time>
      </trkpt>
      <trkpt lat="45.92634" lon="6.51525">
        <ele>2013.14</ele>
        <time>2019-04-05T12:48:10Z</time>
      </trkpt>
      <trkpt lat="45.92631" lon="6.51531">
        <ele>2015.06</ele>
        <time>2019-04-05T12:48:19Z</time>
      </trkpt>
      <trkpt lat="45.9263" lon="6.51545">
        <ele>2018.43</ele>
        <time>2019-04-05T12:48:35Z</time>
      </trkpt>
      <trkpt lat="45.92628" lon="6.51553">
        <ele>2019.39</ele>
        <time>2019-04-05T12:48:45Z</time>
      </trkpt>
      <trkpt lat="45.92621" lon="6.51538">
        <ele>2022.75</ele>
        <time>2019-04-05T12:49:08Z</time>
      </trkpt>
      <trkpt lat="45.92615" lon="6.51528">
        <ele>2026.12</ele>
        <time>2019-04-05T12:49:25Z</time>
      </trkpt>
      <trkpt lat="45.92612" lon="6.51525">
        <ele>2029</ele>
        <time>2019-04-05T12:49:35Z</time>
      </trkpt>
      <trkpt lat="45.92612" lon="6.51526">
        <ele>2029</ele>
        <time>2019-04-05T12:49:37Z</time>
      </trkpt>
      <trkpt lat="45.92606" lon="6.51539">
        <ele>2032.36</ele>
        <time>2019-04-05T12:49:55Z</time>
      </trkpt>
      <trkpt lat="45.92606" lon="6.51541">
        <ele>2032.36</ele>
        <time>2019-04-05T12:49:56Z</time>
      </trkpt>
      <trkpt lat="45.92605" lon="6.51549">
        <ele>2033.81</ele>
        <time>2019-04-05T12:50:04Z</time>
      </trkpt>
      <trkpt lat="45.92606" lon="6.51555">
        <ele>2035.25</ele>
        <time>2019-04-05T12:50:10Z</time>
      </trkpt>
      <trkpt lat="45.92606" lon="6.51558">
        <ele>2035.73</ele>
        <time>2019-04-05T12:50:12Z</time>
      </trkpt>
      <trkpt lat="45.92605" lon="6.51561">
        <ele>2036.69</ele>
        <time>2019-04-05T12:50:21Z</time>
      </trkpt>
      <trkpt lat="45.92598" lon="6.51548">
        <ele>2039.57</ele>
        <time>2019-04-05T12:50:38Z</time>
      </trkpt>
      <trkpt lat="45.92595" lon="6.51538">
        <ele>2042.46</ele>
        <time>2019-04-05T12:50:54Z</time>
      </trkpt>
      <trkpt lat="45.9259" lon="6.51546">
        <ele>2045.82</ele>
        <time>2019-04-05T12:51:10Z</time>
      </trkpt>
      <trkpt lat="45.92586" lon="6.51563">
        <ele>2049.19</ele>
        <time>2019-04-05T12:51:28Z</time>
      </trkpt>
      <trkpt lat="45.92579" lon="6.51554">
        <ele>2052.55</ele>
        <time>2019-04-05T12:51:48Z</time>
      </trkpt>
      <trkpt lat="45.92578" lon="6.51551">
        <ele>2053.03</ele>
        <time>2019-04-05T12:51:50Z</time>
      </trkpt>
      <trkpt lat="45.92571" lon="6.51532">
        <ele>2056.4</ele>
        <time>2019-04-05T12:52:12Z</time>
      </trkpt>
      <trkpt lat="45.92566" lon="6.51541">
        <ele>2058.8</ele>
        <time>2019-04-05T12:52:25Z</time>
      </trkpt>
      <trkpt lat="45.92564" lon="6.51553">
        <ele>2060.24</ele>
        <time>2019-04-05T12:52:37Z</time>
      </trkpt>
      <trkpt lat="45.92564" lon="6.51563">
        <ele>2062.17</ele>
        <time>2019-04-05T12:52:46Z</time>
      </trkpt>
      <trkpt lat="45.92564" lon="6.51578">
        <ele>2064.57</ele>
        <time>2019-04-05T12:53:00Z</time>
      </trkpt>
      <trkpt lat="45.92564" lon="6.51587">
        <ele>2066.01</ele>
        <time>2019-04-05T12:53:09Z</time>
      </trkpt>
      <trkpt lat="45.92564" lon="6.51588">
        <ele>2066.01</ele>
        <time>2019-04-05T12:53:10Z</time>
      </trkpt>
      <trkpt lat="45.92564" lon="6.51589">
        <ele>2066.49</ele>
        <time>2019-04-05T12:53:11Z</time>
      </trkpt>
      <trkpt lat="45.9256" lon="6.51583">
        <ele>2067.45</ele>
        <time>2019-04-05T12:53:23Z</time>
      </trkpt>
      <trkpt lat="45.92559" lon="6.5158">
        <ele>2067.93</ele>
        <time>2019-04-05T12:53:27Z</time>
      </trkpt>
      <trkpt lat="45.92554" lon="6.5156">
        <ele>2071.3</ele>
        <time>2019-04-05T12:53:49Z</time>
      </trkpt>
      <trkpt lat="45.92552" lon="6.51563">
        <ele>2074.18</ele>
        <time>2019-04-05T12:54:05Z</time>
      </trkpt>
      <trkpt lat="45.92551" lon="6.51566">
        <ele>2074.66</ele>
        <time>2019-04-05T12:54:08Z</time>
      </trkpt>
      <trkpt lat="45.92549" lon="6.51574">
        <ele>2076.1</ele>
        <time>2019-04-05T12:54:18Z</time>
      </trkpt>
      <trkpt lat="45.92548" lon="6.51581">
        <ele>2076.59</ele>
        <time>2019-04-05T12:54:24Z</time>
      </trkpt>
      <trkpt lat="45.92544" lon="6.51593">
        <ele>2079.95</ele>
        <time>2019-04-05T12:54:48Z</time>
      </trkpt>
      <trkpt lat="45.92543" lon="6.51592">
        <ele>2080.43</ele>
        <time>2019-04-05T12:54:50Z</time>
      </trkpt>
      <trkpt lat="45.92538" lon="6.51577">
        <ele>2083.31</ele>
        <time>2019-04-05T12:55:08Z</time>
      </trkpt>
      <trkpt lat="45.92535" lon="6.51563">
        <ele>2086.2</ele>
        <time>2019-04-05T12:55:25Z</time>
      </trkpt>
      <trkpt lat="45.92532" lon="6.51571">
        <ele>2089.08</ele>
        <time>2019-04-05T12:55:41Z</time>
      </trkpt>
      <trkpt lat="45.92531" lon="6.51579">
        <ele>2091</ele>
        <time>2019-04-05T12:55:51Z</time>
      </trkpt>
      <trkpt lat="45.9253" lon="6.51585">
        <ele>2091.97</ele>
        <time>2019-04-05T12:55:57Z</time>
      </trkpt>
      <trkpt lat="45.92525" lon="6.51582">
        <ele>2094.85</ele>
        <time>2019-04-05T12:56:19Z</time>
      </trkpt>
      <trkpt lat="45.92523" lon="6.51571">
        <ele>2097.73</ele>
        <time>2019-04-05T12:56:32Z</time>
      </trkpt>
      <trkpt lat="45.92522" lon="6.51569">
        <ele>2098.21</ele>
        <time>2019-04-05T12:56:34Z</time>
      </trkpt>
      <trkpt lat="45.92522" lon="6.51565">
        <ele>2098.7</ele>
        <time>2019-04-05T12:56:38Z</time>
      </trkpt>
      <trkpt lat="45.9252" lon="6.51558">
        <ele>2099.66</ele>
        <time>2019-04-05T12:56:44Z</time>
      </trkpt>
      <trkpt lat="45.9252" lon="6.51557">
        <ele>2100.14</ele>
        <time>2019-04-05T12:56:45Z</time>
      </trkpt>
      <trkpt lat="45.9252" lon="6.51556">
        <ele>2100.14</ele>
        <time>2019-04-05T12:56:46Z</time>
      </trkpt>
      <trkpt lat="45.92519" lon="6.51555">
        <ele>2100.62</ele>
        <time>2019-04-05T12:56:47Z</time>
      </trkpt>
      <trkpt lat="45.92516" lon="6.51545">
        <ele>2103.5</ele>
        <time>2019-04-05T12:57:01Z</time>
      </trkpt>
      <trkpt lat="45.92513" lon="6.51562">
        <ele>2106.39</ele>
        <time>2019-04-05T12:57:22Z</time>
      </trkpt>
      <trkpt lat="45.92512" lon="6.51567">
        <ele>2107.35</ele>
        <time>2019-04-05T12:57:27Z</time>
      </trkpt>
      <trkpt lat="45.92503" lon="6.51585">
        <ele>2110.71</ele>
        <time>2019-04-05T12:57:46Z</time>
      </trkpt>
      <trkpt lat="45.92501" lon="6.51589">
        <ele>2111.19</ele>
        <time>2019-04-05T12:57:50Z</time>
      </trkpt>
      <trkpt lat="45.92501" lon="6.51593">
        <ele>2112.15</ele>
        <time>2019-04-05T12:57:54Z</time>
      </trkpt>
      <trkpt lat="45.92499" lon="6.51606">
        <ele>2113.6</ele>
        <time>2019-04-05T12:58:08Z</time>
      </trkpt>
      <trkpt lat="45.92493" lon="6.51599">
        <ele>2116</ele>
        <time>2019-04-05T12:58:24Z</time>
      </trkpt>
      <trkpt lat="45.92487" lon="6.5158">
        <ele>2118.4</ele>
        <time>2019-04-05T12:58:39Z</time>
      </trkpt>
      <trkpt lat="45.92486" lon="6.51576">
        <ele>2119.36</ele>
        <time>2019-04-05T12:58:43Z</time>
      </trkpt>
      <trkpt lat="45.92479" lon="6.51583">
        <ele>2122.25</ele>
        <time>2019-04-05T12:59:02Z</time>
      </trkpt>
      <trkpt lat="45.92478" lon="6.51586">
        <ele>2123.21</ele>
        <time>2019-04-05T12:59:06Z</time>
      </trkpt>
      <trkpt lat="45.92477" lon="6.51588">
        <ele>2123.21</ele>
        <time>2019-04-05T12:59:08Z</time>
      </trkpt>
      <trkpt lat="45.92473" lon="6.51607">
        <ele>2126.57</ele>
        <time>2019-04-05T12:59:26Z</time>
      </trkpt>
      <trkpt lat="45.92473" lon="6.51609">
        <ele>2126.57</ele>
        <time>2019-04-05T12:59:27Z</time>
      </trkpt>
      <trkpt lat="45.92473" lon="6.51611">
        <ele>2127.05</ele>
        <time>2019-04-05T12:59:29Z</time>
      </trkpt>
      <trkpt lat="45.92474" lon="6.51623">
        <ele>2128.5</ele>
        <time>2019-04-05T12:59:39Z</time>
      </trkpt>
      <trkpt lat="45.92471" lon="6.51634">
        <ele>2130.9</ele>
        <time>2019-04-05T12:59:53Z</time>
      </trkpt>
      <trkpt lat="45.9247" lon="6.51634">
        <ele>2131.38</ele>
        <time>2019-04-05T12:59:55Z</time>
      </trkpt>
      <trkpt lat="45.92469" lon="6.51634">
        <ele>2131.38</ele>
        <time>2019-04-05T12:59:56Z</time>
      </trkpt>
      <trkpt lat="45.92468" lon="6.51634">
        <ele>2131.38</ele>
        <time>2019-04-05T12:59:57Z</time>
      </trkpt>
      <trkpt lat="45.92449" lon="6.51637">
        <ele>2132.82</ele>
        <time>2019-04-05T13:00:21Z</time>
      </trkpt>
      <trkpt lat="45.92439" lon="6.51643">
        <ele>2136.19</ele>
        <time>2019-04-05T13:00:41Z</time>
      </trkpt>
      <trkpt lat="45.9243" lon="6.51649">
        <ele>2139.07</ele>
        <time>2019-04-05T13:00:57Z</time>
      </trkpt>
      <trkpt lat="45.92425" lon="6.51658">
        <ele>2142.44</ele>
        <time>2019-04-05T13:01:12Z</time>
      </trkpt>
      <trkpt lat="45.92423" lon="6.51662">
        <ele>2143.4</ele>
        <time>2019-04-05T13:01:17Z</time>
      </trkpt>
      <trkpt lat="45.92419" lon="6.51672">
        <ele>2146.28</ele>
        <time>2019-04-05T13:01:37Z</time>
      </trkpt>
      <trkpt lat="45.92409" lon="6.51667">
        <ele>2148.68</ele>
        <time>2019-04-05T13:01:51Z</time>
      </trkpt>
      <trkpt lat="45.92397" lon="6.51662">
        <ele>2151.57</ele>
        <time>2019-04-05T13:02:10Z</time>
      </trkpt>
      <trkpt lat="45.92388" lon="6.51657">
        <ele>2154.45</ele>
        <time>2019-04-05T13:02:26Z</time>
      </trkpt>
      <trkpt lat="45.92382" lon="6.51652">
        <ele>2157.82</ele>
        <time>2019-04-05T13:02:44Z</time>
      </trkpt>
      <trkpt lat="45.9238" lon="6.51654">
        <ele>2158.3</ele>
        <time>2019-04-05T13:02:47Z</time>
      </trkpt>
      <trkpt lat="45.92377" lon="6.51668">
        <ele>2160.22</ele>
        <time>2019-04-05T13:03:03Z</time>
      </trkpt>
      <trkpt lat="45.92377" lon="6.5167">
        <ele>2160.7</ele>
        <time>2019-04-05T13:03:05Z</time>
      </trkpt>
      <trkpt lat="45.92377" lon="6.51672">
        <ele>2161.18</ele>
        <time>2019-04-05T13:03:07Z</time>
      </trkpt>
      <trkpt lat="45.92377" lon="6.51673">
        <ele>2161.18</ele>
        <time>2019-04-05T13:03:08Z</time>
      </trkpt>
      <trkpt lat="45.92368" lon="6.51699">
        <ele>2164.55</ele>
        <time>2019-04-05T13:03:37Z</time>
      </trkpt>
      <trkpt lat="45.92366" lon="6.51694">
        <ele>2165.03</ele>
        <time>2019-04-05T13:03:43Z</time>
      </trkpt>
      <trkpt lat="45.92358" lon="6.5168">
        <ele>2167.91</ele>
        <time>2019-04-05T13:04:01Z</time>
      </trkpt>
      <trkpt lat="45.92355" lon="6.51674">
        <ele>2169.35</ele>
        <time>2019-04-05T13:04:08Z</time>
      </trkpt>
      <trkpt lat="45.92354" lon="6.51672">
        <ele>2169.83</ele>
        <time>2019-04-05T13:04:10Z</time>
      </trkpt>
      <trkpt lat="45.92348" lon="6.51659">
        <ele>2171.76</ele>
        <time>2019-04-05T13:04:26Z</time>
      </trkpt>
      <trkpt lat="45.92346" lon="6.51655">
        <ele>2172.72</ele>
        <time>2019-04-05T13:04:30Z</time>
      </trkpt>
      <trkpt lat="45.92346" lon="6.51653">
        <ele>2173.2</ele>
        <time>2019-04-05T13:04:32Z</time>
      </trkpt>
      <trkpt lat="45.92341" lon="6.51651">
        <ele>2176.08</ele>
        <time>2019-04-05T13:04:51Z</time>
      </trkpt>
      <trkpt lat="45.92337" lon="6.5167">
        <ele>2178.97</ele>
        <time>2019-04-05T13:05:09Z</time>
      </trkpt>
      <trkpt lat="45.92333" lon="6.51669">
        <ele>2180.41</ele>
        <time>2019-04-05T13:05:27Z</time>
      </trkpt>
      <trkpt lat="45.92332" lon="6.51665">
        <ele>2181.37</ele>
        <time>2019-04-05T13:05:31Z</time>
      </trkpt>
      <trkpt lat="45.92331" lon="6.51664">
        <ele>2181.37</ele>
        <time>2019-04-05T13:05:32Z</time>
      </trkpt>
      <trkpt lat="45.92328" lon="6.51655">
        <ele>2182.81</ele>
        <time>2019-04-05T13:05:42Z</time>
      </trkpt>
      <trkpt lat="45.92327" lon="6.51645">
        <ele>2185.21</ele>
        <time>2019-04-05T13:05:55Z</time>
      </trkpt>
      <trkpt lat="45.92321" lon="6.51656">
        <ele>2188.1</ele>
        <time>2019-04-05T13:06:09Z</time>
      </trkpt>
      <trkpt lat="45.92319" lon="6.51662">
        <ele>2189.06</ele>
        <time>2019-04-05T13:06:16Z</time>
      </trkpt>
      <trkpt lat="45.92316" lon="6.51685">
        <ele>2192.42</ele>
        <time>2019-04-05T13:06:37Z</time>
      </trkpt>
      <trkpt lat="45.92318" lon="6.51704">
        <ele>2195.31</ele>
        <time>2019-04-05T13:06:54Z</time>
      </trkpt>
      <trkpt lat="45.92315" lon="6.5172">
        <ele>2197.71</ele>
        <time>2019-04-05T13:07:10Z</time>
      </trkpt>
      <trkpt lat="45.92315" lon="6.51722">
        <ele>2198.19</ele>
        <time>2019-04-05T13:07:12Z</time>
      </trkpt>
      <trkpt lat="45.92314" lon="6.51723">
        <ele>2197.71</ele>
        <time>2019-04-05T13:07:13Z</time>
      </trkpt>
      <trkpt lat="45.92313" lon="6.51728">
        <ele>2198.19</ele>
        <time>2019-04-05T13:07:17Z</time>
      </trkpt>
      <trkpt lat="45.92312" lon="6.51729">
        <ele>2198.19</ele>
        <time>2019-04-05T13:07:18Z</time>
      </trkpt>
      <trkpt lat="45.92311" lon="6.51735">
        <ele>2198.67</ele>
        <time>2019-04-05T13:07:24Z</time>
      </trkpt>
      <trkpt lat="45.92311" lon="6.51742">
        <ele>2200.11</ele>
        <time>2019-04-05T13:07:31Z</time>
      </trkpt>
      <trkpt lat="45.92311" lon="6.51744">
        <ele>2200.59</ele>
        <time>2019-04-05T13:07:33Z</time>
      </trkpt>
      <trkpt lat="45.92312" lon="6.5175">
        <ele>2201.56</ele>
        <time>2019-04-05T13:07:38Z</time>
      </trkpt>
      <trkpt lat="45.92312" lon="6.51754">
        <ele>2201.56</ele>
        <time>2019-04-05T13:07:42Z</time>
      </trkpt>
      <trkpt lat="45.92313" lon="6.51763">
        <ele>2203</ele>
        <time>2019-04-05T13:07:51Z</time>
      </trkpt>
      <trkpt lat="45.92313" lon="6.51785">
        <ele>2206.36</ele>
        <time>2019-04-05T13:08:13Z</time>
      </trkpt>
      <trkpt lat="45.92309" lon="6.51789">
        <ele>2206.84</ele>
        <time>2019-04-05T13:08:19Z</time>
      </trkpt>
      <trkpt lat="45.92292" lon="6.5181">
        <ele>2209.73</ele>
        <time>2019-04-05T13:08:47Z</time>
      </trkpt>
      <trkpt lat="45.92282" lon="6.51821">
        <ele>2211.17</ele>
        <time>2019-04-05T13:09:01Z</time>
      </trkpt>
      <trkpt lat="45.92281" lon="6.51822">
        <ele>2211.17</ele>
        <time>2019-04-05T13:09:03Z</time>
      </trkpt>
      <trkpt lat="45.92277" lon="6.51829">
        <ele>2210.21</ele>
        <time>2019-04-05T13:09:08Z</time>
      </trkpt>
      <trkpt lat="45.92276" lon="6.51831">
        <ele>2210.21</ele>
        <time>2019-04-05T13:09:09Z</time>
      </trkpt>
      <trkpt lat="45.92275" lon="6.51834">
        <ele>2209.73</ele>
        <time>2019-04-05T13:09:10Z</time>
      </trkpt>
      <trkpt lat="45.92264" lon="6.51845">
        <ele>2209.25</ele>
        <time>2019-04-05T13:09:24Z</time>
      </trkpt>
      <trkpt lat="45.92262" lon="6.51846">
        <ele>2209.73</ele>
        <time>2019-04-05T13:09:26Z</time>
      </trkpt>
      <trkpt lat="45.92255" lon="6.51852">
        <ele>2211.17</ele>
        <time>2019-04-05T13:09:39Z</time>
      </trkpt>
      <trkpt lat="45.92251" lon="6.51854">
        <ele>2212.61</ele>
        <time>2019-04-05T13:09:44Z</time>
      </trkpt>
      <trkpt lat="45.92246" lon="6.51859">
        <ele>2214.05</ele>
        <time>2019-04-05T13:09:54Z</time>
      </trkpt>
      <trkpt lat="45.92242" lon="6.5186">
        <ele>2215.01</ele>
        <time>2019-04-05T13:09:58Z</time>
      </trkpt>
      <trkpt lat="45.92229" lon="6.51866">
        <ele>2217.9</ele>
        <time>2019-04-05T13:10:17Z</time>
      </trkpt>
      <trkpt lat="45.92208" lon="6.51876">
        <ele>2220.78</ele>
        <time>2019-04-05T13:10:47Z</time>
      </trkpt>
      <trkpt lat="45.92197" lon="6.51874">
        <ele>2224.15</ele>
        <time>2019-04-05T13:11:04Z</time>
      </trkpt>
      <trkpt lat="45.92195" lon="6.51877">
        <ele>2225.59</ele>
        <time>2019-04-05T13:11:15Z</time>
      </trkpt>
      <trkpt lat="45.92197" lon="6.51889">
        <ele>2227.03</ele>
        <time>2019-04-05T13:11:28Z</time>
      </trkpt>
      <trkpt lat="45.92197" lon="6.51893">
        <ele>2227.99</ele>
        <time>2019-04-05T13:11:32Z</time>
      </trkpt>
      <trkpt lat="45.92197" lon="6.51894">
        <ele>2228.47</ele>
        <time>2019-04-05T13:11:33Z</time>
      </trkpt>
      <trkpt lat="45.9219" lon="6.5189">
        <ele>2230.4</ele>
        <time>2019-04-05T13:11:47Z</time>
      </trkpt>
      <trkpt lat="45.92182" lon="6.51887">
        <ele>2233.28</ele>
        <time>2019-04-05T13:12:11Z</time>
      </trkpt>
      <trkpt lat="45.92182" lon="6.51896">
        <ele>2235.2</ele>
        <time>2019-04-05T13:12:21Z</time>
      </trkpt>
      <trkpt lat="45.92175" lon="6.51899">
        <ele>2238.09</ele>
        <time>2019-04-05T13:12:43Z</time>
      </trkpt>
      <trkpt lat="45.92173" lon="6.51897">
        <ele>2238.57</ele>
        <time>2019-04-05T13:12:46Z</time>
      </trkpt>
      <trkpt lat="45.9217" lon="6.51893">
        <ele>2239.53</ele>
        <time>2019-04-05T13:12:52Z</time>
      </trkpt>
      <trkpt lat="45.92168" lon="6.51895">
        <ele>2242.41</ele>
        <time>2019-04-05T13:13:07Z</time>
      </trkpt>
      <trkpt lat="45.92167" lon="6.51897">
        <ele>2242.41</ele>
        <time>2019-04-05T13:13:09Z</time>
      </trkpt>
      <trkpt lat="45.92167" lon="6.51898">
        <ele>2242.89</ele>
        <time>2019-04-05T13:13:10Z</time>
      </trkpt>
      <trkpt lat="45.92167" lon="6.51901">
        <ele>2243.37</ele>
        <time>2019-04-05T13:13:13Z</time>
      </trkpt>
      <trkpt lat="45.92166" lon="6.51902">
        <ele>2243.37</ele>
        <time>2019-04-05T13:13:14Z</time>
      </trkpt>
      <trkpt lat="45.92166" lon="6.51907">
        <ele>2243.85</ele>
        <time>2019-04-05T13:13:18Z</time>
      </trkpt>
      <trkpt lat="45.92166" lon="6.51908">
        <ele>2243.85</ele>
        <time>2019-04-05T13:13:19Z</time>
      </trkpt>
      <trkpt lat="45.92167" lon="6.5191">
        <ele>2244.33</ele>
        <time>2019-04-05T13:13:21Z</time>
      </trkpt>
      <trkpt lat="45.92167" lon="6.51911">
        <ele>2244.33</ele>
        <time>2019-04-05T13:13:22Z</time>
      </trkpt>
      <trkpt lat="45.92168" lon="6.51919">
        <ele>2245.3</ele>
        <time>2019-04-05T13:13:30Z</time>
      </trkpt>
      <trkpt lat="45.92171" lon="6.51933">
        <ele>2248.18</ele>
        <time>2019-04-05T13:13:47Z</time>
      </trkpt>
      <trkpt lat="45.92179" lon="6.51948">
        <ele>2251.54</ele>
        <time>2019-04-05T13:14:06Z</time>
      </trkpt>
      <trkpt lat="45.92184" lon="6.51962">
        <ele>2254.43</ele>
        <time>2019-04-05T13:14:24Z</time>
      </trkpt>
      <trkpt lat="45.92186" lon="6.51967">
        <ele>2255.39</ele>
        <time>2019-04-05T13:14:30Z</time>
      </trkpt>
      <trkpt lat="45.92186" lon="6.51974">
        <ele>2257.31</ele>
        <time>2019-04-05T13:14:39Z</time>
      </trkpt>
      <trkpt lat="45.92185" lon="6.51974">
        <ele>2257.79</ele>
        <time>2019-04-05T13:14:41Z</time>
      </trkpt>
      <trkpt lat="45.92178" lon="6.51979">
        <ele>2259.24</ele>
        <time>2019-04-05T13:14:53Z</time>
      </trkpt>
      <trkpt lat="45.92176" lon="6.5198">
        <ele>2259.24</ele>
        <time>2019-04-05T13:14:55Z</time>
      </trkpt>
      <trkpt lat="45.92175" lon="6.51999">
        <ele>2262.12</ele>
        <time>2019-04-05T13:15:17Z</time>
      </trkpt>
      <trkpt lat="45.9218" lon="6.52011">
        <ele>2265.48</ele>
        <time>2019-04-05T13:15:35Z</time>
      </trkpt>
      <trkpt lat="45.92183" lon="6.52025">
        <ele>2267.89</ele>
        <time>2019-04-05T13:15:51Z</time>
      </trkpt>
      <trkpt lat="45.92179" lon="6.5203">
        <ele>2268.85</ele>
        <time>2019-04-05T13:15:59Z</time>
      </trkpt>
      <trkpt lat="45.9217" lon="6.52033">
        <ele>2272.21</ele>
        <time>2019-04-05T13:16:15Z</time>
      </trkpt>
      <trkpt lat="45.92164" lon="6.52035">
        <ele>2274.14</ele>
        <time>2019-04-05T13:16:24Z</time>
      </trkpt>
      <trkpt lat="45.92153" lon="6.52037">
        <ele>2277.02</ele>
        <time>2019-04-05T13:16:44Z</time>
      </trkpt>
      <trkpt lat="45.92148" lon="6.52042">
        <ele>2280.38</ele>
        <time>2019-04-05T13:17:02Z</time>
      </trkpt>
      <trkpt lat="45.92147" lon="6.52044">
        <ele>2280.38</ele>
        <time>2019-04-05T13:17:04Z</time>
      </trkpt>
      <trkpt lat="45.92151" lon="6.52056">
        <ele>2283.27</ele>
        <time>2019-04-05T13:17:21Z</time>
      </trkpt>
      <trkpt lat="45.92154" lon="6.52072">
        <ele>2285.67</ele>
        <time>2019-04-05T13:17:38Z</time>
      </trkpt>
      <trkpt lat="45.92156" lon="6.52077">
        <ele>2286.15</ele>
        <time>2019-04-05T13:17:43Z</time>
      </trkpt>
      <trkpt lat="45.92163" lon="6.52095">
        <ele>2289.52</ele>
        <time>2019-04-05T13:18:05Z</time>
      </trkpt>
      <trkpt lat="45.92169" lon="6.52108">
        <ele>2292.4</ele>
        <time>2019-04-05T13:18:23Z</time>
      </trkpt>
      <trkpt lat="45.92177" lon="6.52123">
        <ele>2295.77</ele>
        <time>2019-04-05T13:18:42Z</time>
      </trkpt>
      <trkpt lat="45.92178" lon="6.52128">
        <ele>2297.21</ele>
        <time>2019-04-05T13:18:49Z</time>
      </trkpt>
      <trkpt lat="45.92184" lon="6.52143">
        <ele>2300.09</ele>
        <time>2019-04-05T13:19:09Z</time>
      </trkpt>
      <trkpt lat="45.92184" lon="6.52145">
        <ele>2300.57</ele>
        <time>2019-04-05T13:19:12Z</time>
      </trkpt>
      <trkpt lat="45.92177" lon="6.52155">
        <ele>2303.94</ele>
        <time>2019-04-05T13:19:30Z</time>
      </trkpt>
      <trkpt lat="45.92179" lon="6.52168">
        <ele>2306.34</ele>
        <time>2019-04-05T13:19:44Z</time>
      </trkpt>
      <trkpt lat="45.92182" lon="6.52175">
        <ele>2307.78</ele>
        <time>2019-04-05T13:19:54Z</time>
      </trkpt>
      <trkpt lat="45.92187" lon="6.52189">
        <ele>2309.7</ele>
        <time>2019-04-05T13:20:09Z</time>
      </trkpt>
      <trkpt lat="45.92189" lon="6.52202">
        <ele>2312.59</ele>
        <time>2019-04-05T13:20:24Z</time>
      </trkpt>
      <trkpt lat="45.92191" lon="6.5221">
        <ele>2314.03</ele>
        <time>2019-04-05T13:20:34Z</time>
      </trkpt>
      <trkpt lat="45.92194" lon="6.52222">
        <ele>2316.43</ele>
        <time>2019-04-05T13:20:47Z</time>
      </trkpt>
      <trkpt lat="45.92195" lon="6.52225">
        <ele>2316.91</ele>
        <time>2019-04-05T13:20:51Z</time>
      </trkpt>
      <trkpt lat="45.92198" lon="6.52242">
        <ele>2319.8</ele>
        <time>2019-04-05T13:21:10Z</time>
      </trkpt>
      <trkpt lat="45.92202" lon="6.52255">
        <ele>2323.16</ele>
        <time>2019-04-05T13:21:30Z</time>
      </trkpt>
      <trkpt lat="45.92204" lon="6.52256">
        <ele>2323.16</ele>
        <time>2019-04-05T13:21:32Z</time>
      </trkpt>
      <trkpt lat="45.92208" lon="6.52263">
        <ele>2324.61</ele>
        <time>2019-04-05T13:21:42Z</time>
      </trkpt>
      <trkpt lat="45.92205" lon="6.52274">
        <ele>2327.49</ele>
        <time>2019-04-05T13:21:59Z</time>
      </trkpt>
      <trkpt lat="45.92201" lon="6.52277">
        <ele>2328.93</ele>
        <time>2019-04-05T13:22:04Z</time>
      </trkpt>
      <trkpt lat="45.92199" lon="6.52283">
        <ele>2330.85</ele>
        <time>2019-04-05T13:22:17Z</time>
      </trkpt>
      <trkpt lat="45.92218" lon="6.52289">
        <ele>2334.22</ele>
        <time>2019-04-05T13:22:45Z</time>
      </trkpt>
      <trkpt lat="45.92218" lon="6.52291">
        <ele>2334.22</ele>
        <time>2019-04-05T13:22:52Z</time>
      </trkpt>
      <trkpt lat="45.92217" lon="6.52294">
        <ele>2334.7</ele>
        <time>2019-04-05T13:22:55Z</time>
      </trkpt>
      <trkpt lat="45.92216" lon="6.52298">
        <ele>2335.66</ele>
        <time>2019-04-05T13:23:00Z</time>
      </trkpt>
      <trkpt lat="45.92214" lon="6.52305">
        <ele>2337.58</ele>
        <time>2019-04-05T13:23:09Z</time>
      </trkpt>
      <trkpt lat="45.92208" lon="6.52312">
        <ele>2340.95</ele>
        <time>2019-04-05T13:23:25Z</time>
      </trkpt>
      <trkpt lat="45.92209" lon="6.52313">
        <ele>2342.39</ele>
        <time>2019-04-05T13:23:39Z</time>
      </trkpt>
      <trkpt lat="45.92209" lon="6.52313">
        <ele>2342.87</ele>
        <time>2019-04-05T13:23:40Z</time>
      </trkpt>
      <trkpt lat="45.92224" lon="6.52319">
        <ele>2345.75</ele>
        <time>2019-04-05T13:24:03Z</time>
      </trkpt>
      <trkpt lat="45.9223" lon="6.52327">
        <ele>2349.12</ele>
        <time>2019-04-05T13:24:22Z</time>
      </trkpt>
      <trkpt lat="45.9223" lon="6.52332">
        <ele>2349.6</ele>
        <time>2019-04-05T13:24:28Z</time>
      </trkpt>
      <trkpt lat="45.92232" lon="6.52339">
        <ele>2352.96</ele>
        <time>2019-04-05T13:24:44Z</time>
      </trkpt>
      <trkpt lat="45.92243" lon="6.52342">
        <ele>2356.33</ele>
        <time>2019-04-05T13:25:02Z</time>
      </trkpt>
      <trkpt lat="45.92244" lon="6.52343">
        <ele>2356.81</ele>
        <time>2019-04-05T13:25:04Z</time>
      </trkpt>
      <trkpt lat="45.92245" lon="6.52345">
        <ele>2356.81</ele>
        <time>2019-04-05T13:25:06Z</time>
      </trkpt>
      <trkpt lat="45.92257" lon="6.52352">
        <ele>2360.17</ele>
        <time>2019-04-05T13:25:28Z</time>
      </trkpt>
      <trkpt lat="45.92258" lon="6.52356">
        <ele>2361.14</ele>
        <time>2019-04-05T13:25:46Z</time>
      </trkpt>
      <trkpt lat="45.92257" lon="6.52359">
        <ele>2360.65</ele>
        <time>2019-04-05T13:25:47Z</time>
      </trkpt>
      <trkpt lat="45.92256" lon="6.52361">
        <ele>2360.17</ele>
        <time>2019-04-05T13:25:48Z</time>
      </trkpt>
      <trkpt lat="45.92247" lon="6.52384">
        <ele>2361.14</ele>
        <time>2019-04-05T13:26:09Z</time>
      </trkpt>
      <trkpt lat="45.92239" lon="6.52387">
        <ele>2364.02</ele>
        <time>2019-04-05T13:26:22Z</time>
      </trkpt>
      <trkpt lat="45.92237" lon="6.52388">
        <ele>2364.02</ele>
        <time>2019-04-05T13:26:24Z</time>
      </trkpt>
      <trkpt lat="45.92227" lon="6.52389">
        <ele>2367.38</ele>
        <time>2019-04-05T13:26:42Z</time>
      </trkpt>
      <trkpt lat="45.92225" lon="6.5239">
        <ele>2368.35</ele>
        <time>2019-04-05T13:26:46Z</time>
      </trkpt>
      <trkpt lat="45.92223" lon="6.5239">
        <ele>2368.83</ele>
        <time>2019-04-05T13:26:48Z</time>
      </trkpt>
      <trkpt lat="45.92221" lon="6.5239">
        <ele>2369.31</ele>
        <time>2019-04-05T13:26:53Z</time>
      </trkpt>
      <trkpt lat="45.9222" lon="6.5239">
        <ele>2369.79</ele>
        <time>2019-04-05T13:26:55Z</time>
      </trkpt>
      <trkpt lat="45.92218" lon="6.5239">
        <ele>2371.23</ele>
        <time>2019-04-05T13:27:02Z</time>
      </trkpt>
      <trkpt lat="45.9221" lon="6.52391">
        <ele>2374.11</ele>
        <time>2019-04-05T13:27:18Z</time>
      </trkpt>
      <trkpt lat="45.92208" lon="6.5239">
        <ele>2374.59</ele>
        <time>2019-04-05T13:27:20Z</time>
      </trkpt>
      <trkpt lat="45.92206" lon="6.52391">
        <ele>2375.07</ele>
        <time>2019-04-05T13:27:24Z</time>
      </trkpt>
      <trkpt lat="45.92199" lon="6.5239">
        <ele>2378.44</ele>
        <time>2019-04-05T13:27:42Z</time>
      </trkpt>
      <trkpt lat="45.92193" lon="6.52389">
        <ele>2381.32</ele>
        <time>2019-04-05T13:28:06Z</time>
      </trkpt>
      <trkpt lat="45.9219" lon="6.52391">
        <ele>2381.8</ele>
        <time>2019-04-05T13:28:11Z</time>
      </trkpt>
      <trkpt lat="45.92183" lon="6.52394">
        <ele>2384.69</ele>
        <time>2019-04-05T13:28:25Z</time>
      </trkpt>
      <trkpt lat="45.92175" lon="6.524">
        <ele>2388.05</ele>
        <time>2019-04-05T13:28:44Z</time>
      </trkpt>
      <trkpt lat="45.92169" lon="6.52403">
        <ele>2390.94</ele>
        <time>2019-04-05T13:28:58Z</time>
      </trkpt>
      <trkpt lat="45.92168" lon="6.52404">
        <ele>2391.42</ele>
        <time>2019-04-05T13:29:00Z</time>
      </trkpt>
      <trkpt lat="45.92161" lon="6.5241">
        <ele>2394.78</ele>
        <time>2019-04-05T13:29:20Z</time>
      </trkpt>
      <trkpt lat="45.92155" lon="6.52412">
        <ele>2397.67</ele>
        <time>2019-04-05T13:29:33Z</time>
      </trkpt>
      <trkpt lat="45.92145" lon="6.52414">
        <ele>2401.03</ele>
        <time>2019-04-05T13:29:53Z</time>
      </trkpt>
      <trkpt lat="45.92134" lon="6.52414">
        <ele>2403.91</ele>
        <time>2019-04-05T13:30:19Z</time>
      </trkpt>
      <trkpt lat="45.92128" lon="6.52415">
        <ele>2406.8</ele>
        <time>2019-04-05T13:30:37Z</time>
      </trkpt>
      <trkpt lat="45.92125" lon="6.52416">
        <ele>2410.16</ele>
        <time>2019-04-05T13:30:52Z</time>
      </trkpt>
      <trkpt lat="45.92124" lon="6.52417">
        <ele>2411.6</ele>
        <time>2019-04-05T13:31:42Z</time>
      </trkpt>
      <trkpt lat="45.92126" lon="6.52418">
        <ele>2411.12</ele>
        <time>2019-04-05T13:32:01Z</time>
      </trkpt>
      <trkpt lat="45.92126" lon="6.52416">
        <ele>2410.16</ele>
        <time>2019-04-05T13:32:36Z</time>
      </trkpt>
      <trkpt lat="45.92126" lon="6.52417">
        <ele>2410.64</ele>
        <time>2019-04-05T13:33:10Z</time>
      </trkpt>
      <trkpt lat="45.92127" lon="6.52418">
        <ele>2410.16</ele>
        <time>2019-04-05T13:33:48Z</time>
      </trkpt>
      <trkpt lat="45.92128" lon="6.52417">
        <ele>2410.64</ele>
        <time>2019-04-05T13:35:29Z</time>
      </trkpt>
      <trkpt lat="45.92128" lon="6.52419">
        <ele>2411.12</ele>
        <time>2019-04-05T13:36:45Z</time>
      </trkpt>
      <trkpt lat="45.92129" lon="6.52418">
        <ele>2410.64</ele>
        <time>2019-04-05T13:37:12Z</time>
      </trkpt>
      <trkpt lat="45.9213" lon="6.52417">
        <ele>2410.64</ele>
        <time>2019-04-05T13:37:44Z</time>
      </trkpt>
      <trkpt lat="45.92129" lon="6.52418">
        <ele>2410.64</ele>
        <time>2019-04-05T13:37:52Z</time>
      </trkpt>
      <trkpt lat="45.92126" lon="6.52417">
        <ele>2410.16</ele>
        <time>2019-04-05T13:40:25Z</time>
      </trkpt>
      <trkpt lat="45.92125" lon="6.52415">
        <ele>2410.16</ele>
        <time>2019-04-05T13:40:27Z</time>
      </trkpt>
      <trkpt lat="45.92124" lon="6.52413">
        <ele>2409.68</ele>
        <time>2019-04-05T13:40:28Z</time>
      </trkpt>
      <trkpt lat="45.92118" lon="6.52402">
        <ele>2408.72</ele>
        <time>2019-04-05T13:40:37Z</time>
      </trkpt>
      <trkpt lat="45.92117" lon="6.524">
        <ele>2408.24</ele>
        <time>2019-04-05T13:40:38Z</time>
      </trkpt>
      <trkpt lat="45.92117" lon="6.52396">
        <ele>2408.24</ele>
        <time>2019-04-05T13:40:39Z</time>
      </trkpt>
      <trkpt lat="45.92117" lon="6.5239">
        <ele>2407.28</ele>
        <time>2019-04-05T13:40:40Z</time>
      </trkpt>
      <trkpt lat="45.92118" lon="6.52383">
        <ele>2406.32</ele>
        <time>2019-04-05T13:40:41Z</time>
      </trkpt>
      <trkpt lat="45.92119" lon="6.52375">
        <ele>2404.39</ele>
        <time>2019-04-05T13:40:42Z</time>
      </trkpt>
      <trkpt lat="45.92119" lon="6.52364">
        <ele>2400.55</ele>
        <time>2019-04-05T13:40:43Z</time>
      </trkpt>
      <trkpt lat="45.92121" lon="6.52353">
        <ele>2397.18</ele>
        <time>2019-04-05T13:40:44Z</time>
      </trkpt>
      <trkpt lat="45.92123" lon="6.52343">
        <ele>2392.38</ele>
        <time>2019-04-05T13:40:45Z</time>
      </trkpt>
      <trkpt lat="45.92124" lon="6.52332">
        <ele>2387.57</ele>
        <time>2019-04-05T13:40:46Z</time>
      </trkpt>
      <trkpt lat="45.92123" lon="6.52322">
        <ele>2383.73</ele>
        <time>2019-04-05T13:40:47Z</time>
      </trkpt>
      <trkpt lat="45.92123" lon="6.52313">
        <ele>2378.44</ele>
        <time>2019-04-05T13:40:48Z</time>
      </trkpt>
      <trkpt lat="45.92123" lon="6.52303">
        <ele>2375.07</ele>
        <time>2019-04-05T13:40:49Z</time>
      </trkpt>
      <trkpt lat="45.92122" lon="6.52295">
        <ele>2371.71</ele>
        <time>2019-04-05T13:40:50Z</time>
      </trkpt>
      <trkpt lat="45.92123" lon="6.52285">
        <ele>2367.86</ele>
        <time>2019-04-05T13:40:51Z</time>
      </trkpt>
      <trkpt lat="45.92125" lon="6.52274">
        <ele>2364.02</ele>
        <time>2019-04-05T13:40:52Z</time>
      </trkpt>
      <trkpt lat="45.92126" lon="6.52264">
        <ele>2359.21</ele>
        <time>2019-04-05T13:40:53Z</time>
      </trkpt>
      <trkpt lat="45.92126" lon="6.52253">
        <ele>2354.89</ele>
        <time>2019-04-05T13:40:54Z</time>
      </trkpt>
      <trkpt lat="45.92128" lon="6.52243">
        <ele>2350.56</ele>
        <time>2019-04-05T13:40:55Z</time>
      </trkpt>
      <trkpt lat="45.92129" lon="6.52232">
        <ele>2345.75</ele>
        <time>2019-04-05T13:40:56Z</time>
      </trkpt>
      <trkpt lat="45.92132" lon="6.52221">
        <ele>2341.91</ele>
        <time>2019-04-05T13:40:57Z</time>
      </trkpt>
      <trkpt lat="45.92135" lon="6.5221">
        <ele>2338.54</ele>
        <time>2019-04-05T13:40:58Z</time>
      </trkpt>
      <trkpt lat="45.92137" lon="6.52199">
        <ele>2334.22</ele>
        <time>2019-04-05T13:40:59Z</time>
      </trkpt>
      <trkpt lat="45.92141" lon="6.52187">
        <ele>2327.49</ele>
        <time>2019-04-05T13:41:00Z</time>
      </trkpt>
      <trkpt lat="45.92145" lon="6.52174">
        <ele>2322.68</ele>
        <time>2019-04-05T13:41:01Z</time>
      </trkpt>
      <trkpt lat="45.92149" lon="6.52162">
        <ele>2318.36</ele>
        <time>2019-04-05T13:41:02Z</time>
      </trkpt>
      <trkpt lat="45.92152" lon="6.5215">
        <ele>2313.07</ele>
        <time>2019-04-05T13:41:03Z</time>
      </trkpt>
      <trkpt lat="45.92154" lon="6.52137">
        <ele>2309.22</ele>
        <time>2019-04-05T13:41:04Z</time>
      </trkpt>
      <trkpt lat="45.92155" lon="6.52125">
        <ele>2304.9</ele>
        <time>2019-04-05T13:41:05Z</time>
      </trkpt>
      <trkpt lat="45.92155" lon="6.52115">
        <ele>2301.53</ele>
        <time>2019-04-05T13:41:06Z</time>
      </trkpt>
      <trkpt lat="45.92155" lon="6.52105">
        <ele>2299.61</ele>
        <time>2019-04-05T13:41:07Z</time>
      </trkpt>
      <trkpt lat="45.92157" lon="6.52097">
        <ele>2296.73</ele>
        <time>2019-04-05T13:41:08Z</time>
      </trkpt>
      <trkpt lat="45.92159" lon="6.52092">
        <ele>2294.8</ele>
        <time>2019-04-05T13:41:09Z</time>
      </trkpt>
      <trkpt lat="45.92162" lon="6.52091">
        <ele>2293.36</ele>
        <time>2019-04-05T13:41:10Z</time>
      </trkpt>
      <trkpt lat="45.92164" lon="6.5209">
        <ele>2292.4</ele>
        <time>2019-04-05T13:41:11Z</time>
      </trkpt>
      <trkpt lat="45.92166" lon="6.5209">
        <ele>2292.4</ele>
        <time>2019-04-05T13:41:12Z</time>
      </trkpt>
      <trkpt lat="45.92181" lon="6.52086">
        <ele>2289.04</ele>
        <time>2019-04-05T13:41:17Z</time>
      </trkpt>
      <trkpt lat="45.92194" lon="6.52085">
        <ele>2284.71</ele>
        <time>2019-04-05T13:41:21Z</time>
      </trkpt>
      <trkpt lat="45.92208" lon="6.52082">
        <ele>2280.38</ele>
        <time>2019-04-05T13:41:24Z</time>
      </trkpt>
      <trkpt lat="45.92219" lon="6.52076">
        <ele>2276.06</ele>
        <time>2019-04-05T13:41:26Z</time>
      </trkpt>
      <trkpt lat="45.92225" lon="6.52072">
        <ele>2273.66</ele>
        <time>2019-04-05T13:41:27Z</time>
      </trkpt>
      <trkpt lat="45.92233" lon="6.52067">
        <ele>2270.77</ele>
        <time>2019-04-05T13:41:28Z</time>
      </trkpt>
      <trkpt lat="45.9224" lon="6.52065">
        <ele>2266.45</ele>
        <time>2019-04-05T13:41:29Z</time>
      </trkpt>
      <trkpt lat="45.92247" lon="6.52063">
        <ele>2262.6</ele>
        <time>2019-04-05T13:41:30Z</time>
      </trkpt>
      <trkpt lat="45.92253" lon="6.52063">
        <ele>2259.24</ele>
        <time>2019-04-05T13:41:31Z</time>
      </trkpt>
      <trkpt lat="45.92259" lon="6.52063">
        <ele>2254.91</ele>
        <time>2019-04-05T13:41:32Z</time>
      </trkpt>
      <trkpt lat="45.92264" lon="6.52063">
        <ele>2251.06</ele>
        <time>2019-04-05T13:41:33Z</time>
      </trkpt>
      <trkpt lat="45.9227" lon="6.52062">
        <ele>2247.22</ele>
        <time>2019-04-05T13:41:34Z</time>
      </trkpt>
      <trkpt lat="45.92278" lon="6.52059">
        <ele>2242.41</ele>
        <time>2019-04-05T13:41:35Z</time>
      </trkpt>
      <trkpt lat="45.92285" lon="6.52054">
        <ele>2237.61</ele>
        <time>2019-04-05T13:41:36Z</time>
      </trkpt>
      <trkpt lat="45.92292" lon="6.52045">
        <ele>2232.8</ele>
        <time>2019-04-05T13:41:37Z</time>
      </trkpt>
      <trkpt lat="45.92298" lon="6.52035">
        <ele>2228.47</ele>
        <time>2019-04-05T13:41:38Z</time>
      </trkpt>
      <trkpt lat="45.92302" lon="6.52027">
        <ele>2224.15</ele>
        <time>2019-04-05T13:41:39Z</time>
      </trkpt>
      <trkpt lat="45.92306" lon="6.52018">
        <ele>2220.78</ele>
        <time>2019-04-05T13:41:40Z</time>
      </trkpt>
      <trkpt lat="45.92312" lon="6.52005">
        <ele>2216.46</ele>
        <time>2019-04-05T13:41:42Z</time>
      </trkpt>
      <trkpt lat="45.92315" lon="6.51991">
        <ele>2213.09</ele>
        <time>2019-04-05T13:41:45Z</time>
      </trkpt>
      <trkpt lat="45.92316" lon="6.51987">
        <ele>2212.61</ele>
        <time>2019-04-05T13:41:47Z</time>
      </trkpt>
      <trkpt lat="45.92313" lon="6.51999">
        <ele>2212.13</ele>
        <time>2019-04-05T13:42:36Z</time>
      </trkpt>
      <trkpt lat="45.92306" lon="6.51998">
        <ele>2212.13</ele>
        <time>2019-04-05T13:44:23Z</time>
      </trkpt>
      <trkpt lat="45.92308" lon="6.51999">
        <ele>2211.65</ele>
        <time>2019-04-05T13:46:04Z</time>
      </trkpt>
      <trkpt lat="45.92311" lon="6.51999">
        <ele>2211.65</ele>
        <time>2019-04-05T13:46:07Z</time>
      </trkpt>
      <trkpt lat="45.92305" lon="6.52001">
        <ele>2211.17</ele>
        <time>2019-04-05T13:47:34Z</time>
      </trkpt>
      <trkpt lat="45.92311" lon="6.52001">
        <ele>2211.65</ele>
        <time>2019-04-05T13:48:27Z</time>
      </trkpt>
      <trkpt lat="45.92308" lon="6.52004">
        <ele>2212.13</ele>
        <time>2019-04-05T13:49:27Z</time>
      </trkpt>
      <trkpt lat="45.92308" lon="6.52007">
        <ele>2212.61</ele>
        <time>2019-04-05T13:49:29Z</time>
      </trkpt>
      <trkpt lat="45.92309" lon="6.52045">
        <ele>2215.01</ele>
        <time>2019-04-05T13:49:59Z</time>
      </trkpt>
      <trkpt lat="45.9231" lon="6.52064">
        <ele>2217.9</ele>
        <time>2019-04-05T13:50:18Z</time>
      </trkpt>
      <trkpt lat="45.9231" lon="6.5207">
        <ele>2218.38</ele>
        <time>2019-04-05T13:50:24Z</time>
      </trkpt>
      <trkpt lat="45.92312" lon="6.52085">
        <ele>2220.78</ele>
        <time>2019-04-05T13:50:40Z</time>
      </trkpt>
      <trkpt lat="45.92312" lon="6.52088">
        <ele>2221.74</ele>
        <time>2019-04-05T13:50:44Z</time>
      </trkpt>
      <trkpt lat="45.92315" lon="6.52098">
        <ele>2223.19</ele>
        <time>2019-04-05T13:50:55Z</time>
      </trkpt>
      <trkpt lat="45.92315" lon="6.521">
        <ele>2224.15</ele>
        <time>2019-04-05T13:50:57Z</time>
      </trkpt>
      <trkpt lat="45.92317" lon="6.52113">
        <ele>2226.07</ele>
        <time>2019-04-05T13:51:09Z</time>
      </trkpt>
      <trkpt lat="45.92317" lon="6.52115">
        <ele>2226.55</ele>
        <time>2019-04-05T13:51:11Z</time>
      </trkpt>
      <trkpt lat="45.9232" lon="6.52131">
        <ele>2228.95</ele>
        <time>2019-04-05T13:51:28Z</time>
      </trkpt>
      <trkpt lat="45.92327" lon="6.52146">
        <ele>2231.84</ele>
        <time>2019-04-05T13:51:49Z</time>
      </trkpt>
      <trkpt lat="45.92332" lon="6.52151">
        <ele>2233.28</ele>
        <time>2019-04-05T13:51:57Z</time>
      </trkpt>
      <trkpt lat="45.92339" lon="6.52168">
        <ele>2235.68</ele>
        <time>2019-04-05T13:52:21Z</time>
      </trkpt>
      <trkpt lat="45.92343" lon="6.52175">
        <ele>2237.13</ele>
        <time>2019-04-05T13:52:33Z</time>
      </trkpt>
      <trkpt lat="45.92346" lon="6.5219">
        <ele>2239.53</ele>
        <time>2019-04-05T13:52:53Z</time>
      </trkpt>
      <trkpt lat="45.92346" lon="6.5221">
        <ele>2242.41</ele>
        <time>2019-04-05T13:53:19Z</time>
      </trkpt>
      <trkpt lat="45.92345" lon="6.52227">
        <ele>2245.78</ele>
        <time>2019-04-05T13:53:42Z</time>
      </trkpt>
      <trkpt lat="45.92347" lon="6.52242">
        <ele>2248.66</ele>
        <time>2019-04-05T13:54:08Z</time>
      </trkpt>
      <trkpt lat="45.92347" lon="6.52258">
        <ele>2252.03</ele>
        <time>2019-04-05T13:54:33Z</time>
      </trkpt>
      <trkpt lat="45.92347" lon="6.52273">
        <ele>2254.91</ele>
        <time>2019-04-05T13:55:00Z</time>
      </trkpt>
      <trkpt lat="45.92341" lon="6.52288">
        <ele>2257.79</ele>
        <time>2019-04-05T13:55:35Z</time>
      </trkpt>
      <trkpt lat="45.92335" lon="6.5228">
        <ele>2261.16</ele>
        <time>2019-04-05T13:55:58Z</time>
      </trkpt>
      <trkpt lat="45.92332" lon="6.52277">
        <ele>2261.64</ele>
        <time>2019-04-05T13:56:06Z</time>
      </trkpt>
      <trkpt lat="45.92334" lon="6.52284">
        <ele>2265</ele>
        <time>2019-04-05T13:56:35Z</time>
      </trkpt>
      <trkpt lat="45.92334" lon="6.52298">
        <ele>2268.37</ele>
        <time>2019-04-05T13:56:55Z</time>
      </trkpt>
      <trkpt lat="45.92333" lon="6.52316">
        <ele>2271.25</ele>
        <time>2019-04-05T13:57:19Z</time>
      </trkpt>
      <trkpt lat="45.92332" lon="6.52332">
        <ele>2274.62</ele>
        <time>2019-04-05T13:57:43Z</time>
      </trkpt>
      <trkpt lat="45.92331" lon="6.52333">
        <ele>2277.5</ele>
        <time>2019-04-05T13:58:19Z</time>
      </trkpt>
      <trkpt lat="45.9233" lon="6.52348">
        <ele>2280.38</ele>
        <time>2019-04-05T13:58:39Z</time>
      </trkpt>
      <trkpt lat="45.92323" lon="6.52349">
        <ele>2283.75</ele>
        <time>2019-04-05T13:59:04Z</time>
      </trkpt>
      <trkpt lat="45.92322" lon="6.52348">
        <ele>2283.75</ele>
        <time>2019-04-05T13:59:05Z</time>
      </trkpt>
      <trkpt lat="45.92321" lon="6.52346">
        <ele>2284.23</ele>
        <time>2019-04-05T13:59:07Z</time>
      </trkpt>
      <trkpt lat="45.92318" lon="6.52346">
        <ele>2287.59</ele>
        <time>2019-04-05T13:59:27Z</time>
      </trkpt>
      <trkpt lat="45.92323" lon="6.52363">
        <ele>2290.48</ele>
        <time>2019-04-05T13:59:48Z</time>
      </trkpt>
      <trkpt lat="45.92326" lon="6.52377">
        <ele>2293.36</ele>
        <time>2019-04-05T14:00:05Z</time>
      </trkpt>
      <trkpt lat="45.92326" lon="6.52378">
        <ele>2293.36</ele>
        <time>2019-04-05T14:00:07Z</time>
      </trkpt>
      <trkpt lat="45.92328" lon="6.52381">
        <ele>2294.32</ele>
        <time>2019-04-05T14:00:11Z</time>
      </trkpt>
      <trkpt lat="45.92321" lon="6.52389">
        <ele>2297.21</ele>
        <time>2019-04-05T14:00:31Z</time>
      </trkpt>
      <trkpt lat="45.92315" lon="6.52387">
        <ele>2299.13</ele>
        <time>2019-04-05T14:00:42Z</time>
      </trkpt>
      <trkpt lat="45.92315" lon="6.52398">
        <ele>2302.01</ele>
        <time>2019-04-05T14:01:04Z</time>
      </trkpt>
      <trkpt lat="45.9232" lon="6.52411">
        <ele>2304.9</ele>
        <time>2019-04-05T14:01:22Z</time>
      </trkpt>
      <trkpt lat="45.92324" lon="6.52427">
        <ele>2308.26</ele>
        <time>2019-04-05T14:01:42Z</time>
      </trkpt>
      <trkpt lat="45.92323" lon="6.52438">
        <ele>2310.67</ele>
        <time>2019-04-05T14:01:56Z</time>
      </trkpt>
      <trkpt lat="45.92323" lon="6.52441">
        <ele>2311.15</ele>
        <time>2019-04-05T14:02:00Z</time>
      </trkpt>
      <trkpt lat="45.92327" lon="6.52455">
        <ele>2314.03</ele>
        <time>2019-04-05T14:02:22Z</time>
      </trkpt>
      <trkpt lat="45.9233" lon="6.52463">
        <ele>2315.47</ele>
        <time>2019-04-05T14:02:31Z</time>
      </trkpt>
      <trkpt lat="45.92329" lon="6.5248">
        <ele>2316.43</ele>
        <time>2019-04-05T14:02:45Z</time>
      </trkpt>
      <trkpt lat="45.92329" lon="6.52481">
        <ele>2316.43</ele>
        <time>2019-04-05T14:02:46Z</time>
      </trkpt>
      <trkpt lat="45.92327" lon="6.52503">
        <ele>2316.91</ele>
        <time>2019-04-05T14:03:04Z</time>
      </trkpt>
      <trkpt lat="45.92327" lon="6.52505">
        <ele>2316.91</ele>
        <time>2019-04-05T14:03:06Z</time>
      </trkpt>
      <trkpt lat="45.92333" lon="6.52519">
        <ele>2319.32</ele>
        <time>2019-04-05T14:03:22Z</time>
      </trkpt>
      <trkpt lat="45.92339" lon="6.52529">
        <ele>2322.2</ele>
        <time>2019-04-05T14:03:40Z</time>
      </trkpt>
      <trkpt lat="45.92344" lon="6.52534">
        <ele>2324.12</ele>
        <time>2019-04-05T14:03:51Z</time>
      </trkpt>
      <trkpt lat="45.92335" lon="6.52547">
        <ele>2327.01</ele>
        <time>2019-04-05T14:04:14Z</time>
      </trkpt>
      <trkpt lat="45.9233" lon="6.52563">
        <ele>2330.37</ele>
        <time>2019-04-05T14:04:32Z</time>
      </trkpt>
      <trkpt lat="45.92328" lon="6.52569">
        <ele>2331.33</ele>
        <time>2019-04-05T14:04:40Z</time>
      </trkpt>
      <trkpt lat="45.92327" lon="6.52571">
        <ele>2331.33</ele>
        <time>2019-04-05T14:04:41Z</time>
      </trkpt>
      <trkpt lat="45.92331" lon="6.52573">
        <ele>2333.74</ele>
        <time>2019-04-05T14:04:57Z</time>
      </trkpt>
      <trkpt lat="45.92327" lon="6.52587">
        <ele>2336.62</ele>
        <time>2019-04-05T14:05:24Z</time>
      </trkpt>
      <trkpt lat="45.92323" lon="6.52595">
        <ele>2338.06</ele>
        <time>2019-04-05T14:05:34Z</time>
      </trkpt>
      <trkpt lat="45.92322" lon="6.52602">
        <ele>2339.51</ele>
        <time>2019-04-05T14:05:43Z</time>
      </trkpt>
      <trkpt lat="45.92325" lon="6.52624">
        <ele>2342.39</ele>
        <time>2019-04-05T14:06:13Z</time>
      </trkpt>
      <trkpt lat="45.92325" lon="6.52635">
        <ele>2345.75</ele>
        <time>2019-04-05T14:06:33Z</time>
      </trkpt>
      <trkpt lat="45.92324" lon="6.52648">
        <ele>2348.64</ele>
        <time>2019-04-05T14:06:53Z</time>
      </trkpt>
      <trkpt lat="45.92325" lon="6.52661">
        <ele>2352</ele>
        <time>2019-04-05T14:07:14Z</time>
      </trkpt>
      <trkpt lat="45.92322" lon="6.52677">
        <ele>2354.89</ele>
        <time>2019-04-05T14:07:35Z</time>
      </trkpt>
      <trkpt lat="45.92326" lon="6.5269">
        <ele>2357.77</ele>
        <time>2019-04-05T14:07:57Z</time>
      </trkpt>
      <trkpt lat="45.92322" lon="6.52695">
        <ele>2361.14</ele>
        <time>2019-04-05T14:08:33Z</time>
      </trkpt>
      <trkpt lat="45.92318" lon="6.52699">
        <ele>2364.02</ele>
        <time>2019-04-05T14:08:55Z</time>
      </trkpt>
      <trkpt lat="45.92325" lon="6.52715">
        <ele>2367.38</ele>
        <time>2019-04-05T14:09:19Z</time>
      </trkpt>
      <trkpt lat="45.92322" lon="6.52726">
        <ele>2370.27</ele>
        <time>2019-04-05T14:09:43Z</time>
      </trkpt>
      <trkpt lat="45.9232" lon="6.52736">
        <ele>2373.63</ele>
        <time>2019-04-05T14:10:01Z</time>
      </trkpt>
      <trkpt lat="45.92329" lon="6.52746">
        <ele>2376.52</ele>
        <time>2019-04-05T14:10:23Z</time>
      </trkpt>
      <trkpt lat="45.92325" lon="6.52757">
        <ele>2379.4</ele>
        <time>2019-04-05T14:10:43Z</time>
      </trkpt>
      <trkpt lat="45.92318" lon="6.5277">
        <ele>2381.8</ele>
        <time>2019-04-05T14:11:04Z</time>
      </trkpt>
      <trkpt lat="45.92308" lon="6.52781">
        <ele>2383.73</ele>
        <time>2019-04-05T14:11:28Z</time>
      </trkpt>
      <trkpt lat="45.92309" lon="6.52781">
        <ele>2383.73</ele>
        <time>2019-04-05T14:11:29Z</time>
      </trkpt>
      <trkpt lat="45.92296" lon="6.52785">
        <ele>2386.61</ele>
        <time>2019-04-05T14:11:52Z</time>
      </trkpt>
      <trkpt lat="45.92288" lon="6.52792">
        <ele>2389.97</ele>
        <time>2019-04-05T14:12:10Z</time>
      </trkpt>
      <trkpt lat="45.9229" lon="6.52805">
        <ele>2392.86</ele>
        <time>2019-04-05T14:12:33Z</time>
      </trkpt>
      <trkpt lat="45.92299" lon="6.52816">
        <ele>2396.22</ele>
        <time>2019-04-05T14:12:55Z</time>
      </trkpt>
      <trkpt lat="45.92307" lon="6.52823">
        <ele>2399.11</ele>
        <time>2019-04-05T14:13:13Z</time>
      </trkpt>
      <trkpt lat="45.92305" lon="6.52832">
        <ele>2401.99</ele>
        <time>2019-04-05T14:13:30Z</time>
      </trkpt>
      <trkpt lat="45.92312" lon="6.52843">
        <ele>2405.36</ele>
        <time>2019-04-05T14:13:51Z</time>
      </trkpt>
      <trkpt lat="45.92318" lon="6.52851">
        <ele>2406.8</ele>
        <time>2019-04-05T14:14:03Z</time>
      </trkpt>
      <trkpt lat="45.92328" lon="6.52863">
        <ele>2410.16</ele>
        <time>2019-04-05T14:14:25Z</time>
      </trkpt>
      <trkpt lat="45.92333" lon="6.52882">
        <ele>2413.05</ele>
        <time>2019-04-05T14:14:49Z</time>
      </trkpt>
      <trkpt lat="45.92334" lon="6.52885">
        <ele>2414.01</ele>
        <time>2019-04-05T14:14:53Z</time>
      </trkpt>
      <trkpt lat="45.92338" lon="6.529">
        <ele>2416.89</ele>
        <time>2019-04-05T14:15:13Z</time>
      </trkpt>
      <trkpt lat="45.92344" lon="6.52913">
        <ele>2419.78</ele>
        <time>2019-04-05T14:15:32Z</time>
      </trkpt>
      <trkpt lat="45.92354" lon="6.52919">
        <ele>2423.14</ele>
        <time>2019-04-05T14:15:49Z</time>
      </trkpt>
      <trkpt lat="45.92364" lon="6.52933">
        <ele>2426.02</ele>
        <time>2019-04-05T14:16:11Z</time>
      </trkpt>
      <trkpt lat="45.92366" lon="6.52936">
        <ele>2426.99</ele>
        <time>2019-04-05T14:16:15Z</time>
      </trkpt>
      <trkpt lat="45.92367" lon="6.52938">
        <ele>2426.99</ele>
        <time>2019-04-05T14:16:17Z</time>
      </trkpt>
      <trkpt lat="45.92373" lon="6.52952">
        <ele>2430.35</ele>
        <time>2019-04-05T14:16:37Z</time>
      </trkpt>
      <trkpt lat="45.92376" lon="6.52958">
        <ele>2431.31</ele>
        <time>2019-04-05T14:16:44Z</time>
      </trkpt>
      <trkpt lat="45.92384" lon="6.52965">
        <ele>2434.2</ele>
        <time>2019-04-05T14:17:01Z</time>
      </trkpt>
      <trkpt lat="45.92388" lon="6.52977">
        <ele>2437.08</ele>
        <time>2019-04-05T14:17:21Z</time>
      </trkpt>
      <trkpt lat="45.9239" lon="6.52982">
        <ele>2438.52</ele>
        <time>2019-04-05T14:17:29Z</time>
      </trkpt>
      <trkpt lat="45.92395" lon="6.52987">
        <ele>2439.96</ele>
        <time>2019-04-05T14:17:37Z</time>
      </trkpt>
      <trkpt lat="45.92405" lon="6.53008">
        <ele>2442.37</ele>
        <time>2019-04-05T14:18:02Z</time>
      </trkpt>
      <trkpt lat="45.92406" lon="6.53009">
        <ele>2442.85</ele>
        <time>2019-04-05T14:18:03Z</time>
      </trkpt>
      <trkpt lat="45.92409" lon="6.53017">
        <ele>2443.81</ele>
        <time>2019-04-05T14:18:13Z</time>
      </trkpt>
      <trkpt lat="45.92411" lon="6.53022">
        <ele>2444.29</ele>
        <time>2019-04-05T14:18:19Z</time>
      </trkpt>
      <trkpt lat="45.92415" lon="6.53029">
        <ele>2444.77</ele>
        <time>2019-04-05T14:18:26Z</time>
      </trkpt>
      <trkpt lat="45.92416" lon="6.53031">
        <ele>2444.77</ele>
        <time>2019-04-05T14:18:28Z</time>
      </trkpt>
      <trkpt lat="45.92417" lon="6.53032">
        <ele>2444.77</ele>
        <time>2019-04-05T14:18:30Z</time>
      </trkpt>
      <trkpt lat="45.92419" lon="6.53036">
        <ele>2444.77</ele>
        <time>2019-04-05T14:18:34Z</time>
      </trkpt>
      <trkpt lat="45.92421" lon="6.53037">
        <ele>2444.77</ele>
        <time>2019-04-05T14:18:36Z</time>
      </trkpt>
      <trkpt lat="45.92431" lon="6.53053">
        <ele>2448.13</ele>
        <time>2019-04-05T14:19:01Z</time>
      </trkpt>
      <trkpt lat="45.92445" lon="6.5306">
        <ele>2451.02</ele>
        <time>2019-04-05T14:19:27Z</time>
      </trkpt>
      <trkpt lat="45.92456" lon="6.53063">
        <ele>2454.38</ele>
        <time>2019-04-05T14:19:47Z</time>
      </trkpt>
      <trkpt lat="45.92467" lon="6.53063">
        <ele>2457.27</ele>
        <time>2019-04-05T14:20:20Z</time>
      </trkpt>
      <trkpt lat="45.9248" lon="6.53059">
        <ele>2460.15</ele>
        <time>2019-04-05T14:20:47Z</time>
      </trkpt>
      <trkpt lat="45.92486" lon="6.53055">
        <ele>2461.59</ele>
        <time>2019-04-05T14:21:06Z</time>
      </trkpt>
      <trkpt lat="45.92494" lon="6.53049">
        <ele>2462.07</ele>
        <time>2019-04-05T14:21:23Z</time>
      </trkpt>
      <trkpt lat="45.925" lon="6.53037">
        <ele>2462.55</ele>
        <time>2019-04-05T14:21:40Z</time>
      </trkpt>
      <trkpt lat="45.92503" lon="6.53031">
        <ele>2462.55</ele>
        <time>2019-04-05T14:21:47Z</time>
      </trkpt>
      <trkpt lat="45.92505" lon="6.53027">
        <ele>2462.55</ele>
        <time>2019-04-05T14:21:51Z</time>
      </trkpt>
      <trkpt lat="45.9251" lon="6.53017">
        <ele>2464</ele>
        <time>2019-04-05T14:22:03Z</time>
      </trkpt>
      <trkpt lat="45.92521" lon="6.52985">
        <ele>2466.88</ele>
        <time>2019-04-05T14:22:38Z</time>
      </trkpt>
      <trkpt lat="45.92522" lon="6.52984">
        <ele>2467.36</ele>
        <time>2019-04-05T14:22:39Z</time>
      </trkpt>
      <trkpt lat="45.92523" lon="6.52981">
        <ele>2467.36</ele>
        <time>2019-04-05T14:22:43Z</time>
      </trkpt>
      <trkpt lat="45.92524" lon="6.52979">
        <ele>2467.36</ele>
        <time>2019-04-05T14:22:45Z</time>
      </trkpt>
      <trkpt lat="45.92527" lon="6.52967">
        <ele>2468.8</ele>
        <time>2019-04-05T14:22:59Z</time>
      </trkpt>
      <trkpt lat="45.9253" lon="6.52952">
        <ele>2470.73</ele>
        <time>2019-04-05T14:23:16Z</time>
      </trkpt>
      <trkpt lat="45.92531" lon="6.52949">
        <ele>2471.21</ele>
        <time>2019-04-05T14:23:20Z</time>
      </trkpt>
      <trkpt lat="45.92538" lon="6.52925">
        <ele>2473.61</ele>
        <time>2019-04-05T14:23:52Z</time>
      </trkpt>
      <trkpt lat="45.92542" lon="6.52917">
        <ele>2474.09</ele>
        <time>2019-04-05T14:24:04Z</time>
      </trkpt>
      <trkpt lat="45.9255" lon="6.52884">
        <ele>2475.05</ele>
        <time>2019-04-05T14:24:51Z</time>
      </trkpt>
      <trkpt lat="45.9255" lon="6.52882">
        <ele>2475.05</ele>
        <time>2019-04-05T14:24:53Z</time>
      </trkpt>
      <trkpt lat="45.92551" lon="6.52878">
        <ele>2475.05</ele>
        <time>2019-04-05T14:24:57Z</time>
      </trkpt>
      <trkpt lat="45.92552" lon="6.52876">
        <ele>2475.05</ele>
        <time>2019-04-05T14:24:59Z</time>
      </trkpt>
      <trkpt lat="45.92554" lon="6.52864">
        <ele>2475.53</ele>
        <time>2019-04-05T14:25:12Z</time>
      </trkpt>
      <trkpt lat="45.92555" lon="6.5286">
        <ele>2476.01</ele>
        <time>2019-04-05T14:25:16Z</time>
      </trkpt>
      <trkpt lat="45.92556" lon="6.52857">
        <ele>2476.01</ele>
        <time>2019-04-05T14:25:20Z</time>
      </trkpt>
      <trkpt lat="45.92559" lon="6.52848">
        <ele>2476.01</ele>
        <time>2019-04-05T14:25:28Z</time>
      </trkpt>
      <trkpt lat="45.9256" lon="6.52844">
        <ele>2476.49</ele>
        <time>2019-04-05T14:25:32Z</time>
      </trkpt>
      <trkpt lat="45.92562" lon="6.52838">
        <ele>2476.97</ele>
        <time>2019-04-05T14:25:38Z</time>
      </trkpt>
      <trkpt lat="45.92563" lon="6.52834">
        <ele>2476.97</ele>
        <time>2019-04-05T14:25:42Z</time>
      </trkpt>
      <trkpt lat="45.92564" lon="6.52832">
        <ele>2477.45</ele>
        <time>2019-04-05T14:25:44Z</time>
      </trkpt>
      <trkpt lat="45.92567" lon="6.52824">
        <ele>2477.45</ele>
        <time>2019-04-05T14:25:53Z</time>
      </trkpt>
      <trkpt lat="45.92569" lon="6.52818">
        <ele>2477.45</ele>
        <time>2019-04-05T14:25:59Z</time>
      </trkpt>
      <trkpt lat="45.92575" lon="6.52802">
        <ele>2477.94</ele>
        <time>2019-04-05T14:26:14Z</time>
      </trkpt>
      <trkpt lat="45.92577" lon="6.52801">
        <ele>2477.94</ele>
        <time>2019-04-05T14:26:16Z</time>
      </trkpt>
      <trkpt lat="45.9259" lon="6.52763">
        <ele>2479.86</ele>
        <time>2019-04-05T14:26:54Z</time>
      </trkpt>
      <trkpt lat="45.92598" lon="6.52744">
        <ele>2481.3</ele>
        <time>2019-04-05T14:27:15Z</time>
      </trkpt>
      <trkpt lat="45.92607" lon="6.52722">
        <ele>2484.18</ele>
        <time>2019-04-05T14:27:42Z</time>
      </trkpt>
      <trkpt lat="45.92614" lon="6.52708">
        <ele>2487.55</ele>
        <time>2019-04-05T14:28:04Z</time>
      </trkpt>
      <trkpt lat="45.92619" lon="6.52694">
        <ele>2490.43</ele>
        <time>2019-04-05T14:28:24Z</time>
      </trkpt>
      <trkpt lat="45.92623" lon="6.52684">
        <ele>2493.8</ele>
        <time>2019-04-05T14:28:44Z</time>
      </trkpt>
      <trkpt lat="45.92626" lon="6.52675">
        <ele>2496.68</ele>
        <time>2019-04-05T14:29:05Z</time>
      </trkpt>
      <trkpt lat="45.9263" lon="6.52676">
        <ele>2499.57</ele>
        <time>2019-04-05T14:29:33Z</time>
      </trkpt>
      <trkpt lat="45.92635" lon="6.52667">
        <ele>2502.93</ele>
        <time>2019-04-05T14:30:00Z</time>
      </trkpt>
      <trkpt lat="45.9264" lon="6.52659">
        <ele>2506.29</ele>
        <time>2019-04-05T14:30:21Z</time>
      </trkpt>
      <trkpt lat="45.92644" lon="6.52652">
        <ele>2509.18</ele>
        <time>2019-04-05T14:31:06Z</time>
      </trkpt>
      <trkpt lat="45.92652" lon="6.52626">
        <ele>2512.06</ele>
        <time>2019-04-05T14:31:52Z</time>
      </trkpt>
      <trkpt lat="45.92661" lon="6.52604">
        <ele>2513.98</ele>
        <time>2019-04-05T14:32:32Z</time>
      </trkpt>
      <trkpt lat="45.92669" lon="6.52587">
        <ele>2511.58</ele>
        <time>2019-04-05T14:33:03Z</time>
      </trkpt>
      <trkpt lat="45.92672" lon="6.52575">
        <ele>2508.7</ele>
        <time>2019-04-05T14:33:51Z</time>
      </trkpt>
      <trkpt lat="45.92679" lon="6.52564">
        <ele>2507.74</ele>
        <time>2019-04-05T14:34:23Z</time>
      </trkpt>
      <trkpt lat="45.92681" lon="6.52564">
        <ele>2507.74</ele>
        <time>2019-04-05T14:36:45Z</time>
      </trkpt>
      <trkpt lat="45.92681" lon="6.52563">
        <ele>2507.26</ele>
        <time>2019-04-05T14:37:33Z</time>
      </trkpt>
      <trkpt lat="45.92681" lon="6.52566">
        <ele>2507.74</ele>
        <time>2019-04-05T14:39:08Z</time>
      </trkpt>
      <trkpt lat="45.92681" lon="6.52565">
        <ele>2506.77</ele>
        <time>2019-04-05T14:39:35Z</time>
      </trkpt>
      <trkpt lat="45.92679" lon="6.52566">
        <ele>2507.26</ele>
        <time>2019-04-05T14:40:20Z</time>
      </trkpt>
      <trkpt lat="45.92678" lon="6.52558">
        <ele>2505.81</ele>
        <time>2019-04-05T14:41:56Z</time>
      </trkpt>
      <trkpt lat="45.92678" lon="6.52556">
        <ele>2505.33</ele>
        <time>2019-04-05T14:41:57Z</time>
      </trkpt>
      <trkpt lat="45.92678" lon="6.52554">
        <ele>2503.89</ele>
        <time>2019-04-05T14:42:00Z</time>
      </trkpt>
      <trkpt lat="45.92677" lon="6.5255">
        <ele>2502.93</ele>
        <time>2019-04-05T14:42:10Z</time>
      </trkpt>
      <trkpt lat="45.92676" lon="6.52547">
        <ele>2501.01</ele>
        <time>2019-04-05T14:42:13Z</time>
      </trkpt>
      <trkpt lat="45.92676" lon="6.52545">
        <ele>2500.53</ele>
        <time>2019-04-05T14:42:14Z</time>
      </trkpt>
      <trkpt lat="45.92676" lon="6.52544">
        <ele>2499.08</ele>
        <time>2019-04-05T14:42:17Z</time>
      </trkpt>
      <trkpt lat="45.92674" lon="6.52541">
        <ele>2498.6</ele>
        <time>2019-04-05T14:42:23Z</time>
      </trkpt>
      <trkpt lat="45.92673" lon="6.5254">
        <ele>2497.64</ele>
        <time>2019-04-05T14:42:24Z</time>
      </trkpt>
      <trkpt lat="45.92671" lon="6.5254">
        <ele>2494.76</ele>
        <time>2019-04-05T14:42:44Z</time>
      </trkpt>
      <trkpt lat="45.92671" lon="6.52541">
        <ele>2495.24</ele>
        <time>2019-04-05T14:42:57Z</time>
      </trkpt>
      <trkpt lat="45.9267" lon="6.52539">
        <ele>2495.24</ele>
        <time>2019-04-05T14:42:58Z</time>
      </trkpt>
      <trkpt lat="45.92669" lon="6.52537">
        <ele>2495.24</ele>
        <time>2019-04-05T14:42:59Z</time>
      </trkpt>
      <trkpt lat="45.9267" lon="6.52536">
        <ele>2494.76</ele>
        <time>2019-04-05T14:43:00Z</time>
      </trkpt>
      <trkpt lat="45.92671" lon="6.52534">
        <ele>2493.8</ele>
        <time>2019-04-05T14:43:02Z</time>
      </trkpt>
      <trkpt lat="45.9268" lon="6.52522">
        <ele>2491.87</ele>
        <time>2019-04-05T14:43:30Z</time>
      </trkpt>
      <trkpt lat="45.92689" lon="6.52503">
        <ele>2488.51</ele>
        <time>2019-04-05T14:43:44Z</time>
      </trkpt>
      <trkpt lat="45.92698" lon="6.52496">
        <ele>2485.15</ele>
        <time>2019-04-05T14:43:48Z</time>
      </trkpt>
      <trkpt lat="45.92704" lon="6.5249">
        <ele>2481.78</ele>
        <time>2019-04-05T14:43:53Z</time>
      </trkpt>
      <trkpt lat="45.92708" lon="6.52492">
        <ele>2480.82</ele>
        <time>2019-04-05T14:44:01Z</time>
      </trkpt>
      <trkpt lat="45.92707" lon="6.52492">
        <ele>2480.82</ele>
        <time>2019-04-05T14:44:08Z</time>
      </trkpt>
      <trkpt lat="45.92705" lon="6.52491">
        <ele>2479.86</ele>
        <time>2019-04-05T14:44:09Z</time>
      </trkpt>
      <trkpt lat="45.92703" lon="6.5249">
        <ele>2479.38</ele>
        <time>2019-04-05T14:44:10Z</time>
      </trkpt>
      <trkpt lat="45.927" lon="6.52489">
        <ele>2477.94</ele>
        <time>2019-04-05T14:44:11Z</time>
      </trkpt>
      <trkpt lat="45.927" lon="6.52484">
        <ele>2476.49</ele>
        <time>2019-04-05T14:44:12Z</time>
      </trkpt>
      <trkpt lat="45.927" lon="6.5248">
        <ele>2474.09</ele>
        <time>2019-04-05T14:44:13Z</time>
      </trkpt>
      <trkpt lat="45.92699" lon="6.52475">
        <ele>2472.65</ele>
        <time>2019-04-05T14:44:14Z</time>
      </trkpt>
      <trkpt lat="45.92697" lon="6.52471">
        <ele>2471.21</ele>
        <time>2019-04-05T14:44:15Z</time>
      </trkpt>
      <trkpt lat="45.92695" lon="6.52467">
        <ele>2470.24</ele>
        <time>2019-04-05T14:44:16Z</time>
      </trkpt>
      <trkpt lat="45.92695" lon="6.52461">
        <ele>2466.4</ele>
        <time>2019-04-05T14:44:17Z</time>
      </trkpt>
      <trkpt lat="45.92695" lon="6.52454">
        <ele>2464</ele>
        <time>2019-04-05T14:44:18Z</time>
      </trkpt>
      <trkpt lat="45.92695" lon="6.52449">
        <ele>2462.07</ele>
        <time>2019-04-05T14:44:19Z</time>
      </trkpt>
      <trkpt lat="45.92691" lon="6.52444">
        <ele>2459.67</ele>
        <time>2019-04-05T14:44:20Z</time>
      </trkpt>
      <trkpt lat="45.92689" lon="6.52437">
        <ele>2457.27</ele>
        <time>2019-04-05T14:44:21Z</time>
      </trkpt>
      <trkpt lat="45.92689" lon="6.5243">
        <ele>2454.38</ele>
        <time>2019-04-05T14:44:22Z</time>
      </trkpt>
      <trkpt lat="45.92686" lon="6.52425">
        <ele>2450.54</ele>
        <time>2019-04-05T14:44:23Z</time>
      </trkpt>
      <trkpt lat="45.92683" lon="6.5242">
        <ele>2447.17</ele>
        <time>2019-04-05T14:44:24Z</time>
      </trkpt>
      <trkpt lat="45.92681" lon="6.52412">
        <ele>2443.81</ele>
        <time>2019-04-05T14:44:25Z</time>
      </trkpt>
      <trkpt lat="45.92681" lon="6.52404">
        <ele>2439.48</ele>
        <time>2019-04-05T14:44:26Z</time>
      </trkpt>
      <trkpt lat="45.9268" lon="6.52396">
        <ele>2436.6</ele>
        <time>2019-04-05T14:44:27Z</time>
      </trkpt>
      <trkpt lat="45.92676" lon="6.52393">
        <ele>2433.71</ele>
        <time>2019-04-05T14:44:28Z</time>
      </trkpt>
      <trkpt lat="45.9267" lon="6.52394">
        <ele>2430.35</ele>
        <time>2019-04-05T14:44:29Z</time>
      </trkpt>
      <trkpt lat="45.92664" lon="6.52394">
        <ele>2427.47</ele>
        <time>2019-04-05T14:44:30Z</time>
      </trkpt>
      <trkpt lat="45.92661" lon="6.52397">
        <ele>2423.14</ele>
        <time>2019-04-05T14:44:32Z</time>
      </trkpt>
      <trkpt lat="45.92659" lon="6.52395">
        <ele>2418.33</ele>
        <time>2019-04-05T14:44:35Z</time>
      </trkpt>
      <trkpt lat="45.92656" lon="6.52392">
        <ele>2417.37</ele>
        <time>2019-04-05T14:44:36Z</time>
      </trkpt>
      <trkpt lat="45.92653" lon="6.52389">
        <ele>2415.93</ele>
        <time>2019-04-05T14:44:37Z</time>
      </trkpt>
      <trkpt lat="45.92652" lon="6.52387">
        <ele>2414.01</ele>
        <time>2019-04-05T14:44:38Z</time>
      </trkpt>
      <trkpt lat="45.92651" lon="6.52385">
        <ele>2411.12</ele>
        <time>2019-04-05T14:44:39Z</time>
      </trkpt>
      <trkpt lat="45.92651" lon="6.52384">
        <ele>2409.2</ele>
        <time>2019-04-05T14:44:40Z</time>
      </trkpt>
      <trkpt lat="45.92651" lon="6.52382">
        <ele>2406.8</ele>
        <time>2019-04-05T14:44:42Z</time>
      </trkpt>
      <trkpt lat="45.9265" lon="6.52382">
        <ele>2405.36</ele>
        <time>2019-04-05T14:44:46Z</time>
      </trkpt>
      <trkpt lat="45.92649" lon="6.52383">
        <ele>2404.88</ele>
        <time>2019-04-05T14:44:52Z</time>
      </trkpt>
      <trkpt lat="45.9265" lon="6.52384">
        <ele>2404.88</ele>
        <time>2019-04-05T14:44:58Z</time>
      </trkpt>
      <trkpt lat="45.92649" lon="6.52386">
        <ele>2404.88</ele>
        <time>2019-04-05T14:45:04Z</time>
      </trkpt>
      <trkpt lat="45.92649" lon="6.52387">
        <ele>2404.88</ele>
        <time>2019-04-05T14:45:12Z</time>
      </trkpt>
      <trkpt lat="45.92649" lon="6.52388">
        <ele>2404.39</ele>
        <time>2019-04-05T14:45:27Z</time>
      </trkpt>
      <trkpt lat="45.92647" lon="6.52386">
        <ele>2404.39</ele>
        <time>2019-04-05T14:45:28Z</time>
      </trkpt>
      <trkpt lat="45.92647" lon="6.52384">
        <ele>2403.91</ele>
        <time>2019-04-05T14:45:29Z</time>
      </trkpt>
      <trkpt lat="45.92647" lon="6.5238">
        <ele>2401.99</ele>
        <time>2019-04-05T14:45:31Z</time>
      </trkpt>
      <trkpt lat="45.92645" lon="6.52379">
        <ele>2401.51</ele>
        <time>2019-04-05T14:45:32Z</time>
      </trkpt>
      <trkpt lat="45.92642" lon="6.52376">
        <ele>2400.07</ele>
        <time>2019-04-05T14:45:33Z</time>
      </trkpt>
      <trkpt lat="45.92642" lon="6.52373">
        <ele>2398.15</ele>
        <time>2019-04-05T14:45:34Z</time>
      </trkpt>
      <trkpt lat="45.92643" lon="6.52371">
        <ele>2395.26</ele>
        <time>2019-04-05T14:45:37Z</time>
      </trkpt>
      <trkpt lat="45.92643" lon="6.52371">
        <ele>2394.78</ele>
        <time>2019-04-05T14:45:38Z</time>
      </trkpt>
      <trkpt lat="45.92642" lon="6.52369">
        <ele>2394.78</ele>
        <time>2019-04-05T14:45:41Z</time>
      </trkpt>
      <trkpt lat="45.92641" lon="6.52369">
        <ele>2394.3</ele>
        <time>2019-04-05T14:45:42Z</time>
      </trkpt>
      <trkpt lat="45.92638" lon="6.52365">
        <ele>2392.38</ele>
        <time>2019-04-05T14:45:44Z</time>
      </trkpt>
      <trkpt lat="45.92639" lon="6.52361">
        <ele>2390.94</ele>
        <time>2019-04-05T14:45:45Z</time>
      </trkpt>
      <trkpt lat="45.92641" lon="6.52353">
        <ele>2387.57</ele>
        <time>2019-04-05T14:45:48Z</time>
      </trkpt>
      <trkpt lat="45.92639" lon="6.52352">
        <ele>2386.61</ele>
        <time>2019-04-05T14:45:49Z</time>
      </trkpt>
      <trkpt lat="45.92636" lon="6.52352">
        <ele>2385.17</ele>
        <time>2019-04-05T14:45:50Z</time>
      </trkpt>
      <trkpt lat="45.92633" lon="6.52349">
        <ele>2384.21</ele>
        <time>2019-04-05T14:45:51Z</time>
      </trkpt>
      <trkpt lat="45.92632" lon="6.52346">
        <ele>2382.76</ele>
        <time>2019-04-05T14:45:52Z</time>
      </trkpt>
      <trkpt lat="45.92631" lon="6.52342">
        <ele>2380.36</ele>
        <time>2019-04-05T14:45:53Z</time>
      </trkpt>
      <trkpt lat="45.92628" lon="6.5234">
        <ele>2378.92</ele>
        <time>2019-04-05T14:45:54Z</time>
      </trkpt>
      <trkpt lat="45.92625" lon="6.5234">
        <ele>2377</ele>
        <time>2019-04-05T14:45:55Z</time>
      </trkpt>
      <trkpt lat="45.92624" lon="6.5234">
        <ele>2375.07</ele>
        <time>2019-04-05T14:45:56Z</time>
      </trkpt>
      <trkpt lat="45.92624" lon="6.52342">
        <ele>2373.63</ele>
        <time>2019-04-05T14:45:57Z</time>
      </trkpt>
      <trkpt lat="45.92625" lon="6.52343">
        <ele>2372.67</ele>
        <time>2019-04-05T14:46:00Z</time>
      </trkpt>
      <trkpt lat="45.92623" lon="6.52341">
        <ele>2372.19</ele>
        <time>2019-04-05T14:46:03Z</time>
      </trkpt>
      <trkpt lat="45.92624" lon="6.52338">
        <ele>2372.19</ele>
        <time>2019-04-05T14:46:04Z</time>
      </trkpt>
      <trkpt lat="45.92624" lon="6.52336">
        <ele>2371.23</ele>
        <time>2019-04-05T14:46:05Z</time>
      </trkpt>
      <trkpt lat="45.92623" lon="6.52333">
        <ele>2370.27</ele>
        <time>2019-04-05T14:46:06Z</time>
      </trkpt>
      <trkpt lat="45.92621" lon="6.52332">
        <ele>2369.31</ele>
        <time>2019-04-05T14:46:07Z</time>
      </trkpt>
      <trkpt lat="45.92619" lon="6.52329">
        <ele>2367.86</ele>
        <time>2019-04-05T14:46:08Z</time>
      </trkpt>
      <trkpt lat="45.92618" lon="6.52326">
        <ele>2366.42</ele>
        <time>2019-04-05T14:46:09Z</time>
      </trkpt>
      <trkpt lat="45.92616" lon="6.52323">
        <ele>2364.5</ele>
        <time>2019-04-05T14:46:10Z</time>
      </trkpt>
      <trkpt lat="45.92614" lon="6.52322">
        <ele>2363.06</ele>
        <time>2019-04-05T14:46:11Z</time>
      </trkpt>
      <trkpt lat="45.92611" lon="6.52317">
        <ele>2361.14</ele>
        <time>2019-04-05T14:46:12Z</time>
      </trkpt>
      <trkpt lat="45.92611" lon="6.52313">
        <ele>2358.73</ele>
        <time>2019-04-05T14:46:13Z</time>
      </trkpt>
      <trkpt lat="45.92609" lon="6.52309">
        <ele>2356.81</ele>
        <time>2019-04-05T14:46:14Z</time>
      </trkpt>
      <trkpt lat="45.92606" lon="6.52307">
        <ele>2354.41</ele>
        <time>2019-04-05T14:46:15Z</time>
      </trkpt>
      <trkpt lat="45.92603" lon="6.52303">
        <ele>2352</ele>
        <time>2019-04-05T14:46:16Z</time>
      </trkpt>
      <trkpt lat="45.92603" lon="6.52298">
        <ele>2349.6</ele>
        <time>2019-04-05T14:46:17Z</time>
      </trkpt>
      <trkpt lat="45.92601" lon="6.52293">
        <ele>2347.68</ele>
        <time>2019-04-05T14:46:18Z</time>
      </trkpt>
      <trkpt lat="45.92598" lon="6.52291">
        <ele>2345.27</ele>
        <time>2019-04-05T14:46:19Z</time>
      </trkpt>
      <trkpt lat="45.92595" lon="6.52289">
        <ele>2342.87</ele>
        <time>2019-04-05T14:46:20Z</time>
      </trkpt>
      <trkpt lat="45.92594" lon="6.52284">
        <ele>2340.47</ele>
        <time>2019-04-05T14:46:21Z</time>
      </trkpt>
      <trkpt lat="45.92593" lon="6.52279">
        <ele>2339.02</ele>
        <time>2019-04-05T14:46:22Z</time>
      </trkpt>
      <trkpt lat="45.92589" lon="6.52276">
        <ele>2336.62</ele>
        <time>2019-04-05T14:46:23Z</time>
      </trkpt>
      <trkpt lat="45.92585" lon="6.52274">
        <ele>2334.22</ele>
        <time>2019-04-05T14:46:24Z</time>
      </trkpt>
      <trkpt lat="45.92582" lon="6.52271">
        <ele>2332.3</ele>
        <time>2019-04-05T14:46:25Z</time>
      </trkpt>
      <trkpt lat="45.92583" lon="6.52266">
        <ele>2329.41</ele>
        <time>2019-04-05T14:46:26Z</time>
      </trkpt>
      <trkpt lat="45.92582" lon="6.52262">
        <ele>2327.49</ele>
        <time>2019-04-05T14:46:27Z</time>
      </trkpt>
      <trkpt lat="45.9258" lon="6.52258">
        <ele>2325.57</ele>
        <time>2019-04-05T14:46:28Z</time>
      </trkpt>
      <trkpt lat="45.92576" lon="6.52257">
        <ele>2323.16</ele>
        <time>2019-04-05T14:46:29Z</time>
      </trkpt>
      <trkpt lat="45.92576" lon="6.52252">
        <ele>2321.72</ele>
        <time>2019-04-05T14:46:30Z</time>
      </trkpt>
      <trkpt lat="45.92576" lon="6.52244">
        <ele>2319.32</ele>
        <time>2019-04-05T14:46:31Z</time>
      </trkpt>
      <trkpt lat="45.92575" lon="6.52239">
        <ele>2316.91</ele>
        <time>2019-04-05T14:46:32Z</time>
      </trkpt>
      <trkpt lat="45.92571" lon="6.52237">
        <ele>2314.51</ele>
        <time>2019-04-05T14:46:33Z</time>
      </trkpt>
      <trkpt lat="45.92569" lon="6.52238">
        <ele>2313.07</ele>
        <time>2019-04-05T14:46:34Z</time>
      </trkpt>
      <trkpt lat="45.92568" lon="6.52239">
        <ele>2311.63</ele>
        <time>2019-04-05T14:46:35Z</time>
      </trkpt>
      <trkpt lat="45.92567" lon="6.52242">
        <ele>2309.7</ele>
        <time>2019-04-05T14:46:38Z</time>
      </trkpt>
      <trkpt lat="45.92569" lon="6.52245">
        <ele>2309.22</ele>
        <time>2019-04-05T14:46:41Z</time>
      </trkpt>
      <trkpt lat="45.92565" lon="6.52246">
        <ele>2309.22</ele>
        <time>2019-04-05T14:46:47Z</time>
      </trkpt>
      <trkpt lat="45.92563" lon="6.52242">
        <ele>2308.74</ele>
        <time>2019-04-05T14:46:48Z</time>
      </trkpt>
      <trkpt lat="45.92563" lon="6.52237">
        <ele>2307.78</ele>
        <time>2019-04-05T14:46:49Z</time>
      </trkpt>
      <trkpt lat="45.92562" lon="6.52233">
        <ele>2306.34</ele>
        <time>2019-04-05T14:46:50Z</time>
      </trkpt>
      <trkpt lat="45.92557" lon="6.5223">
        <ele>2304.42</ele>
        <time>2019-04-05T14:46:51Z</time>
      </trkpt>
      <trkpt lat="45.92554" lon="6.52224">
        <ele>2302.01</ele>
        <time>2019-04-05T14:46:52Z</time>
      </trkpt>
      <trkpt lat="45.92552" lon="6.52217">
        <ele>2299.13</ele>
        <time>2019-04-05T14:46:53Z</time>
      </trkpt>
      <trkpt lat="45.92549" lon="6.52213">
        <ele>2296.73</ele>
        <time>2019-04-05T14:46:54Z</time>
      </trkpt>
      <trkpt lat="45.92544" lon="6.52207">
        <ele>2293.84</ele>
        <time>2019-04-05T14:46:55Z</time>
      </trkpt>
      <trkpt lat="45.92544" lon="6.52202">
        <ele>2289.52</ele>
        <time>2019-04-05T14:46:56Z</time>
      </trkpt>
      <trkpt lat="45.92543" lon="6.52192">
        <ele>2286.63</ele>
        <time>2019-04-05T14:46:58Z</time>
      </trkpt>
      <trkpt lat="45.92541" lon="6.52191">
        <ele>2284.23</ele>
        <time>2019-04-05T14:46:59Z</time>
      </trkpt>
      <trkpt lat="45.92534" lon="6.5219">
        <ele>2279.42</ele>
        <time>2019-04-05T14:47:01Z</time>
      </trkpt>
      <trkpt lat="45.92534" lon="6.52188">
        <ele>2277.02</ele>
        <time>2019-04-05T14:47:02Z</time>
      </trkpt>
      <trkpt lat="45.92536" lon="6.52188">
        <ele>2276.06</ele>
        <time>2019-04-05T14:47:03Z</time>
      </trkpt>
      <trkpt lat="45.92537" lon="6.52188">
        <ele>2275.58</ele>
        <time>2019-04-05T14:47:04Z</time>
      </trkpt>
      <trkpt lat="45.9254" lon="6.52186">
        <ele>2275.1</ele>
        <time>2019-04-05T14:47:09Z</time>
      </trkpt>
      <trkpt lat="45.92542" lon="6.52186">
        <ele>2274.62</ele>
        <time>2019-04-05T14:47:10Z</time>
      </trkpt>
      <trkpt lat="45.92559" lon="6.52181">
        <ele>2271.73</ele>
        <time>2019-04-05T14:47:22Z</time>
      </trkpt>
      <trkpt lat="45.92559" lon="6.52178">
        <ele>2271.25</ele>
        <time>2019-04-05T14:47:23Z</time>
      </trkpt>
      <trkpt lat="45.92557" lon="6.52175">
        <ele>2270.29</ele>
        <time>2019-04-05T14:47:24Z</time>
      </trkpt>
      <trkpt lat="45.92557" lon="6.5217">
        <ele>2269.33</ele>
        <time>2019-04-05T14:47:25Z</time>
      </trkpt>
      <trkpt lat="45.92558" lon="6.52166">
        <ele>2267.41</ele>
        <time>2019-04-05T14:47:26Z</time>
      </trkpt>
      <trkpt lat="45.9256" lon="6.52162">
        <ele>2265.96</ele>
        <time>2019-04-05T14:47:27Z</time>
      </trkpt>
      <trkpt lat="45.9256" lon="6.52157">
        <ele>2264.52</ele>
        <time>2019-04-05T14:47:28Z</time>
      </trkpt>
      <trkpt lat="45.92557" lon="6.52154">
        <ele>2262.6</ele>
        <time>2019-04-05T14:47:29Z</time>
      </trkpt>
      <trkpt lat="45.92554" lon="6.52152">
        <ele>2261.64</ele>
        <time>2019-04-05T14:47:30Z</time>
      </trkpt>
      <trkpt lat="45.92551" lon="6.52149">
        <ele>2260.2</ele>
        <time>2019-04-05T14:47:31Z</time>
      </trkpt>
      <trkpt lat="45.92549" lon="6.52145">
        <ele>2259.24</ele>
        <time>2019-04-05T14:47:32Z</time>
      </trkpt>
      <trkpt lat="45.92551" lon="6.52141">
        <ele>2257.79</ele>
        <time>2019-04-05T14:47:33Z</time>
      </trkpt>
      <trkpt lat="45.92551" lon="6.52136">
        <ele>2256.83</ele>
        <time>2019-04-05T14:47:34Z</time>
      </trkpt>
      <trkpt lat="45.92551" lon="6.52131">
        <ele>2254.91</ele>
        <time>2019-04-05T14:47:35Z</time>
      </trkpt>
      <trkpt lat="45.92554" lon="6.52128">
        <ele>2252.99</ele>
        <time>2019-04-05T14:47:36Z</time>
      </trkpt>
      <trkpt lat="45.92556" lon="6.52124">
        <ele>2250.58</ele>
        <time>2019-04-05T14:47:37Z</time>
      </trkpt>
      <trkpt lat="45.92557" lon="6.52121">
        <ele>2248.66</ele>
        <time>2019-04-05T14:47:38Z</time>
      </trkpt>
      <trkpt lat="45.92555" lon="6.52114">
        <ele>2246.74</ele>
        <time>2019-04-05T14:47:39Z</time>
      </trkpt>
      <trkpt lat="45.92553" lon="6.52107">
        <ele>2244.82</ele>
        <time>2019-04-05T14:47:40Z</time>
      </trkpt>
      <trkpt lat="45.9255" lon="6.521">
        <ele>2241.93</ele>
        <time>2019-04-05T14:47:41Z</time>
      </trkpt>
      <trkpt lat="45.92547" lon="6.52094">
        <ele>2239.05</ele>
        <time>2019-04-05T14:47:42Z</time>
      </trkpt>
      <trkpt lat="45.92544" lon="6.52086">
        <ele>2236.64</ele>
        <time>2019-04-05T14:47:43Z</time>
      </trkpt>
      <trkpt lat="45.92541" lon="6.52077">
        <ele>2234.72</ele>
        <time>2019-04-05T14:47:44Z</time>
      </trkpt>
      <trkpt lat="45.92535" lon="6.52055">
        <ele>2227.03</ele>
        <time>2019-04-05T14:47:46Z</time>
      </trkpt>
      <trkpt lat="45.92531" lon="6.52042">
        <ele>2223.19</ele>
        <time>2019-04-05T14:47:47Z</time>
      </trkpt>
      <trkpt lat="45.92526" lon="6.52029">
        <ele>2219.34</ele>
        <time>2019-04-05T14:47:48Z</time>
      </trkpt>
      <trkpt lat="45.92524" lon="6.52016">
        <ele>2213.09</ele>
        <time>2019-04-05T14:47:49Z</time>
      </trkpt>
      <trkpt lat="45.92522" lon="6.52004">
        <ele>2207.81</ele>
        <time>2019-04-05T14:47:50Z</time>
      </trkpt>
      <trkpt lat="45.9252" lon="6.51989">
        <ele>2204.44</ele>
        <time>2019-04-05T14:47:51Z</time>
      </trkpt>
      <trkpt lat="45.92519" lon="6.51975">
        <ele>2200.59</ele>
        <time>2019-04-05T14:47:52Z</time>
      </trkpt>
      <trkpt lat="45.92517" lon="6.51963">
        <ele>2194.83</ele>
        <time>2019-04-05T14:47:53Z</time>
      </trkpt>
      <trkpt lat="45.92516" lon="6.51955">
        <ele>2190.5</ele>
        <time>2019-04-05T14:47:54Z</time>
      </trkpt>
      <trkpt lat="45.92514" lon="6.51945">
        <ele>2187.62</ele>
        <time>2019-04-05T14:47:55Z</time>
      </trkpt>
      <trkpt lat="45.92514" lon="6.51942">
        <ele>2185.69</ele>
        <time>2019-04-05T14:47:56Z</time>
      </trkpt>
      <trkpt lat="45.92515" lon="6.5194">
        <ele>2182.81</ele>
        <time>2019-04-05T14:47:57Z</time>
      </trkpt>
      <trkpt lat="45.9252" lon="6.51938">
        <ele>2179.93</ele>
        <time>2019-04-05T14:47:58Z</time>
      </trkpt>
      <trkpt lat="45.92525" lon="6.51936">
        <ele>2178</ele>
        <time>2019-04-05T14:47:59Z</time>
      </trkpt>
      <trkpt lat="45.92528" lon="6.51933">
        <ele>2176.56</ele>
        <time>2019-04-05T14:48:00Z</time>
      </trkpt>
      <trkpt lat="45.92531" lon="6.51926">
        <ele>2175.6</ele>
        <time>2019-04-05T14:48:01Z</time>
      </trkpt>
      <trkpt lat="45.92533" lon="6.51922">
        <ele>2174.16</ele>
        <time>2019-04-05T14:48:02Z</time>
      </trkpt>
      <trkpt lat="45.92536" lon="6.51917">
        <ele>2171.76</ele>
        <time>2019-04-05T14:48:03Z</time>
      </trkpt>
      <trkpt lat="45.9254" lon="6.51913">
        <ele>2169.83</ele>
        <time>2019-04-05T14:48:04Z</time>
      </trkpt>
      <trkpt lat="45.92543" lon="6.51906">
        <ele>2167.43</ele>
        <time>2019-04-05T14:48:05Z</time>
      </trkpt>
      <trkpt lat="45.92546" lon="6.51897">
        <ele>2165.03</ele>
        <time>2019-04-05T14:48:06Z</time>
      </trkpt>
      <trkpt lat="45.92549" lon="6.51885">
        <ele>2160.7</ele>
        <time>2019-04-05T14:48:07Z</time>
      </trkpt>
      <trkpt lat="45.92554" lon="6.51874">
        <ele>2155.89</ele>
        <time>2019-04-05T14:48:08Z</time>
      </trkpt>
      <trkpt lat="45.9256" lon="6.51867">
        <ele>2150.61</ele>
        <time>2019-04-05T14:48:09Z</time>
      </trkpt>
      <trkpt lat="45.92567" lon="6.51859">
        <ele>2145.8</ele>
        <time>2019-04-05T14:48:10Z</time>
      </trkpt>
      <trkpt lat="45.92572" lon="6.51845">
        <ele>2140.03</ele>
        <time>2019-04-05T14:48:11Z</time>
      </trkpt>
      <trkpt lat="45.92578" lon="6.51835">
        <ele>2133.3</ele>
        <time>2019-04-05T14:48:12Z</time>
      </trkpt>
      <trkpt lat="45.92585" lon="6.51828">
        <ele>2127.53</ele>
        <time>2019-04-05T14:48:13Z</time>
      </trkpt>
      <trkpt lat="45.92591" lon="6.51818">
        <ele>2123.21</ele>
        <time>2019-04-05T14:48:14Z</time>
      </trkpt>
      <trkpt lat="45.92598" lon="6.51808">
        <ele>2117.92</ele>
        <time>2019-04-05T14:48:15Z</time>
      </trkpt>
      <trkpt lat="45.92603" lon="6.51798">
        <ele>2113.12</ele>
        <time>2019-04-05T14:48:16Z</time>
      </trkpt>
      <trkpt lat="45.92608" lon="6.51787">
        <ele>2109.27</ele>
        <time>2019-04-05T14:48:17Z</time>
      </trkpt>
      <trkpt lat="45.92613" lon="6.51777">
        <ele>2106.39</ele>
        <time>2019-04-05T14:48:18Z</time>
      </trkpt>
      <trkpt lat="45.92617" lon="6.51767">
        <ele>2103.5</ele>
        <time>2019-04-05T14:48:19Z</time>
      </trkpt>
      <trkpt lat="45.9262" lon="6.51756">
        <ele>2099.66</ele>
        <time>2019-04-05T14:48:20Z</time>
      </trkpt>
      <trkpt lat="45.92624" lon="6.51739">
        <ele>2093.41</ele>
        <time>2019-04-05T14:48:22Z</time>
      </trkpt>
      <trkpt lat="45.92627" lon="6.51725">
        <ele>2088.6</ele>
        <time>2019-04-05T14:48:24Z</time>
      </trkpt>
      <trkpt lat="45.92628" lon="6.51715">
        <ele>2086.2</ele>
        <time>2019-04-05T14:48:25Z</time>
      </trkpt>
      <trkpt lat="45.92627" lon="6.51709">
        <ele>2083.31</ele>
        <time>2019-04-05T14:48:26Z</time>
      </trkpt>
      <trkpt lat="45.92626" lon="6.51696">
        <ele>2078.99</ele>
        <time>2019-04-05T14:48:28Z</time>
      </trkpt>
      <trkpt lat="45.92629" lon="6.5169">
        <ele>2076.59</ele>
        <time>2019-04-05T14:48:29Z</time>
      </trkpt>
      <trkpt lat="45.92633" lon="6.51684">
        <ele>2074.18</ele>
        <time>2019-04-05T14:48:30Z</time>
      </trkpt>
      <trkpt lat="45.92637" lon="6.51674">
        <ele>2068.89</ele>
        <time>2019-04-05T14:48:31Z</time>
      </trkpt>
      <trkpt lat="45.92641" lon="6.51664">
        <ele>2063.13</ele>
        <time>2019-04-05T14:48:32Z</time>
      </trkpt>
      <trkpt lat="45.92645" lon="6.51654">
        <ele>2057.36</ele>
        <time>2019-04-05T14:48:33Z</time>
      </trkpt>
      <trkpt lat="45.9265" lon="6.5164">
        <ele>2051.59</ele>
        <time>2019-04-05T14:48:34Z</time>
      </trkpt>
      <trkpt lat="45.92657" lon="6.51626">
        <ele>2043.42</ele>
        <time>2019-04-05T14:48:35Z</time>
      </trkpt>
      <trkpt lat="45.92664" lon="6.51612">
        <ele>2035.25</ele>
        <time>2019-04-05T14:48:36Z</time>
      </trkpt>
      <trkpt lat="45.92674" lon="6.51599">
        <ele>2030.44</ele>
        <time>2019-04-05T14:48:37Z</time>
      </trkpt>
      <trkpt lat="45.92682" lon="6.51583">
        <ele>2022.27</ele>
        <time>2019-04-05T14:48:38Z</time>
      </trkpt>
      <trkpt lat="45.92689" lon="6.5157">
        <ele>2017.94</ele>
        <time>2019-04-05T14:48:39Z</time>
      </trkpt>
      <trkpt lat="45.92698" lon="6.5156">
        <ele>2013.62</ele>
        <time>2019-04-05T14:48:40Z</time>
      </trkpt>
      <trkpt lat="45.92702" lon="6.51553">
        <ele>2010.73</ele>
        <time>2019-04-05T14:48:41Z</time>
      </trkpt>
      <trkpt lat="45.92707" lon="6.51547">
        <ele>2008.81</ele>
        <time>2019-04-05T14:48:42Z</time>
      </trkpt>
      <trkpt lat="45.92719" lon="6.51546">
        <ele>2007.37</ele>
        <time>2019-04-05T14:48:43Z</time>
      </trkpt>
      <trkpt lat="45.92729" lon="6.51545">
        <ele>2005.93</ele>
        <time>2019-04-05T14:48:44Z</time>
      </trkpt>
      <trkpt lat="45.92729" lon="6.51542">
        <ele>2004.49</ele>
        <time>2019-04-05T14:48:45Z</time>
      </trkpt>
      <trkpt lat="45.92729" lon="6.51539">
        <ele>2004.01</ele>
        <time>2019-04-05T14:48:46Z</time>
      </trkpt>
      <trkpt lat="45.92735" lon="6.51538">
        <ele>2003.04</ele>
        <time>2019-04-05T14:48:47Z</time>
      </trkpt>
      <trkpt lat="45.92737" lon="6.51537">
        <ele>2002.08</ele>
        <time>2019-04-05T14:48:48Z</time>
      </trkpt>
      <trkpt lat="45.92738" lon="6.51536">
        <ele>2001.12</ele>
        <time>2019-04-05T14:48:49Z</time>
      </trkpt>
      <trkpt lat="45.92736" lon="6.51533">
        <ele>2000.16</ele>
        <time>2019-04-05T14:48:50Z</time>
      </trkpt>
      <trkpt lat="45.92733" lon="6.51522">
        <ele>1996.8</ele>
        <time>2019-04-05T14:48:53Z</time>
      </trkpt>
      <trkpt lat="45.92731" lon="6.51515">
        <ele>1995.35</ele>
        <time>2019-04-05T14:48:54Z</time>
      </trkpt>
      <trkpt lat="45.92731" lon="6.51507">
        <ele>1993.43</ele>
        <time>2019-04-05T14:48:55Z</time>
      </trkpt>
      <trkpt lat="45.92737" lon="6.515">
        <ele>1991.03</ele>
        <time>2019-04-05T14:48:56Z</time>
      </trkpt>
      <trkpt lat="45.92741" lon="6.51495">
        <ele>1987.18</ele>
        <time>2019-04-05T14:48:57Z</time>
      </trkpt>
      <trkpt lat="45.92749" lon="6.51488">
        <ele>1985.26</ele>
        <time>2019-04-05T14:48:58Z</time>
      </trkpt>
      <trkpt lat="45.92758" lon="6.51483">
        <ele>1982.38</ele>
        <time>2019-04-05T14:48:59Z</time>
      </trkpt>
      <trkpt lat="45.92764" lon="6.51477">
        <ele>1979.97</ele>
        <time>2019-04-05T14:49:00Z</time>
      </trkpt>
      <trkpt lat="45.92769" lon="6.51472">
        <ele>1977.09</ele>
        <time>2019-04-05T14:49:01Z</time>
      </trkpt>
      <trkpt lat="45.92774" lon="6.51465">
        <ele>1973.72</ele>
        <time>2019-04-05T14:49:02Z</time>
      </trkpt>
      <trkpt lat="45.92779" lon="6.51457">
        <ele>1970.36</ele>
        <time>2019-04-05T14:49:03Z</time>
      </trkpt>
      <trkpt lat="45.92788" lon="6.51448">
        <ele>1967.96</ele>
        <time>2019-04-05T14:49:04Z</time>
      </trkpt>
      <trkpt lat="45.9279" lon="6.5144">
        <ele>1963.15</ele>
        <time>2019-04-05T14:49:05Z</time>
      </trkpt>
      <trkpt lat="45.92794" lon="6.51432">
        <ele>1960.27</ele>
        <time>2019-04-05T14:49:06Z</time>
      </trkpt>
      <trkpt lat="45.928" lon="6.51415">
        <ele>1954.98</ele>
        <time>2019-04-05T14:49:08Z</time>
      </trkpt>
      <trkpt lat="45.92802" lon="6.51407">
        <ele>1951.61</ele>
        <time>2019-04-05T14:49:09Z</time>
      </trkpt>
      <trkpt lat="45.92807" lon="6.51399">
        <ele>1947.77</ele>
        <time>2019-04-05T14:49:10Z</time>
      </trkpt>
      <trkpt lat="45.9281" lon="6.51389">
        <ele>1943.92</ele>
        <time>2019-04-05T14:49:11Z</time>
      </trkpt>
      <trkpt lat="45.92817" lon="6.51379">
        <ele>1940.56</ele>
        <time>2019-04-05T14:49:12Z</time>
      </trkpt>
      <trkpt lat="45.92819" lon="6.5136">
        <ele>1934.79</ele>
        <time>2019-04-05T14:49:14Z</time>
      </trkpt>
      <trkpt lat="45.9282" lon="6.51352">
        <ele>1932.87</ele>
        <time>2019-04-05T14:49:15Z</time>
      </trkpt>
      <trkpt lat="45.9282" lon="6.51337">
        <ele>1929.5</ele>
        <time>2019-04-05T14:49:17Z</time>
      </trkpt>
      <trkpt lat="45.92818" lon="6.51331">
        <ele>1928.06</ele>
        <time>2019-04-05T14:49:18Z</time>
      </trkpt>
      <trkpt lat="45.92815" lon="6.51325">
        <ele>1926.62</ele>
        <time>2019-04-05T14:49:19Z</time>
      </trkpt>
      <trkpt lat="45.92813" lon="6.51314">
        <ele>1925.66</ele>
        <time>2019-04-05T14:49:21Z</time>
      </trkpt>
      <trkpt lat="45.92811" lon="6.51302">
        <ele>1923.25</ele>
        <time>2019-04-05T14:49:23Z</time>
      </trkpt>
      <trkpt lat="45.92812" lon="6.51295">
        <ele>1922.29</ele>
        <time>2019-04-05T14:49:24Z</time>
      </trkpt>
      <trkpt lat="45.92809" lon="6.51273">
        <ele>1918.45</ele>
        <time>2019-04-05T14:49:27Z</time>
      </trkpt>
      <trkpt lat="45.92818" lon="6.51268">
        <ele>1916.04</ele>
        <time>2019-04-05T14:49:28Z</time>
      </trkpt>
      <trkpt lat="45.92833" lon="6.51255">
        <ele>1909.8</ele>
        <time>2019-04-05T14:49:30Z</time>
      </trkpt>
      <trkpt lat="45.92841" lon="6.51245">
        <ele>1904.99</ele>
        <time>2019-04-05T14:49:31Z</time>
      </trkpt>
      <trkpt lat="45.92849" lon="6.51237">
        <ele>1900.18</ele>
        <time>2019-04-05T14:49:32Z</time>
      </trkpt>
      <trkpt lat="45.92857" lon="6.51226">
        <ele>1896.82</ele>
        <time>2019-04-05T14:49:33Z</time>
      </trkpt>
      <trkpt lat="45.92867" lon="6.51211">
        <ele>1888.65</ele>
        <time>2019-04-05T14:49:34Z</time>
      </trkpt>
      <trkpt lat="45.92874" lon="6.51202">
        <ele>1883.84</ele>
        <time>2019-04-05T14:49:35Z</time>
      </trkpt>
      <trkpt lat="45.92882" lon="6.51194">
        <ele>1879.51</ele>
        <time>2019-04-05T14:49:36Z</time>
      </trkpt>
      <trkpt lat="45.92893" lon="6.51183">
        <ele>1874.71</ele>
        <time>2019-04-05T14:49:37Z</time>
      </trkpt>
      <trkpt lat="45.92902" lon="6.51173">
        <ele>1868.94</ele>
        <time>2019-04-05T14:49:38Z</time>
      </trkpt>
      <trkpt lat="45.9291" lon="6.51163">
        <ele>1863.65</ele>
        <time>2019-04-05T14:49:39Z</time>
      </trkpt>
      <trkpt lat="45.92919" lon="6.51151">
        <ele>1858.85</ele>
        <time>2019-04-05T14:49:40Z</time>
      </trkpt>
      <trkpt lat="45.92927" lon="6.51139">
        <ele>1853.08</ele>
        <time>2019-04-05T14:49:41Z</time>
      </trkpt>
      <trkpt lat="45.92934" lon="6.51127">
        <ele>1850.19</ele>
        <time>2019-04-05T14:49:42Z</time>
      </trkpt>
      <trkpt lat="45.92941" lon="6.51115">
        <ele>1844.43</ele>
        <time>2019-04-05T14:49:43Z</time>
      </trkpt>
      <trkpt lat="45.92949" lon="6.51103">
        <ele>1840.1</ele>
        <time>2019-04-05T14:49:44Z</time>
      </trkpt>
      <trkpt lat="45.92956" lon="6.51089">
        <ele>1835.77</ele>
        <time>2019-04-05T14:49:45Z</time>
      </trkpt>
      <trkpt lat="45.92962" lon="6.51075">
        <ele>1830.97</ele>
        <time>2019-04-05T14:49:46Z</time>
      </trkpt>
      <trkpt lat="45.92967" lon="6.5106">
        <ele>1827.6</ele>
        <time>2019-04-05T14:49:47Z</time>
      </trkpt>
      <trkpt lat="45.92968" lon="6.51047">
        <ele>1824.72</ele>
        <time>2019-04-05T14:49:48Z</time>
      </trkpt>
      <trkpt lat="45.92969" lon="6.51034">
        <ele>1822.32</ele>
        <time>2019-04-05T14:49:49Z</time>
      </trkpt>
      <trkpt lat="45.9297" lon="6.51022">
        <ele>1820.87</ele>
        <time>2019-04-05T14:49:50Z</time>
      </trkpt>
      <trkpt lat="45.92975" lon="6.51001">
        <ele>1817.03</ele>
        <time>2019-04-05T14:49:52Z</time>
      </trkpt>
      <trkpt lat="45.92976" lon="6.5099">
        <ele>1815.11</ele>
        <time>2019-04-05T14:49:53Z</time>
      </trkpt>
      <trkpt lat="45.9298" lon="6.50972">
        <ele>1814.63</ele>
        <time>2019-04-05T14:49:55Z</time>
      </trkpt>
      <trkpt lat="45.92982" lon="6.50942">
        <ele>1813.18</ele>
        <time>2019-04-05T14:49:58Z</time>
      </trkpt>
      <trkpt lat="45.92981" lon="6.50931">
        <ele>1812.7</ele>
        <time>2019-04-05T14:49:59Z</time>
      </trkpt>
      <trkpt lat="45.92978" lon="6.50918">
        <ele>1812.22</ele>
        <time>2019-04-05T14:50:00Z</time>
      </trkpt>
      <trkpt lat="45.92979" lon="6.50904">
        <ele>1810.78</ele>
        <time>2019-04-05T14:50:01Z</time>
      </trkpt>
      <trkpt lat="45.92978" lon="6.50893">
        <ele>1807.42</ele>
        <time>2019-04-05T14:50:02Z</time>
      </trkpt>
      <trkpt lat="45.92976" lon="6.50876">
        <ele>1806.45</ele>
        <time>2019-04-05T14:50:04Z</time>
      </trkpt>
      <trkpt lat="45.92974" lon="6.50862">
        <ele>1805.01</ele>
        <time>2019-04-05T14:50:06Z</time>
      </trkpt>
      <trkpt lat="45.92974" lon="6.50856">
        <ele>1805.01</ele>
        <time>2019-04-05T14:50:07Z</time>
      </trkpt>
      <trkpt lat="45.92973" lon="6.5085">
        <ele>1804.05</ele>
        <time>2019-04-05T14:50:08Z</time>
      </trkpt>
      <trkpt lat="45.92958" lon="6.50845">
        <ele>1803.57</ele>
        <time>2019-04-05T14:50:09Z</time>
      </trkpt>
      <trkpt lat="45.92932" lon="6.50842">
        <ele>1802.61</ele>
        <time>2019-04-05T14:50:10Z</time>
      </trkpt>
      <trkpt lat="45.92918" lon="6.50841">
        <ele>1802.13</ele>
        <time>2019-04-05T14:50:11Z</time>
      </trkpt>
      <trkpt lat="45.929" lon="6.50843">
        <ele>1801.17</ele>
        <time>2019-04-05T14:50:15Z</time>
      </trkpt>
      <trkpt lat="45.92891" lon="6.50848">
        <ele>1800.69</ele>
        <time>2019-04-05T14:50:39Z</time>
      </trkpt>
      <trkpt lat="45.9289" lon="6.50845">
        <ele>1800.21</ele>
        <time>2019-04-05T14:50:40Z</time>
      </trkpt>
      <trkpt lat="45.92887" lon="6.50839">
        <ele>1799.73</ele>
        <time>2019-04-05T14:50:41Z</time>
      </trkpt>
      <trkpt lat="45.92884" lon="6.50833">
        <ele>1798.76</ele>
        <time>2019-04-05T14:50:42Z</time>
      </trkpt>
      <trkpt lat="45.9288" lon="6.50825">
        <ele>1796.84</ele>
        <time>2019-04-05T14:50:43Z</time>
      </trkpt>
      <trkpt lat="45.92877" lon="6.50816">
        <ele>1795.4</ele>
        <time>2019-04-05T14:50:44Z</time>
      </trkpt>
      <trkpt lat="45.92875" lon="6.50807">
        <ele>1793.48</ele>
        <time>2019-04-05T14:50:45Z</time>
      </trkpt>
      <trkpt lat="45.92864" lon="6.50777">
        <ele>1790.11</ele>
        <time>2019-04-05T14:50:51Z</time>
      </trkpt>
      <trkpt lat="45.92858" lon="6.5075">
        <ele>1785.31</ele>
        <time>2019-04-05T14:50:54Z</time>
      </trkpt>
      <trkpt lat="45.92856" lon="6.50739">
        <ele>1782.9</ele>
        <time>2019-04-05T14:50:55Z</time>
      </trkpt>
      <trkpt lat="45.92855" lon="6.5073">
        <ele>1780.98</ele>
        <time>2019-04-05T14:50:56Z</time>
      </trkpt>
      <trkpt lat="45.92855" lon="6.50722">
        <ele>1780.5</ele>
        <time>2019-04-05T14:50:57Z</time>
      </trkpt>
      <trkpt lat="45.92856" lon="6.50704">
        <ele>1777.61</ele>
        <time>2019-04-05T14:50:59Z</time>
      </trkpt>
      <trkpt lat="45.92857" lon="6.50694">
        <ele>1775.21</ele>
        <time>2019-04-05T14:51:00Z</time>
      </trkpt>
      <trkpt lat="45.9286" lon="6.50683">
        <ele>1772.81</ele>
        <time>2019-04-05T14:51:01Z</time>
      </trkpt>
      <trkpt lat="45.92863" lon="6.50675">
        <ele>1770.41</ele>
        <time>2019-04-05T14:51:02Z</time>
      </trkpt>
      <trkpt lat="45.92863" lon="6.50667">
        <ele>1768.48</ele>
        <time>2019-04-05T14:51:03Z</time>
      </trkpt>
      <trkpt lat="45.92864" lon="6.50662">
        <ele>1767.04</ele>
        <time>2019-04-05T14:51:04Z</time>
      </trkpt>
      <trkpt lat="45.92865" lon="6.50657">
        <ele>1766.08</ele>
        <time>2019-04-05T14:51:05Z</time>
      </trkpt>
      <trkpt lat="45.92865" lon="6.50653">
        <ele>1765.12</ele>
        <time>2019-04-05T14:51:06Z</time>
      </trkpt>
      <trkpt lat="45.92864" lon="6.5065">
        <ele>1764.16</ele>
        <time>2019-04-05T14:51:07Z</time>
      </trkpt>
      <trkpt lat="45.92862" lon="6.50647">
        <ele>1763.2</ele>
        <time>2019-04-05T14:51:08Z</time>
      </trkpt>
      <trkpt lat="45.92861" lon="6.50644">
        <ele>1762.23</ele>
        <time>2019-04-05T14:51:09Z</time>
      </trkpt>
      <trkpt lat="45.9286" lon="6.5064">
        <ele>1761.27</ele>
        <time>2019-04-05T14:51:10Z</time>
      </trkpt>
      <trkpt lat="45.92858" lon="6.50636">
        <ele>1759.83</ele>
        <time>2019-04-05T14:51:11Z</time>
      </trkpt>
      <trkpt lat="45.92858" lon="6.50635">
        <ele>1758.87</ele>
        <time>2019-04-05T14:51:12Z</time>
      </trkpt>
      <trkpt lat="45.92859" lon="6.50632">
        <ele>1757.43</ele>
        <time>2019-04-05T14:51:16Z</time>
      </trkpt>
      <trkpt lat="45.92857" lon="6.5063">
        <ele>1756.95</ele>
        <time>2019-04-05T14:51:17Z</time>
      </trkpt>
      <trkpt lat="45.92856" lon="6.50628">
        <ele>1756.47</ele>
        <time>2019-04-05T14:51:18Z</time>
      </trkpt>
      <trkpt lat="45.92849" lon="6.50619">
        <ele>1753.1</ele>
        <time>2019-04-05T14:51:21Z</time>
      </trkpt>
      <trkpt lat="45.92837" lon="6.50608">
        <ele>1749.74</ele>
        <time>2019-04-05T14:51:24Z</time>
      </trkpt>
      <trkpt lat="45.9283" lon="6.50601">
        <ele>1745.89</ele>
        <time>2019-04-05T14:51:27Z</time>
      </trkpt>
      <trkpt lat="45.9283" lon="6.50601">
        <ele>1745.41</ele>
        <time>2019-04-05T14:51:28Z</time>
      </trkpt>
      <trkpt lat="45.9283" lon="6.50601">
        <ele>1745.41</ele>
        <time>2019-04-05T14:51:29Z</time>
      </trkpt>
      <trkpt lat="45.92833" lon="6.50599">
        <ele>1745.41</ele>
        <time>2019-04-05T14:51:32Z</time>
      </trkpt>
      <trkpt lat="45.92836" lon="6.50598">
        <ele>1744.93</ele>
        <time>2019-04-05T14:51:33Z</time>
      </trkpt>
      <trkpt lat="45.92839" lon="6.50596">
        <ele>1743.49</ele>
        <time>2019-04-05T14:51:34Z</time>
      </trkpt>
      <trkpt lat="45.92841" lon="6.50593">
        <ele>1741.57</ele>
        <time>2019-04-05T14:51:35Z</time>
      </trkpt>
      <trkpt lat="45.92844" lon="6.50587">
        <ele>1739.16</ele>
        <time>2019-04-05T14:51:36Z</time>
      </trkpt>
      <trkpt lat="45.92846" lon="6.50581">
        <ele>1736.76</ele>
        <time>2019-04-05T14:51:37Z</time>
      </trkpt>
      <trkpt lat="45.92848" lon="6.50574">
        <ele>1734.36</ele>
        <time>2019-04-05T14:51:38Z</time>
      </trkpt>
      <trkpt lat="45.92851" lon="6.50569">
        <ele>1730.99</ele>
        <time>2019-04-05T14:51:39Z</time>
      </trkpt>
      <trkpt lat="45.92854" lon="6.50562">
        <ele>1727.63</ele>
        <time>2019-04-05T14:51:40Z</time>
      </trkpt>
      <trkpt lat="45.92858" lon="6.50555">
        <ele>1724.26</ele>
        <time>2019-04-05T14:51:41Z</time>
      </trkpt>
      <trkpt lat="45.9286" lon="6.50549">
        <ele>1720.42</ele>
        <time>2019-04-05T14:51:42Z</time>
      </trkpt>
      <trkpt lat="45.92861" lon="6.50543">
        <ele>1716.57</ele>
        <time>2019-04-05T14:51:43Z</time>
      </trkpt>
      <trkpt lat="45.92862" lon="6.50535">
        <ele>1714.17</ele>
        <time>2019-04-05T14:51:44Z</time>
      </trkpt>
      <trkpt lat="45.92864" lon="6.50529">
        <ele>1710.8</ele>
        <time>2019-04-05T14:51:45Z</time>
      </trkpt>
      <trkpt lat="45.92866" lon="6.50522">
        <ele>1707.44</ele>
        <time>2019-04-05T14:51:46Z</time>
      </trkpt>
      <trkpt lat="45.92868" lon="6.50518">
        <ele>1704.55</ele>
        <time>2019-04-05T14:51:47Z</time>
      </trkpt>
      <trkpt lat="45.9287" lon="6.50514">
        <ele>1701.19</ele>
        <time>2019-04-05T14:51:48Z</time>
      </trkpt>
      <trkpt lat="45.92869" lon="6.50511">
        <ele>1699.27</ele>
        <time>2019-04-05T14:51:49Z</time>
      </trkpt>
      <trkpt lat="45.92867" lon="6.5051">
        <ele>1697.34</ele>
        <time>2019-04-05T14:51:50Z</time>
      </trkpt>
      <trkpt lat="45.92865" lon="6.50509">
        <ele>1695.9</ele>
        <time>2019-04-05T14:51:51Z</time>
      </trkpt>
      <trkpt lat="45.92862" lon="6.5051">
        <ele>1694.94</ele>
        <time>2019-04-05T14:51:52Z</time>
      </trkpt>
      <trkpt lat="45.92859" lon="6.5051">
        <ele>1693.98</ele>
        <time>2019-04-05T14:51:53Z</time>
      </trkpt>
      <trkpt lat="45.92857" lon="6.5051">
        <ele>1693.02</ele>
        <time>2019-04-05T14:51:54Z</time>
      </trkpt>
      <trkpt lat="45.92852" lon="6.50509">
        <ele>1692.06</ele>
        <time>2019-04-05T14:51:55Z</time>
      </trkpt>
      <trkpt lat="45.92848" lon="6.50507">
        <ele>1691.1</ele>
        <time>2019-04-05T14:51:56Z</time>
      </trkpt>
      <trkpt lat="45.92845" lon="6.50504">
        <ele>1690.14</ele>
        <time>2019-04-05T14:51:57Z</time>
      </trkpt>
      <trkpt lat="45.92841" lon="6.50499">
        <ele>1688.69</ele>
        <time>2019-04-05T14:51:58Z</time>
      </trkpt>
      <trkpt lat="45.92834" lon="6.50489">
        <ele>1685.33</ele>
        <time>2019-04-05T14:52:00Z</time>
      </trkpt>
      <trkpt lat="45.92833" lon="6.50481">
        <ele>1682.93</ele>
        <time>2019-04-05T14:52:01Z</time>
      </trkpt>
      <trkpt lat="45.92832" lon="6.50474">
        <ele>1680.04</ele>
        <time>2019-04-05T14:52:02Z</time>
      </trkpt>
      <trkpt lat="45.92831" lon="6.50468">
        <ele>1677.64</ele>
        <time>2019-04-05T14:52:03Z</time>
      </trkpt>
      <trkpt lat="45.92829" lon="6.50463">
        <ele>1676.2</ele>
        <time>2019-04-05T14:52:04Z</time>
      </trkpt>
      <trkpt lat="45.92827" lon="6.50457">
        <ele>1674.75</ele>
        <time>2019-04-05T14:52:05Z</time>
      </trkpt>
      <trkpt lat="45.92825" lon="6.50449">
        <ele>1672.83</ele>
        <time>2019-04-05T14:52:06Z</time>
      </trkpt>
      <trkpt lat="45.92824" lon="6.5044">
        <ele>1670.43</ele>
        <time>2019-04-05T14:52:07Z</time>
      </trkpt>
      <trkpt lat="45.92826" lon="6.50432">
        <ele>1667.54</ele>
        <time>2019-04-05T14:52:08Z</time>
      </trkpt>
      <trkpt lat="45.92827" lon="6.50423">
        <ele>1664.66</ele>
        <time>2019-04-05T14:52:09Z</time>
      </trkpt>
      <trkpt lat="45.9283" lon="6.50416">
        <ele>1663.22</ele>
        <time>2019-04-05T14:52:10Z</time>
      </trkpt>
      <trkpt lat="45.92831" lon="6.5041">
        <ele>1660.33</ele>
        <time>2019-04-05T14:52:11Z</time>
      </trkpt>
      <trkpt lat="45.92832" lon="6.50407">
        <ele>1658.41</ele>
        <time>2019-04-05T14:52:12Z</time>
      </trkpt>
      <trkpt lat="45.92832" lon="6.50405">
        <ele>1656.49</ele>
        <time>2019-04-05T14:52:13Z</time>
      </trkpt>
      <trkpt lat="45.92833" lon="6.50403">
        <ele>1655.05</ele>
        <time>2019-04-05T14:52:16Z</time>
      </trkpt>
      <trkpt lat="45.92833" lon="6.504">
        <ele>1654.57</ele>
        <time>2019-04-05T14:52:17Z</time>
      </trkpt>
      <trkpt lat="45.92833" lon="6.50398">
        <ele>1654.09</ele>
        <time>2019-04-05T14:52:18Z</time>
      </trkpt>
      <trkpt lat="45.92831" lon="6.50394">
        <ele>1652.64</ele>
        <time>2019-04-05T14:52:19Z</time>
      </trkpt>
      <trkpt lat="45.92825" lon="6.50377">
        <ele>1648.8</ele>
        <time>2019-04-05T14:52:22Z</time>
      </trkpt>
      <trkpt lat="45.92818" lon="6.50363">
        <ele>1645.91</ele>
        <time>2019-04-05T14:52:26Z</time>
      </trkpt>
      <trkpt lat="45.92815" lon="6.50359">
        <ele>1643.99</ele>
        <time>2019-04-05T14:52:28Z</time>
      </trkpt>
      <trkpt lat="45.92814" lon="6.50357">
        <ele>1643.51</ele>
        <time>2019-04-05T14:52:29Z</time>
      </trkpt>
      <trkpt lat="45.92812" lon="6.50354">
        <ele>1643.03</ele>
        <time>2019-04-05T14:52:30Z</time>
      </trkpt>
      <trkpt lat="45.92811" lon="6.50349">
        <ele>1642.07</ele>
        <time>2019-04-05T14:52:31Z</time>
      </trkpt>
      <trkpt lat="45.92809" lon="6.50344">
        <ele>1641.11</ele>
        <time>2019-04-05T14:52:32Z</time>
      </trkpt>
      <trkpt lat="45.92805" lon="6.50331">
        <ele>1637.74</ele>
        <time>2019-04-05T14:52:34Z</time>
      </trkpt>
      <trkpt lat="45.92802" lon="6.50325">
        <ele>1635.82</ele>
        <time>2019-04-05T14:52:35Z</time>
      </trkpt>
      <trkpt lat="45.92796" lon="6.50312">
        <ele>1631.49</ele>
        <time>2019-04-05T14:52:37Z</time>
      </trkpt>
      <trkpt lat="45.92795" lon="6.50304">
        <ele>1629.09</ele>
        <time>2019-04-05T14:52:38Z</time>
      </trkpt>
      <trkpt lat="45.92795" lon="6.50295">
        <ele>1626.69</ele>
        <time>2019-04-05T14:52:39Z</time>
      </trkpt>
      <trkpt lat="45.92795" lon="6.50285">
        <ele>1623.32</ele>
        <time>2019-04-05T14:52:40Z</time>
      </trkpt>
      <trkpt lat="45.92796" lon="6.50275">
        <ele>1619.96</ele>
        <time>2019-04-05T14:52:41Z</time>
      </trkpt>
      <trkpt lat="45.92795" lon="6.50266">
        <ele>1617.07</ele>
        <time>2019-04-05T14:52:42Z</time>
      </trkpt>
      <trkpt lat="45.92794" lon="6.50257">
        <ele>1614.67</ele>
        <time>2019-04-05T14:52:43Z</time>
      </trkpt>
      <trkpt lat="45.92792" lon="6.50248">
        <ele>1613.23</ele>
        <time>2019-04-05T14:52:44Z</time>
      </trkpt>
      <trkpt lat="45.92789" lon="6.50234">
        <ele>1608.9</ele>
        <time>2019-04-05T14:52:46Z</time>
      </trkpt>
      <trkpt lat="45.92785" lon="6.50221">
        <ele>1605.06</ele>
        <time>2019-04-05T14:52:49Z</time>
      </trkpt>
      <trkpt lat="45.92782" lon="6.50206">
        <ele>1602.17</ele>
        <time>2019-04-05T14:52:51Z</time>
      </trkpt>
      <trkpt lat="45.92779" lon="6.50198">
        <ele>1599.77</ele>
        <time>2019-04-05T14:52:52Z</time>
      </trkpt>
      <trkpt lat="45.9277" lon="6.50181">
        <ele>1596.41</ele>
        <time>2019-04-05T14:52:54Z</time>
      </trkpt>
      <trkpt lat="45.92765" lon="6.50173">
        <ele>1594.96</ele>
        <time>2019-04-05T14:52:55Z</time>
      </trkpt>
      <trkpt lat="45.92756" lon="6.50159">
        <ele>1591.6</ele>
        <time>2019-04-05T14:52:57Z</time>
      </trkpt>
      <trkpt lat="45.92748" lon="6.50148">
        <ele>1590.64</ele>
        <time>2019-04-05T14:52:59Z</time>
      </trkpt>
      <trkpt lat="45.92743" lon="6.50142">
        <ele>1589.2</ele>
        <time>2019-04-05T14:53:00Z</time>
      </trkpt>
      <trkpt lat="45.92739" lon="6.50136">
        <ele>1588.72</ele>
        <time>2019-04-05T14:53:01Z</time>
      </trkpt>
      <trkpt lat="45.92736" lon="6.50129">
        <ele>1587.75</ele>
        <time>2019-04-05T14:53:02Z</time>
      </trkpt>
      <trkpt lat="45.92733" lon="6.50122">
        <ele>1586.79</ele>
        <time>2019-04-05T14:53:03Z</time>
      </trkpt>
      <trkpt lat="45.92731" lon="6.50115">
        <ele>1586.31</ele>
        <time>2019-04-05T14:53:04Z</time>
      </trkpt>
      <trkpt lat="45.92728" lon="6.5011">
        <ele>1585.35</ele>
        <time>2019-04-05T14:53:05Z</time>
      </trkpt>
      <trkpt lat="45.92725" lon="6.50105">
        <ele>1584.87</ele>
        <time>2019-04-05T14:53:06Z</time>
      </trkpt>
      <trkpt lat="45.92722" lon="6.50101">
        <ele>1584.39</ele>
        <time>2019-04-05T14:53:07Z</time>
      </trkpt>
      <trkpt lat="45.92719" lon="6.50096">
        <ele>1583.43</ele>
        <time>2019-04-05T14:53:08Z</time>
      </trkpt>
      <trkpt lat="45.92714" lon="6.5009">
        <ele>1581.99</ele>
        <time>2019-04-05T14:53:09Z</time>
      </trkpt>
      <trkpt lat="45.9271" lon="6.50084">
        <ele>1579.58</ele>
        <time>2019-04-05T14:53:10Z</time>
      </trkpt>
      <trkpt lat="45.92706" lon="6.50077">
        <ele>1577.18</ele>
        <time>2019-04-05T14:53:11Z</time>
      </trkpt>
      <trkpt lat="45.92703" lon="6.50069">
        <ele>1575.74</ele>
        <time>2019-04-05T14:53:12Z</time>
      </trkpt>
      <trkpt lat="45.92703" lon="6.5006">
        <ele>1573.33</ele>
        <time>2019-04-05T14:53:13Z</time>
      </trkpt>
      <trkpt lat="45.92703" lon="6.50051">
        <ele>1571.41</ele>
        <time>2019-04-05T14:53:14Z</time>
      </trkpt>
      <trkpt lat="45.92701" lon="6.50043">
        <ele>1569.97</ele>
        <time>2019-04-05T14:53:15Z</time>
      </trkpt>
      <trkpt lat="45.92698" lon="6.50035">
        <ele>1568.53</ele>
        <time>2019-04-05T14:53:16Z</time>
      </trkpt>
      <trkpt lat="45.92693" lon="6.50027">
        <ele>1567.09</ele>
        <time>2019-04-05T14:53:17Z</time>
      </trkpt>
      <trkpt lat="45.92688" lon="6.50018">
        <ele>1564.2</ele>
        <time>2019-04-05T14:53:18Z</time>
      </trkpt>
      <trkpt lat="45.92686" lon="6.50009">
        <ele>1561.32</ele>
        <time>2019-04-05T14:53:19Z</time>
      </trkpt>
      <trkpt lat="45.92685" lon="6.5">
        <ele>1559.4</ele>
        <time>2019-04-05T14:53:20Z</time>
      </trkpt>
      <trkpt lat="45.92684" lon="6.49991">
        <ele>1558.43</ele>
        <time>2019-04-05T14:53:21Z</time>
      </trkpt>
      <trkpt lat="45.92682" lon="6.49964">
        <ele>1554.11</ele>
        <time>2019-04-05T14:53:24Z</time>
      </trkpt>
      <trkpt lat="45.92682" lon="6.4993">
        <ele>1548.82</ele>
        <time>2019-04-05T14:53:27Z</time>
      </trkpt>
      <trkpt lat="45.92682" lon="6.49907">
        <ele>1544.01</ele>
        <time>2019-04-05T14:53:29Z</time>
      </trkpt>
      <trkpt lat="45.9268" lon="6.49884">
        <ele>1541.61</ele>
        <time>2019-04-05T14:53:31Z</time>
      </trkpt>
      <trkpt lat="45.92679" lon="6.49873">
        <ele>1539.69</ele>
        <time>2019-04-05T14:53:32Z</time>
      </trkpt>
      <trkpt lat="45.92678" lon="6.49855">
        <ele>1536.8</ele>
        <time>2019-04-05T14:53:34Z</time>
      </trkpt>
      <trkpt lat="45.92679" lon="6.49823">
        <ele>1532.96</ele>
        <time>2019-04-05T14:53:39Z</time>
      </trkpt>
      <trkpt lat="45.92677" lon="6.49816">
        <ele>1531.52</ele>
        <time>2019-04-05T14:53:40Z</time>
      </trkpt>
      <trkpt lat="45.92674" lon="6.49807">
        <ele>1530.56</ele>
        <time>2019-04-05T14:53:41Z</time>
      </trkpt>
      <trkpt lat="45.92668" lon="6.49783">
        <ele>1526.23</ele>
        <time>2019-04-05T14:53:44Z</time>
      </trkpt>
      <trkpt lat="45.92663" lon="6.49757">
        <ele>1523.35</ele>
        <time>2019-04-05T14:53:47Z</time>
      </trkpt>
      <trkpt lat="45.92658" lon="6.49741">
        <ele>1521.42</ele>
        <time>2019-04-05T14:53:49Z</time>
      </trkpt>
      <trkpt lat="45.92655" lon="6.49732">
        <ele>1520.46</ele>
        <time>2019-04-05T14:53:50Z</time>
      </trkpt>
      <trkpt lat="45.92649" lon="6.49716">
        <ele>1517.1</ele>
        <time>2019-04-05T14:53:52Z</time>
      </trkpt>
      <trkpt lat="45.92642" lon="6.49691">
        <ele>1513.25</ele>
        <time>2019-04-05T14:53:55Z</time>
      </trkpt>
      <trkpt lat="45.92637" lon="6.49664">
        <ele>1511.33</ele>
        <time>2019-04-05T14:53:58Z</time>
      </trkpt>
      <trkpt lat="45.92637" lon="6.49654">
        <ele>1509.89</ele>
        <time>2019-04-05T14:53:59Z</time>
      </trkpt>
      <trkpt lat="45.92636" lon="6.49635">
        <ele>1507.97</ele>
        <time>2019-04-05T14:54:01Z</time>
      </trkpt>
      <trkpt lat="45.92641" lon="6.49621">
        <ele>1507</ele>
        <time>2019-04-05T14:54:03Z</time>
      </trkpt>
      <trkpt lat="45.92648" lon="6.49616">
        <ele>1506.04</ele>
        <time>2019-04-05T14:54:04Z</time>
      </trkpt>
      <trkpt lat="45.9265" lon="6.49607">
        <ele>1505.56</ele>
        <time>2019-04-05T14:54:05Z</time>
      </trkpt>
      <trkpt lat="45.92652" lon="6.49598">
        <ele>1505.56</ele>
        <time>2019-04-05T14:54:06Z</time>
      </trkpt>
      <trkpt lat="45.92654" lon="6.49588">
        <ele>1504.6</ele>
        <time>2019-04-05T14:54:07Z</time>
      </trkpt>
      <trkpt lat="45.92653" lon="6.49566">
        <ele>1500.76</ele>
        <time>2019-04-05T14:54:09Z</time>
      </trkpt>
      <trkpt lat="45.92654" lon="6.49557">
        <ele>1500.27</ele>
        <time>2019-04-05T14:54:10Z</time>
      </trkpt>
      <trkpt lat="45.92653" lon="6.49549">
        <ele>1499.31</ele>
        <time>2019-04-05T14:54:11Z</time>
      </trkpt>
      <trkpt lat="45.92653" lon="6.49542">
        <ele>1498.83</ele>
        <time>2019-04-05T14:54:12Z</time>
      </trkpt>
      <trkpt lat="45.92654" lon="6.49536">
        <ele>1497.87</ele>
        <time>2019-04-05T14:54:13Z</time>
      </trkpt>
      <trkpt lat="45.92657" lon="6.49531">
        <ele>1497.87</ele>
        <time>2019-04-05T14:54:14Z</time>
      </trkpt>
      <trkpt lat="45.92657" lon="6.49521">
        <ele>1497.87</ele>
        <time>2019-04-05T14:54:16Z</time>
      </trkpt>
      <trkpt lat="45.92657" lon="6.49516">
        <ele>1497.39</ele>
        <time>2019-04-05T14:54:17Z</time>
      </trkpt>
      <trkpt lat="45.92659" lon="6.49501">
        <ele>1496.91</ele>
        <time>2019-04-05T14:54:25Z</time>
      </trkpt>
      <trkpt lat="45.92658" lon="6.49498">
        <ele>1497.39</ele>
        <time>2019-04-05T14:54:35Z</time>
      </trkpt>
      <trkpt lat="45.92657" lon="6.49498">
        <ele>1497.39</ele>
        <time>2019-04-05T14:54:36Z</time>
      </trkpt>
      <trkpt lat="45.92657" lon="6.49492">
        <ele>1497.39</ele>
        <time>2019-04-05T14:54:41Z</time>
      </trkpt>
      <trkpt lat="45.92659" lon="6.49479">
        <ele>1497.39</ele>
        <time>2019-04-05T14:54:49Z</time>
      </trkpt>
      <trkpt lat="45.9266" lon="6.49476">
        <ele>1497.39</ele>
        <time>2019-04-05T14:54:52Z</time>
      </trkpt>
      <trkpt lat="45.92661" lon="6.49474">
        <ele>1497.39</ele>
        <time>2019-04-05T14:54:55Z</time>
      </trkpt>
      <trkpt lat="45.92665" lon="6.49465">
        <ele>1498.83</ele>
        <time>2019-04-05T14:55:07Z</time>
      </trkpt>
      <trkpt lat="45.92667" lon="6.49463">
        <ele>1498.35</ele>
        <time>2019-04-05T14:55:09Z</time>
      </trkpt>
      <trkpt lat="45.92668" lon="6.49461">
        <ele>1498.35</ele>
        <time>2019-04-05T14:55:10Z</time>
      </trkpt>
      <trkpt lat="45.92676" lon="6.49451">
        <ele>1497.39</ele>
        <time>2019-04-05T14:55:17Z</time>
      </trkpt>
      <trkpt lat="45.92678" lon="6.49449">
        <ele>1497.39</ele>
        <time>2019-04-05T14:55:18Z</time>
      </trkpt>
      <trkpt lat="45.92701" lon="6.49445">
        <ele>1496.91</ele>
        <time>2019-04-05T14:55:31Z</time>
      </trkpt>
      <trkpt lat="45.92708" lon="6.49446">
        <ele>1497.39</ele>
        <time>2019-04-05T14:55:38Z</time>
      </trkpt>
      <trkpt lat="45.92719" lon="6.49454">
        <ele>1497.87</ele>
        <time>2019-04-05T14:56:03Z</time>
      </trkpt>
      <trkpt lat="45.92721" lon="6.49455">
        <ele>1497.87</ele>
        <time>2019-04-05T14:56:04Z</time>
      </trkpt>
      <trkpt lat="45.92731" lon="6.49462">
        <ele>1498.35</ele>
        <time>2019-04-05T14:56:22Z</time>
      </trkpt>
      <trkpt lat="45.92731" lon="6.49463">
        <ele>1498.35</ele>
        <time>2019-04-05T14:56:23Z</time>
      </trkpt>
      <trkpt lat="45.92739" lon="6.49463">
        <ele>1497.39</ele>
        <time>2019-04-05T14:56:27Z</time>
      </trkpt>
      <trkpt lat="45.92744" lon="6.49458">
        <ele>1498.35</ele>
        <time>2019-04-05T14:56:41Z</time>
      </trkpt>
      <trkpt lat="45.92745" lon="6.49456">
        <ele>1498.35</ele>
        <time>2019-04-05T14:56:42Z</time>
      </trkpt>
      <trkpt lat="45.92747" lon="6.49453">
        <ele>1497.39</ele>
        <time>2019-04-05T14:56:43Z</time>
      </trkpt>
      <trkpt lat="45.92748" lon="6.4945">
        <ele>1497.39</ele>
        <time>2019-04-05T14:56:44Z</time>
      </trkpt>
      <trkpt lat="45.92748" lon="6.49447">
        <ele>1496.91</ele>
        <time>2019-04-05T14:56:45Z</time>
      </trkpt>
      <trkpt lat="45.92748" lon="6.49443">
        <ele>1496.43</ele>
        <time>2019-04-05T14:56:46Z</time>
      </trkpt>
      <trkpt lat="45.92747" lon="6.49439">
        <ele>1496.43</ele>
        <time>2019-04-05T14:56:47Z</time>
      </trkpt>
      <trkpt lat="45.92746" lon="6.49436">
        <ele>1496.43</ele>
        <time>2019-04-05T14:56:48Z</time>
      </trkpt>
      <trkpt lat="45.92745" lon="6.49433">
        <ele>1496.43</ele>
        <time>2019-04-05T14:56:49Z</time>
      </trkpt>
      <trkpt lat="45.92744" lon="6.4943">
        <ele>1496.43</ele>
        <time>2019-04-05T14:56:50Z</time>
      </trkpt>
      <trkpt lat="45.92743" lon="6.49427">
        <ele>1496.43</ele>
        <time>2019-04-05T14:56:51Z</time>
      </trkpt>
      <trkpt lat="45.92742" lon="6.49425">
        <ele>1496.43</ele>
        <time>2019-04-05T14:56:52Z</time>
      </trkpt>
      <trkpt lat="45.9274" lon="6.49423">
        <ele>1496.43</ele>
        <time>2019-04-05T14:56:53Z</time>
      </trkpt>
      <trkpt lat="45.92739" lon="6.4942">
        <ele>1496.43</ele>
        <time>2019-04-05T14:56:54Z</time>
      </trkpt>
      <trkpt lat="45.92738" lon="6.49418">
        <ele>1496.43</ele>
        <time>2019-04-05T14:56:55Z</time>
      </trkpt>
      <trkpt lat="45.92734" lon="6.49405">
        <ele>1495.95</ele>
        <time>2019-04-05T14:57:03Z</time>
      </trkpt>
      <trkpt lat="45.92734" lon="6.49403">
        <ele>1495.95</ele>
        <time>2019-04-05T14:57:04Z</time>
      </trkpt>
      <trkpt lat="45.92732" lon="6.49395">
        <ele>1495.95</ele>
        <time>2019-04-05T14:57:07Z</time>
      </trkpt>
      <trkpt lat="45.92731" lon="6.49391">
        <ele>1495.95</ele>
        <time>2019-04-05T14:57:08Z</time>
      </trkpt>
      <trkpt lat="45.9273" lon="6.49388">
        <ele>1495.95</ele>
        <time>2019-04-05T14:57:09Z</time>
      </trkpt>
      <trkpt lat="45.92729" lon="6.49384">
        <ele>1495.47</ele>
        <time>2019-04-05T14:57:10Z</time>
      </trkpt>
      <trkpt lat="45.92727" lon="6.49381">
        <ele>1495.47</ele>
        <time>2019-04-05T14:57:11Z</time>
      </trkpt>
      <trkpt lat="45.92726" lon="6.49377">
        <ele>1494.99</ele>
        <time>2019-04-05T14:57:12Z</time>
      </trkpt>
      <trkpt lat="45.92725" lon="6.49375">
        <ele>1494.99</ele>
        <time>2019-04-05T14:57:13Z</time>
      </trkpt>
      <trkpt lat="45.92724" lon="6.49373">
        <ele>1494.99</ele>
        <time>2019-04-05T14:57:14Z</time>
      </trkpt>
      <trkpt lat="45.92723" lon="6.49371">
        <ele>1494.99</ele>
        <time>2019-04-05T14:57:15Z</time>
      </trkpt>
      <trkpt lat="45.92722" lon="6.49368">
        <ele>1494.51</ele>
        <time>2019-04-05T14:57:16Z</time>
      </trkpt>
      <trkpt lat="45.92721" lon="6.49366">
        <ele>1494.51</ele>
        <time>2019-04-05T14:57:17Z</time>
      </trkpt>
      <trkpt lat="45.92713" lon="6.49337">
        <ele>1492.58</ele>
        <time>2019-04-05T14:57:23Z</time>
      </trkpt>
      <trkpt lat="45.92712" lon="6.4933">
        <ele>1492.1</ele>
        <time>2019-04-05T14:57:24Z</time>
      </trkpt>
      <trkpt lat="45.927" lon="6.49293">
        <ele>1490.18</ele>
        <time>2019-04-05T14:57:32Z</time>
      </trkpt>
      <trkpt lat="45.92678" lon="6.49271">
        <ele>1487.3</ele>
        <time>2019-04-05T14:57:40Z</time>
      </trkpt>
      <trkpt lat="45.92675" lon="6.49271">
        <ele>1487.78</ele>
        <time>2019-04-05T14:57:41Z</time>
      </trkpt>
      <trkpt lat="45.92652" lon="6.49264">
        <ele>1489.22</ele>
        <time>2019-04-05T14:58:15Z</time>
      </trkpt>
      <trkpt lat="45.92634" lon="6.4925">
        <ele>1490.66</ele>
        <time>2019-04-05T14:58:43Z</time>
      </trkpt>
      <trkpt lat="45.92621" lon="6.49236">
        <ele>1492.58</ele>
        <time>2019-04-05T14:59:13Z</time>
      </trkpt>
      <trkpt lat="45.92614" lon="6.49231">
        <ele>1493.55</ele>
        <time>2019-04-05T14:59:22Z</time>
      </trkpt>
      <trkpt lat="45.92614" lon="6.49231">
        <ele>1493.55</ele>
        <time>2019-04-05T14:59:23Z</time>
      </trkpt>
      <trkpt lat="45.92593" lon="6.49224">
        <ele>1494.99</ele>
        <time>2019-04-05T14:59:54Z</time>
      </trkpt>
      <trkpt lat="45.92592" lon="6.49224">
        <ele>1494.99</ele>
        <time>2019-04-05T14:59:56Z</time>
      </trkpt>
      <trkpt lat="45.92577" lon="6.49222">
        <ele>1495.95</ele>
        <time>2019-04-05T15:00:12Z</time>
      </trkpt>
      <trkpt lat="45.92564" lon="6.49219">
        <ele>1496.43</ele>
        <time>2019-04-05T15:00:30Z</time>
      </trkpt>
      <trkpt lat="45.92563" lon="6.49219">
        <ele>1496.43</ele>
        <time>2019-04-05T15:00:32Z</time>
      </trkpt>
      <trkpt lat="45.92562" lon="6.49219">
        <ele>1496.43</ele>
        <time>2019-04-05T15:00:33Z</time>
      </trkpt>
      <trkpt lat="45.92561" lon="6.49219">
        <ele>1496.43</ele>
        <time>2019-04-05T15:00:34Z</time>
      </trkpt>
      <trkpt lat="45.92555" lon="6.49218">
        <ele>1496.43</ele>
        <time>2019-04-05T15:00:42Z</time>
      </trkpt>
      <trkpt lat="45.92554" lon="6.49218">
        <ele>1496.43</ele>
        <time>2019-04-05T15:00:43Z</time>
      </trkpt>
      <trkpt lat="45.92553" lon="6.49219">
        <ele>1496.91</ele>
        <time>2019-04-05T15:00:44Z</time>
      </trkpt>
      <trkpt lat="45.92552" lon="6.49219">
        <ele>1496.91</ele>
        <time>2019-04-05T15:00:45Z</time>
      </trkpt>
      <trkpt lat="45.92535" lon="6.49211">
        <ele>1498.35</ele>
        <time>2019-04-05T15:01:15Z</time>
      </trkpt>
      <trkpt lat="45.92523" lon="6.49205">
        <ele>1499.31</ele>
        <time>2019-04-05T15:01:32Z</time>
      </trkpt>
      <trkpt lat="45.92521" lon="6.49204">
        <ele>1499.31</ele>
        <time>2019-04-05T15:01:34Z</time>
      </trkpt>
      <trkpt lat="45.9252" lon="6.49204">
        <ele>1499.31</ele>
        <time>2019-04-05T15:01:35Z</time>
      </trkpt>
      <trkpt lat="45.92518" lon="6.49203">
        <ele>1499.31</ele>
        <time>2019-04-05T15:01:36Z</time>
      </trkpt>
      <trkpt lat="45.92517" lon="6.49203">
        <ele>1498.83</ele>
        <time>2019-04-05T15:01:37Z</time>
      </trkpt>
      <trkpt lat="45.92515" lon="6.49202">
        <ele>1498.83</ele>
        <time>2019-04-05T15:01:38Z</time>
      </trkpt>
      <trkpt lat="45.92512" lon="6.49201">
        <ele>1498.83</ele>
        <time>2019-04-05T15:01:39Z</time>
      </trkpt>
      <trkpt lat="45.92506" lon="6.49199">
        <ele>1498.83</ele>
        <time>2019-04-05T15:01:43Z</time>
      </trkpt>
      <trkpt lat="45.92504" lon="6.49198">
        <ele>1498.83</ele>
        <time>2019-04-05T15:01:44Z</time>
      </trkpt>
      <trkpt lat="45.92503" lon="6.49197">
        <ele>1498.83</ele>
        <time>2019-04-05T15:01:45Z</time>
      </trkpt>
      <trkpt lat="45.92501" lon="6.49196">
        <ele>1498.83</ele>
        <time>2019-04-05T15:01:46Z</time>
      </trkpt>
      <trkpt lat="45.925" lon="6.49194">
        <ele>1498.83</ele>
        <time>2019-04-05T15:01:47Z</time>
      </trkpt>
      <trkpt lat="45.92475" lon="6.49166">
        <ele>1501.72</ele>
        <time>2019-04-05T15:02:43Z</time>
      </trkpt>
      <trkpt lat="45.92473" lon="6.49163">
        <ele>1501.72</ele>
        <time>2019-04-05T15:02:48Z</time>
      </trkpt>
      <trkpt lat="45.92446" lon="6.49118">
        <ele>1498.35</ele>
        <time>2019-04-05T15:03:10Z</time>
      </trkpt>
      <trkpt lat="45.92441" lon="6.49114">
        <ele>1498.35</ele>
        <time>2019-04-05T15:03:11Z</time>
      </trkpt>
      <trkpt lat="45.92435" lon="6.49111">
        <ele>1497.39</ele>
        <time>2019-04-05T15:03:12Z</time>
      </trkpt>
      <trkpt lat="45.92429" lon="6.4911">
        <ele>1495.95</ele>
        <time>2019-04-05T15:03:13Z</time>
      </trkpt>
      <trkpt lat="45.92423" lon="6.49111">
        <ele>1494.99</ele>
        <time>2019-04-05T15:03:14Z</time>
      </trkpt>
      <trkpt lat="45.92417" lon="6.49112">
        <ele>1494.03</ele>
        <time>2019-04-05T15:03:15Z</time>
      </trkpt>
      <trkpt lat="45.92404" lon="6.49114">
        <ele>1491.62</ele>
        <time>2019-04-05T15:03:17Z</time>
      </trkpt>
      <trkpt lat="45.92396" lon="6.49115">
        <ele>1490.18</ele>
        <time>2019-04-05T15:03:18Z</time>
      </trkpt>
      <trkpt lat="45.92381" lon="6.49114">
        <ele>1486.34</ele>
        <time>2019-04-05T15:03:20Z</time>
      </trkpt>
      <trkpt lat="45.92373" lon="6.49112">
        <ele>1484.41</ele>
        <time>2019-04-05T15:03:21Z</time>
      </trkpt>
      <trkpt lat="45.92365" lon="6.49108">
        <ele>1482.97</ele>
        <time>2019-04-05T15:03:22Z</time>
      </trkpt>
      <trkpt lat="45.92359" lon="6.49101">
        <ele>1482.01</ele>
        <time>2019-04-05T15:03:23Z</time>
      </trkpt>
      <trkpt lat="45.92353" lon="6.49094">
        <ele>1482.01</ele>
        <time>2019-04-05T15:03:24Z</time>
      </trkpt>
      <trkpt lat="45.92336" lon="6.49074">
        <ele>1481.53</ele>
        <time>2019-04-05T15:03:27Z</time>
      </trkpt>
      <trkpt lat="45.92329" lon="6.4907">
        <ele>1480.57</ele>
        <time>2019-04-05T15:03:28Z</time>
      </trkpt>
      <trkpt lat="45.92321" lon="6.49066">
        <ele>1480.09</ele>
        <time>2019-04-05T15:03:29Z</time>
      </trkpt>
      <trkpt lat="45.92314" lon="6.49063">
        <ele>1479.13</ele>
        <time>2019-04-05T15:03:30Z</time>
      </trkpt>
      <trkpt lat="45.92306" lon="6.4906">
        <ele>1477.2</ele>
        <time>2019-04-05T15:03:31Z</time>
      </trkpt>
      <trkpt lat="45.92298" lon="6.49055">
        <ele>1475.28</ele>
        <time>2019-04-05T15:03:32Z</time>
      </trkpt>
      <trkpt lat="45.92291" lon="6.49049">
        <ele>1472.88</ele>
        <time>2019-04-05T15:03:33Z</time>
      </trkpt>
      <trkpt lat="45.92285" lon="6.49041">
        <ele>1470.95</ele>
        <time>2019-04-05T15:03:34Z</time>
      </trkpt>
      <trkpt lat="45.92279" lon="6.49032">
        <ele>1469.99</ele>
        <time>2019-04-05T15:03:35Z</time>
      </trkpt>
      <trkpt lat="45.92273" lon="6.49023">
        <ele>1469.51</ele>
        <time>2019-04-05T15:03:36Z</time>
      </trkpt>
      <trkpt lat="45.92267" lon="6.49015">
        <ele>1469.51</ele>
        <time>2019-04-05T15:03:37Z</time>
      </trkpt>
      <trkpt lat="45.92247" lon="6.4899">
        <ele>1466.15</ele>
        <time>2019-04-05T15:03:40Z</time>
      </trkpt>
      <trkpt lat="45.92242" lon="6.48982">
        <ele>1465.19</ele>
        <time>2019-04-05T15:03:41Z</time>
      </trkpt>
      <trkpt lat="45.92237" lon="6.48973">
        <ele>1464.23</ele>
        <time>2019-04-05T15:03:42Z</time>
      </trkpt>
      <trkpt lat="45.92228" lon="6.48956">
        <ele>1463.26</ele>
        <time>2019-04-05T15:03:44Z</time>
      </trkpt>
      <trkpt lat="45.92223" lon="6.4895">
        <ele>1462.78</ele>
        <time>2019-04-05T15:03:45Z</time>
      </trkpt>
      <trkpt lat="45.92218" lon="6.48944">
        <ele>1461.82</ele>
        <time>2019-04-05T15:03:46Z</time>
      </trkpt>
      <trkpt lat="45.92204" lon="6.48926">
        <ele>1458.46</ele>
        <time>2019-04-05T15:03:49Z</time>
      </trkpt>
      <trkpt lat="45.92197" lon="6.48915">
        <ele>1457.5</ele>
        <time>2019-04-05T15:03:51Z</time>
      </trkpt>
      <trkpt lat="45.92176" lon="6.48886">
        <ele>1455.57</ele>
        <time>2019-04-05T15:03:57Z</time>
      </trkpt>
      <trkpt lat="45.92168" lon="6.48866">
        <ele>1455.57</ele>
        <time>2019-04-05T15:04:02Z</time>
      </trkpt>
      <trkpt lat="45.92168" lon="6.48862">
        <ele>1455.57</ele>
        <time>2019-04-05T15:04:03Z</time>
      </trkpt>
      <trkpt lat="45.92168" lon="6.48855">
        <ele>1456.05</ele>
        <time>2019-04-05T15:04:08Z</time>
      </trkpt>
      <trkpt lat="45.92168" lon="6.48852">
        <ele>1456.05</ele>
        <time>2019-04-05T15:04:11Z</time>
      </trkpt>
      <trkpt lat="45.9217" lon="6.48845">
        <ele>1456.53</ele>
        <time>2019-04-05T15:04:19Z</time>
      </trkpt>
      <trkpt lat="45.9217" lon="6.48844">
        <ele>1457.02</ele>
        <time>2019-04-05T15:04:20Z</time>
      </trkpt>
      <trkpt lat="45.92178" lon="6.48809">
        <ele>1459.9</ele>
        <time>2019-04-05T15:05:01Z</time>
      </trkpt>
      <trkpt lat="45.92176" lon="6.48788">
        <ele>1461.34</ele>
        <time>2019-04-05T15:05:21Z</time>
      </trkpt>
      <trkpt lat="45.92175" lon="6.48787">
        <ele>1461.34</ele>
        <time>2019-04-05T15:05:22Z</time>
      </trkpt>
      <trkpt lat="45.92169" lon="6.48768">
        <ele>1462.3</ele>
        <time>2019-04-05T15:05:40Z</time>
      </trkpt>
      <trkpt lat="45.92168" lon="6.48761">
        <ele>1462.78</ele>
        <time>2019-04-05T15:05:48Z</time>
      </trkpt>
      <trkpt lat="45.92167" lon="6.48757">
        <ele>1463.26</ele>
        <time>2019-04-05T15:05:53Z</time>
      </trkpt>
      <trkpt lat="45.9216" lon="6.48732">
        <ele>1465.19</ele>
        <time>2019-04-05T15:06:19Z</time>
      </trkpt>
      <trkpt lat="45.92161" lon="6.48729">
        <ele>1465.19</ele>
        <time>2019-04-05T15:06:21Z</time>
      </trkpt>
      <trkpt lat="45.9216" lon="6.48728">
        <ele>1465.19</ele>
        <time>2019-04-05T15:06:22Z</time>
      </trkpt>
      <trkpt lat="45.92159" lon="6.48724">
        <ele>1465.67</ele>
        <time>2019-04-05T15:06:26Z</time>
      </trkpt>
      <trkpt lat="45.92158" lon="6.48723">
        <ele>1465.67</ele>
        <time>2019-04-05T15:06:27Z</time>
      </trkpt>
      <trkpt lat="45.92151" lon="6.487">
        <ele>1467.11</ele>
        <time>2019-04-05T15:06:53Z</time>
      </trkpt>
      <trkpt lat="45.9214" lon="6.48688">
        <ele>1467.59</ele>
        <time>2019-04-05T15:07:07Z</time>
      </trkpt>
      <trkpt lat="45.92139" lon="6.48687">
        <ele>1467.59</ele>
        <time>2019-04-05T15:07:08Z</time>
      </trkpt>
      <trkpt lat="45.92138" lon="6.48686">
        <ele>1467.59</ele>
        <time>2019-04-05T15:07:09Z</time>
      </trkpt>
      <trkpt lat="45.92138" lon="6.48685">
        <ele>1467.59</ele>
        <time>2019-04-05T15:07:10Z</time>
      </trkpt>
      <trkpt lat="45.92137" lon="6.48684">
        <ele>1467.59</ele>
        <time>2019-04-05T15:07:11Z</time>
      </trkpt>
      <trkpt lat="45.92127" lon="6.48648">
        <ele>1466.63</ele>
        <time>2019-04-05T15:07:31Z</time>
      </trkpt>
      <trkpt lat="45.92129" lon="6.48636">
        <ele>1465.67</ele>
        <time>2019-04-05T15:07:33Z</time>
      </trkpt>
      <trkpt lat="45.92132" lon="6.4863">
        <ele>1465.67</ele>
        <time>2019-04-05T15:07:34Z</time>
      </trkpt>
      <trkpt lat="45.92134" lon="6.48625">
        <ele>1465.19</ele>
        <time>2019-04-05T15:07:35Z</time>
      </trkpt>
      <trkpt lat="45.92139" lon="6.48621">
        <ele>1464.71</ele>
        <time>2019-04-05T15:07:36Z</time>
      </trkpt>
      <trkpt lat="45.92141" lon="6.48616">
        <ele>1464.23</ele>
        <time>2019-04-05T15:07:37Z</time>
      </trkpt>
      <trkpt lat="45.92144" lon="6.48611">
        <ele>1464.23</ele>
        <time>2019-04-05T15:07:38Z</time>
      </trkpt>
      <trkpt lat="45.92173" lon="6.48554">
        <ele>1461.34</ele>
        <time>2019-04-05T15:07:48Z</time>
      </trkpt>
      <trkpt lat="45.92184" lon="6.48513">
        <ele>1457.98</ele>
        <time>2019-04-05T15:07:53Z</time>
      </trkpt>
      <trkpt lat="45.92202" lon="6.48472">
        <ele>1454.13</ele>
        <time>2019-04-05T15:07:58Z</time>
      </trkpt>
      <trkpt lat="45.92207" lon="6.48465">
        <ele>1453.65</ele>
        <time>2019-04-05T15:07:59Z</time>
      </trkpt>
      <trkpt lat="45.92212" lon="6.48459">
        <ele>1453.17</ele>
        <time>2019-04-05T15:08:00Z</time>
      </trkpt>
      <trkpt lat="45.92232" lon="6.48437">
        <ele>1449.81</ele>
        <time>2019-04-05T15:08:04Z</time>
      </trkpt>
      <trkpt lat="45.92236" lon="6.48434">
        <ele>1448.36</ele>
        <time>2019-04-05T15:08:05Z</time>
      </trkpt>
      <trkpt lat="45.92243" lon="6.4843">
        <ele>1447.88</ele>
        <time>2019-04-05T15:08:07Z</time>
      </trkpt>
      <trkpt lat="45.9228" lon="6.48406">
        <ele>1446.44</ele>
        <time>2019-04-05T15:08:23Z</time>
      </trkpt>
      <trkpt lat="45.92281" lon="6.48403">
        <ele>1445.96</ele>
        <time>2019-04-05T15:08:24Z</time>
      </trkpt>
      <trkpt lat="45.92284" lon="6.48395">
        <ele>1445</ele>
        <time>2019-04-05T15:08:42Z</time>
      </trkpt>
    </trkseg>
  </trk>
</gpx>